GFSMW_925_rhum_000.txt.gz
RH
35 41 40 40 38 37 32 32 33 39 45 57 62 67 65 67 66 66 67 68 68 68 68 69 69 69 69 71 74 75 76 74 78 82 78 78 72 72 73 73 70 67 65
44 46 43 40 40 40 40 38 36 39 43 50 57 64 64 67 64 63 67 69 71 73 76 77 78 78 78 78 80 82 82 82 81 80 81 86 70 71 69 70 74 72 72
45 50 52 49 41 39 38 38 42 43 41 50 55 59 64 70 67 66 68 67 70 71 72 74 78 80 83 83 84 85 89 84 81 82 83 96 93 89 65 61 63 66 67
48 52 55 51 45 41 37 36 35 36 38 42 46 50 56 58 59 60 60 58 59 60 64 69 75 81 85 87 84 85 88 92 90 86 90 85 81 90 82 64 67 62 61
52 55 56 50 46 42 40 38 37 37 37 36 36 36 38 40 39 39 38 38 38 38 41 40 44 73 88 91 91 89 92 95 97 93 90 94 94 88 91 94 76 66 67
53 54 50 45 43 40 40 39 38 39 39 40 41 42 43 43 43 43 44 45 44 44 44 43 43 43 49 70 86 90 97 96 90 95 96 93 92 86 89 94 87 83 73
53 56 55 52 46 42 40 40 41 44 43 43 45 47 48 49 51 52 52 52 48 45 43 38 37 38 40 43 46 53 74 91 96 93 88 86 95 92 85 85 87 86 76
53 54 53 50 46 43 43 43 45 47 46 45 48 50 52 53 55 56 55 55 48 46 40 38 36 33 33 34 38 48 53 63 70 71 74 84 83 83 87 90 92 88 82
53 54 51 47 44 47 45 47 50 53 54 56 55 57 58 56 55 52 48 44 42 43 41 40 42 43 45 45 44 53 53 55 60 59 61 71 76 78 80 84 86 90 93
53 55 53 48 49 49 54 55 57 57 55 54 53 53 58 55 52 49 49 48 46 46 48 51 53 55 56 55 54 60 60 62 61 63 64 67 71 75 81 86 86 87 89
54 55 53 52 53 59 60 59 55 52 50 50 50 49 52 52 52 52 51 51 51 54 57 59 61 62 61 57 58 60 59 60 64 66 62 69 71 76 80 82 85 85 84
55 56 58 61 65 65 62 59 57 55 53 53 52 51 52 49 46 42 40 41 46 47 50 57 58 56 51 57 63 61 62 64 58 62 68 76 78 81 82 84 84 85 85
59 54 60 73 73 67 64 58 54 52 51 50 47 49 43 40 37 37 35 34 40 46 48 51 50 48 52 58 54 62 62 59 64 67 75 80 79 74 75 82 86 85 85
52 56 74 84 72 65 60 54 50 46 44 41 42 42 37 30 26 26 25 28 33 43 44 43 40 45 57 46 51 60 54 66 67 78 65 60 61 67 82 88 88 89 89
52 64 88 87 72 63 56 50 46 43 40 37 40 33 23 19 21 23 28 31 36 38 42 39 39 42 51 36 54 47 49 59 74 54 47 54 51 60 75 61 62 78 88
58 84 83 74 70 61 52 48 45 42 35 35 29 22 21 21 22 24 28 30 32 34 38 38 39 45 34 40 43 43 51 67 57 51 48 56 59 72 57 52 69 81 91
81 82 77 72 64 51 48 47 42 35 24 27 22 22 23 25 25 27 30 32 34 35 37 36 38 34 34 36 37 49 52 42 45 44 44 49 65 68 54 61 70 76 83
79 77 70 62 53 48 46 40 32 23 19 23 25 25 27 30 30 32 34 34 34 35 36 38 35 35 32 32 42 52 40 33 36 51 50 63 74 69 68 71 76 77 81
78 70 59 55 50 44 37 29 21 21 21 26 27 28 30 33 34 36 36 36 36 38 39 37 36 36 35 38 49 42 42 49 54 57 59 69 71 75 73 73 80 86 84
63 60 56 51 45 34 25 21 23 24 26 28 30 31 33 35 37 38 39 40 42 42 42 42 40 38 36 36 40 46 50 55 58 59 66 74 71 70 70 74 83 90 85
60 56 53 46 34 25 23 24 26 27 29 31 33 36 37 38 40 41 43 46 48 48 48 45 43 41 40 47 52 56 61 61 63 68 73 69 68 68 73 76 87 94 93
56 50 44 35 27 25 27 28 29 30 33 35 37 39 40 41 43 45 48 50 52 52 50 50 48 50 56 61 62 63 62 62 70 81 72 73 70 77 80 77 87 91 95
47 40 36 31 26 28 30 32 31 34 36 39 40 42 42 44 48 50 52 55 54 55 55 55 60 65 67 67 67 64 65 76 74 71 77 67 81 71 73 76 84 93 98
40 34 30 29 30 31 30 32 33 36 39 42 44 45 48 51 52 53 54 55 57 58 60 66 70 72 71 74 70 75 79 73 84 87 68 76 66 67 70 75 82 92 98
41 31 31 32 33 32 32 33 34 37 41 44 48 50 51 53 55 55 56 58 60 64 68 69 71 73 80 75 71 67 68 93 80 61 75 77 73 76 81 80 84 88 95
34 31 32 35 34 36 35 34 34 39 43 50 51 53 55 58 58 58 58 63 67 68 68 67 67 67 65 71 61 63 84 85 60 68 78 81 79 84 83 84 90 88 92

GFSMW_925_rhum_003.txt.gz
RH
44 46 44 41 40 42 41 42 43 46 45 54 64 68 65 65 67 70 71 72 73 74 74 75 76 75 75 76 80 82 84 84 83 90 84 82 81 79 80 78 76 75 73
51 52 49 43 41 40 40 42 44 48 53 57 66 68 69 70 73 74 75 77 78 78 82 85 87 88 89 88 87 88 90 90 86 86 88 92 75 71 68 72 74 68 69
52 57 56 51 45 44 42 39 38 41 46 60 64 69 68 64 54 53 50 51 53 55 56 56 67 78 92 95 94 92 94 94 90 87 88 98 94 88 66 65 67 68 66
54 56 57 55 49 44 41 40 40 39 39 38 40 42 47 51 49 45 43 42 43 43 42 42 42 43 58 83 96 97 99 100 98 95 91 89 85 93 90 69 71 72 71
55 58 58 51 47 44 44 42 42 42 42 41 42 43 46 48 48 47 46 46 44 42 37 34 33 33 34 38 44 57 88 98 96 98 97 96 97 95 97 93 79 73 75
58 58 53 47 46 44 44 43 43 45 45 46 48 49 50 52 51 52 51 49 43 41 38 35 34 34 37 41 42 41 43 55 81 94 93 94 89 86 90 95 90 88 80
58 58 59 54 50 47 46 47 47 51 49 48 50 52 53 53 52 50 46 44 42 41 40 38 36 37 40 43 48 46 45 51 56 63 74 80 84 83 84 85 85 83 73
59 59 59 54 51 50 52 52 52 52 51 52 54 52 50 49 47 46 46 46 46 46 45 42 44 46 47 51 54 53 55 60 59 61 63 70 78 78 84 86 89 84 79
59 59 56 55 52 56 58 54 50 51 51 50 50 50 48 48 48 46 43 42 41 45 41 42 49 49 53 54 52 59 62 61 63 64 67 72 69 75 81 84 87 87 94
59 59 60 57 59 60 58 51 48 49 49 48 49 51 48 44 40 36 34 33 35 38 41 44 52 54 55 51 54 62 61 63 66 63 60 64 68 78 83 87 88 87 89
60 62 64 60 62 61 56 52 50 49 50 50 47 45 38 33 29 25 22 21 22 28 36 42 46 46 45 51 62 54 58 68 60 59 65 69 75 83 79 74 74 78 84
59 64 66 68 68 63 55 51 49 48 47 44 42 35 29 20 14 14 16 17 22 21 30 34 39 38 42 49 57 46 63 55 55 67 66 74 78 69 71 64 71 83 86
66 68 78 78 72 65 56 50 45 44 41 38 36 27 16 13 16 16 15 16 19 22 26 33 38 38 40 54 43 41 58 46 48 57 65 86 62 71 64 66 89 71 56
57 67 86 83 71 61 52 47 44 41 36 33 25 17 14 15 16 16 17 18 22 26 28 34 36 37 43 38 33 48 48 50 61 66 69 54 53 58 65 75 71 60 72
58 77 90 85 70 58 51 47 43 39 30 26 18 19 18 18 19 20 22 24 25 26 26 28 27 32 36 31 40 46 51 64 47 40 42 42 44 41 51 78 74 67 75
58 82 86 75 67 57 49 46 42 32 18 18 20 21 21 23 24 24 23 23 25 28 29 32 34 38 36 37 42 50 58 55 40 37 41 54 50 49 68 72 70 72 75
74 88 78 70 62 50 48 44 34 20 16 20 23 24 25 27 27 27 28 30 34 36 37 38 40 39 38 40 46 50 54 46 47 52 56 59 59 66 77 74 73 78 75
84 80 71 64 51 48 43 34 20 18 20 24 26 28 30 32 32 33 34 36 39 41 42 42 42 42 42 45 48 49 49 52 53 57 60 61 65 71 67 67 64 75 74
79 71 60 55 48 43 33 22 20 23 24 28 30 31 33 34 35 36 38 40 43 45 46 46 46 47 46 47 50 54 58 60 62 64 64 70 67 68 61 64 70 73 72
64 60 55 51 45 31 23 23 25 24 27 29 32 34 35 36 37 40 42 44 46 50 50 51 51 50 50 51 57 62 64 66 68 77 87 73 68 62 66 64 74 98 98
64 58 54 45 32 26 24 27 26 27 30 32 34 34 36 38 40 44 43 46 52 55 57 55 55 56 58 63 64 64 66 67 81 98 75 73 69 76 63 67 87 94 85
61 54 45 35 27 25 26 27 26 30 32 34 35 37 37 40 44 48 49 52 57 59 58 59 59 62 67 67 66 65 65 69 79 73 76 84 73 62 62 62 61 62 75
50 44 39 31 25 27 28 28 30 33 35 37 38 37 40 44 50 50 53 58 59 59 62 63 66 70 70 72 72 71 74 72 67 79 88 65 63 66 68 69 69 77 88
46 37 30 26 28 29 28 31 33 35 38 39 40 41 46 52 52 55 59 58 60 62 66 70 72 75 81 79 74 84 86 73 72 99 71 62 67 71 72 79 82 87 87
38 33 29 30 31 30 31 32 33 35 38 42 43 45 50 56 59 61 58 59 62 67 70 71 72 76 79 76 68 76 68 66 97 70 66 66 76 78 79 80 81 82 85
34 31 31 33 32 33 31 31 33 37 41 46 50 52 59 62 63 62 61 64 69 68 67 68 68 68 66 66 69 64 68 84 72 64 71 79 80 81 82 84 82 85 83

GFSMW_925_rhum_006.txt.gz
RH
52 51 46 43 42 42 44 46 48 55 50 63 72 72 72 73 79 82 82 81 83 87 88 88 87 87 90 91 94 95 94 93 92 96 90 86 80 77 75 72 74 74 68
57 57 51 46 45 43 41 42 44 52 62 66 74 76 79 73 55 51 52 54 51 50 49 50 51 55 68 81 92 99 100 98 93 96 93 95 80 73 68 67 72 70 71
58 61 60 54 48 46 43 41 40 41 46 57 62 63 46 44 45 48 48 47 44 40 39 37 36 36 38 44 50 78 97 98 96 94 98 97 91 84 78 71 71 70 70
57 60 59 58 52 50 45 44 44 43 43 41 42 45 52 56 57 53 49 45 43 40 37 36 35 35 38 42 46 46 50 70 93 92 88 97 98 96 93 73 78 75 73
62 63 62 57 53 48 48 47 47 48 48 48 48 50 53 53 50 46 43 41 39 39 38 36 35 35 38 41 48 49 48 51 70 79 91 90 84 86 89 88 75 70 71
64 64 57 53 53 51 49 48 48 52 50 49 50 50 50 48 46 46 44 43 41 40 40 37 37 40 42 46 49 48 45 53 59 64 73 80 85 86 89 90 83 84 76
66 65 64 61 56 54 53 52 51 56 53 51 50 49 50 49 49 46 44 41 40 39 39 34 35 39 41 46 46 49 53 56 62 63 70 77 82 85 84 84 81 82 73
66 66 66 61 60 59 56 51 50 52 51 50 48 47 45 43 40 37 33 30 30 33 25 20 21 26 31 36 46 56 58 60 64 68 71 67 71 73 76 86 92 87 76
66 67 66 61 64 61 56 52 50 51 51 50 48 43 38 34 29 23 17 14 14 18 18 22 24 24 26 29 39 61 56 52 66 74 58 65 70 74 81 89 88 89 89
65 68 68 67 68 60 55 52 50 52 49 46 42 37 29 22 15 11 11 13 15 17 20 21 23 23 22 25 31 60 42 53 72 52 53 65 68 76 87 78 81 76 80
66 70 70 71 68 60 55 51 48 47 44 44 36 28 18 12 12 12 13 14 15 19 20 21 22 22 25 26 35 47 42 50 59 47 51 62 67 84 70 78 70 66 76
66 72 74 75 68 60 53 48 46 43 40 38 29 18 12 11 11 13 16 18 19 18 20 20 22 24 28 34 40 37 40 55 50 54 64 73 70 57 64 63 54 70 79
70 77 84 80 73 60 51 46 43 39 36 29 19 13 13 14 15 16 16 16 17 18 18 20 26 29 31 35 32 39 47 50 55 64 49 41 49 48 49 50 55 67 79
69 82 88 83 69 56 49 45 42 36 31 20 14 16 17 18 18 19 18 18 20 23 23 23 25 27 29 32 34 47 51 56 64 54 44 41 43 52 58 54 58 74 80
67 82 88 83 66 54 50 45 40 30 20 15 18 21 20 19 21 21 21 22 22 24 24 25 24 28 36 34 46 50 54 56 57 50 50 53 57 58 56 63 67 70 72
65 86 88 77 67 54 49 45 37 23 15 19 22 21 21 23 26 25 24 23 25 27 27 30 33 34 38 43 49 53 56 56 54 57 58 58 61 61 66 66 63 62 64
66 91 82 73 59 51 48 41 28 18 19 19 19 23 27 29 29 26 26 29 31 31 33 32 36 41 44 48 54 56 58 60 63 63 64 65 66 71 75 71 66 67 68
84 86 76 64 52 49 42 32 21 20 18 18 23 28 31 31 30 30 32 32 35 39 39 43 45 49 50 54 57 61 65 66 66 66 69 71 88 82 68 67 85 97 70
86 75 62 54 50 43 31 22 21 19 20 26 30 30 32 34 35 33 34 38 41 42 45 51 52 55 56 58 63 65 66 66 68 70 70 90 83 70 66 89 87 69 88
71 65 58 51 43 31 24 22 22 23 27 30 31 31 33 33 31 36 42 43 44 52 54 56 58 58 60 64 67 64 66 68 72 74 95 79 64 64 75 60 67 85 70
64 58 52 45 34 26 23 25 24 27 30 31 30 30 28 32 37 42 43 46 51 58 60 59 59 62 65 70 66 64 65 67 81 97 73 67 73 93 60 58 70 71 64
64 55 46 36 29 25 27 28 28 30 31 31 31 31 32 34 38 45 48 52 58 62 61 62 64 68 71 70 70 66 64 68 82 72 66 77 95 63 59 67 67 66 68
57 49 43 33 26 29 28 29 30 31 32 32 33 33 34 37 46 52 55 62 62 62 64 65 71 72 73 76 75 71 76 74 66 67 84 90 65 59 70 70 68 71 82
52 44 34 28 29 30 30 30 31 32 34 36 35 35 41 50 51 56 58 63 64 65 68 72 72 76 78 80 77 88 83 78 75 96 97 70 63 66 70 73 77 80 82
46 37 31 29 29 30 29 29 32 34 36 38 39 43 48 53 57 61 62 63 64 69 69 68 72 79 81 76 70 74 66 72 85 65 63 68 73 77 75 77 78 80 83
40 34 30 30 29 30 31 30 32 35 40 45 48 50 58 61 63 66 68 69 69 67 65 67 69 71 71 72 74 65 74 77 53 55 62 81 81 76 76 80 83 84 85

GFSMW_925_rhum_009.txt.gz
RH
52 57 51 45 44 44 47 57 61 64 63 66 70 82 90 76 63 59 56 53 52 49 47 49 48 48 73 78 82 91 88 87 90 100 93 84 79 81 80 78 81 80 72
51 55 56 50 47 45 44 45 53 67 73 76 84 80 64 56 51 49 46 43 40 38 37 35 35 35 39 47 60 68 72 69 70 82 88 84 68 61 79 81 77 80 81
53 54 56 59 52 51 47 44 43 43 53 66 47 46 47 49 51 48 45 44 40 38 36 36 36 36 38 52 58 65 66 64 60 65 70 76 72 77 60 65 69 77 83
56 56 57 59 60 55 50 47 45 44 44 43 45 49 59 60 60 48 43 39 38 37 35 34 34 36 44 53 59 58 66 66 63 64 54 66 69 70 70 43 55 55 63
57 59 60 63 58 53 52 51 49 49 48 47 46 45 49 49 43 39 37 36 34 32 27 25 26 32 50 52 58 58 62 70 71 68 71 70 69 65 73 80 56 63 58
60 60 63 60 60 56 53 51 50 52 48 45 44 42 42 43 41 38 37 40 38 39 25 16 25 40 43 49 53 59 65 68 68 73 76 76 76 72 72 76 69 66 62
60 60 60 62 65 60 57 55 51 51 46 44 43 42 39 35 33 32 32 27 31 35 27 15 20 36 36 39 43 45 59 57 62 76 82 76 65 58 60 66 73 74 66
61 60 62 66 68 62 57 54 53 53 47 43 39 35 30 24 19 15 15 26 30 33 19 15 18 18 21 24 35 40 60 45 60 79 68 56 46 49 58 70 84 85 61
64 63 64 68 70 63 57 53 52 52 47 41 34 27 21 15 11 9 9 11 15 25 14 12 12 13 19 30 37 37 46 44 43 54 51 48 52 66 73 82 84 70 84
64 64 64 72 73 61 56 53 49 48 42 35 28 20 14 10 8 8 10 11 12 13 15 16 21 32 32 32 34 37 40 39 39 45 46 55 60 67 70 61 60 67 64
63 64 68 77 70 58 53 50 45 43 38 30 22 15 11 10 9 10 12 13 15 18 21 25 27 30 30 31 34 34 34 38 46 48 52 62 56 45 47 55 54 52 50
63 65 74 75 66 58 51 46 42 40 33 24 16 12 10 10 10 13 15 17 18 18 20 21 24 31 32 34 34 35 38 44 48 51 60 56 46 44 44 47 52 59 60
68 70 78 72 64 56 48 44 39 37 28 19 14 11 11 12 15 18 19 18 18 19 19 22 29 32 34 36 36 38 45 49 50 52 56 50 48 50 52 58 61 64 66
69 74 78 74 64 53 48 44 37 33 22 16 13 12 13 18 22 21 18 20 21 22 21 22 30 36 38 40 37 48 51 53 53 53 54 53 55 54 61 63 65 66 69
72 77 80 72 60 54 49 44 36 26 19 15 15 17 21 24 21 20 22 23 23 25 26 29 35 40 41 33 51 54 56 57 56 57 58 58 60 64 64 65 70 72 71
69 79 78 69 60 55 49 45 33 22 17 18 20 24 24 23 24 24 24 25 27 27 28 38 40 43 40 48 56 61 62 61 62 63 63 61 64 66 68 71 68 64 74
66 80 77 70 60 52 49 41 26 19 18 20 24 24 26 28 27 25 25 28 32 34 40 39 40 44 46 54 61 63 66 65 63 62 64 67 67 71 84 78 66 91 76
67 84 76 68 54 51 44 32 22 20 20 22 22 27 31 29 26 26 28 30 40 45 44 45 47 49 51 60 64 68 65 65 61 63 65 68 76 84 66 67 99 69 59
78 80 70 56 53 45 34 25 21 21 20 22 27 30 30 29 28 28 33 38 46 47 48 49 51 53 57 62 70 67 65 63 64 66 67 82 76 63 64 98 72 66 66
78 72 59 53 45 33 27 22 22 21 24 28 30 30 29 29 30 33 37 40 43 52 53 54 57 58 61 68 70 65 65 67 70 75 83 70 59 62 97 69 64 68 70
67 60 53 47 37 29 24 25 24 24 27 30 29 28 29 31 32 36 38 41 50 58 59 58 57 62 67 70 67 65 65 74 89 91 72 64 66 98 80 59 61 68 66
64 55 48 38 31 27 26 26 24 27 28 29 32 31 29 31 34 39 42 53 60 62 61 58 62 68 69 69 70 66 66 73 76 72 67 79 98 64 61 59 63 64 66
62 53 45 34 30 28 28 26 27 29 32 34 31 30 30 32 37 47 57 59 60 64 62 64 70 70 70 75 73 72 79 72 66 73 92 62 52 55 64 64 61 67 79
56 49 40 33 32 31 28 27 30 34 34 33 33 32 34 46 46 50 57 65 66 67 68 70 68 75 76 78 77 86 79 72 89 92 58 55 55 67 68 66 69 75 79
55 44 37 31 29 29 29 31 33 33 34 35 34 36 40 48 58 62 66 67 68 72 68 67 70 78 81 76 72 70 64 80 82 56 59 61 75 73 69 70 73 77 81
44 39 33 29 30 33 32 32 33 35 37 38 45 46 59 62 63 67 68 73 73 69 67 70 70 72 72 74 69 64 76 76 59 61 65 76 78 75 74 76 80 82 82

GFSMW_925_rhum_012.txt.gz
RH
36 41 42 40 42 45 50 59 66 66 63 65 68 67 62 59 56 54 50 48 47 46 47 46 44 45 45 45 44 45 44 41 42 42 40 43 45 47 41 59 58 50 54
34 38 40 40 40 42 43 51 64 73 73 76 68 58 56 54 53 53 52 49 46 46 44 45 44 46 45 45 47 49 49 44 43 44 45 40 37 33 42 42 38 40 39
34 36 38 41 42 47 48 49 56 59 55 52 52 53 54 51 49 49 47 47 46 43 44 45 43 44 45 44 45 44 47 45 40 42 42 42 48 45 40 38 38 37 42
34 37 39 42 48 56 56 54 53 54 54 51 50 48 46 46 47 44 45 42 44 41 35 36 37 37 36 37 37 35 41 42 40 40 40 44 43 51 52 38 42 38 44
37 40 43 49 54 58 58 55 53 52 52 50 46 43 43 44 43 40 38 38 36 37 31 31 31 31 30 33 35 35 37 41 40 37 44 46 46 44 47 53 37 37 35
39 41 48 50 56 61 58 53 50 51 50 47 46 45 42 38 37 35 30 28 26 28 27 28 26 27 29 30 30 32 36 42 36 38 42 48 46 41 37 34 36 38 36
42 45 46 48 53 57 58 52 49 48 47 45 42 41 39 36 31 27 24 22 21 23 24 26 25 24 26 27 28 29 34 39 37 42 47 45 36 34 30 31 41 43 47
40 42 45 49 54 56 54 50 49 47 44 40 36 33 32 29 25 24 23 20 20 21 25 26 25 25 25 25 25 26 27 30 32 31 35 43 33 33 38 46 55 65 58
42 43 47 50 52 52 51 51 51 48 42 36 31 28 26 25 23 21 21 22 22 21 22 23 22 24 24 24 25 23 24 26 28 29 34 35 36 39 44 47 47 50 62
43 44 46 51 51 51 53 50 46 42 38 32 28 26 22 21 20 21 22 22 21 22 23 22 22 22 22 22 23 24 24 26 28 30 34 37 38 45 41 37 35 39 43
44 45 46 53 52 52 50 46 45 40 34 29 25 23 21 20 20 20 20 21 22 22 23 23 23 22 22 22 23 23 24 28 30 33 34 38 39 43 38 38 38 39 41
43 43 49 54 51 49 47 43 42 38 33 27 23 22 22 21 19 20 21 22 22 23 24 24 24 22 23 25 25 26 27 31 33 35 36 38 38 40 41 41 42 45 46
46 46 52 51 48 46 43 40 39 35 29 24 22 21 22 21 21 22 23 23 24 25 25 25 25 25 27 28 28 26 32 35 37 38 40 42 43 44 44 45 48 49 51
47 48 52 50 48 44 41 38 37 35 28 24 22 23 24 24 25 26 26 26 28 28 28 28 28 29 30 29 26 36 41 42 43 44 46 47 47 47 51 53 54 58 64
48 51 53 50 48 44 41 39 35 31 24 23 23 27 27 28 29 29 29 29 31 31 31 31 29 30 32 26 43 50 51 50 49 48 47 47 50 55 56 58 63 72 64
46 51 53 52 49 44 42 42 33 27 24 23 25 28 28 29 29 30 30 30 32 32 32 30 29 31 30 37 52 63 60 55 51 48 47 46 47 48 58 63 66 58 70
45 51 55 54 50 45 44 40 29 24 23 24 25 28 29 29 30 31 30 30 31 32 32 31 31 31 33 40 58 65 64 55 49 48 47 47 47 58 64 62 56 68 81
48 53 57 58 51 46 44 32 26 24 23 25 25 28 30 30 30 29 29 30 31 32 32 32 33 35 36 46 60 69 59 52 49 48 49 50 61 64 57 56 77 88 62
48 57 61 56 49 46 38 30 25 23 23 24 26 29 30 30 29 28 30 31 33 34 34 34 36 37 39 49 64 66 57 50 49 51 52 66 62 55 53 91 98 71 62
65 64 57 50 45 38 30 28 24 22 21 26 29 32 33 32 29 32 33 35 36 35 35 36 36 39 45 51 63 64 58 54 56 59 66 55 55 61 78 75 54 83 63
61 55 49 44 38 31 28 26 24 21 27 31 33 33 32 31 32 34 36 39 38 37 35 36 38 44 51 55 59 64 62 64 75 84 65 60 62 69 56 53 59 65 63
56 50 46 40 34 30 28 25 22 27 32 34 34 32 31 32 36 41 42 41 37 36 35 38 43 49 50 53 59 63 63 70 85 70 66 70 67 54 53 58 65 57 61
54 49 44 38 34 31 27 23 26 32 34 34 31 31 32 34 38 39 41 40 37 38 41 45 48 48 52 54 57 59 66 67 62 65 80 64 54 54 60 63 57 60 66
56 51 44 39 34 32 31 29 33 36 36 32 31 32 34 39 40 39 39 41 40 43 47 51 52 56 57 57 61 73 79 66 69 89 80 54 53 54 58 58 60 65 69
56 50 45 40 35 31 31 34 35 36 34 32 32 34 36 39 40 39 41 48 52 59 66 64 65 66 66 65 66 71 66 71 86 72 59 54 56 62 63 63 65 68 73
56 48 43 38 31 31 33 34 31 38 38 36 34 37 44 42 39 40 43 48 58 64 66 69 70 68 66 66 68 63 73 81 67 62 58 62 69 69 68 68 71 75 81

GFSMW_925_rhum_015.txt.gz
RH
29 33 34 34 38 44 50 53 53 55 56 59 61 58 54 52 50 47 44 43 43 42 44 42 40 42 42 42 43 42 44 42 40 39 40 38 38 32 35 36 35 34 35
29 32 32 32 34 38 48 55 59 61 60 56 56 52 51 49 49 48 45 41 39 39 39 41 39 40 40 40 40 38 39 36 35 36 37 40 33 30 34 31 35 34 37
29 31 31 34 36 40 46 50 50 51 53 54 53 51 49 46 44 41 41 41 39 33 33 34 33 33 32 33 33 31 36 38 34 34 33 40 39 41 37 35 34 34 31
27 30 32 37 44 49 49 47 48 47 46 44 43 42 41 40 39 38 38 36 38 32 28 28 29 29 28 30 30 28 32 34 36 33 30 33 34 46 45 30 32 28 27
29 33 36 42 48 52 51 48 47 46 45 42 40 38 37 37 36 34 32 30 28 29 27 25 26 26 28 29 30 30 31 35 35 30 32 33 35 36 36 39 32 27 25
32 35 41 46 53 54 51 46 44 43 42 40 39 38 36 34 34 31 27 25 23 25 25 25 24 24 27 27 28 28 30 32 34 34 35 33 35 35 32 32 33 34 35
34 39 42 44 50 52 48 43 41 40 39 38 37 38 36 33 30 26 24 22 21 22 23 24 22 22 23 24 25 26 27 26 30 31 33 30 32 35 31 31 38 43 45
35 39 40 43 49 49 44 42 40 38 36 34 33 32 31 29 26 24 23 21 21 20 21 22 21 21 22 22 23 24 23 23 26 29 30 32 34 32 33 37 44 54 47
36 37 40 44 48 46 44 43 40 37 34 32 30 27 26 25 24 22 22 22 20 18 20 21 20 21 21 21 22 22 23 23 24 26 29 30 32 34 36 40 45 44 51
36 38 40 43 44 44 45 43 39 36 33 30 28 26 23 21 21 21 20 20 19 19 20 20 20 20 20 21 21 23 23 23 24 27 29 32 33 34 37 39 40 40 43
37 38 39 43 44 46 45 42 38 34 32 29 27 25 23 21 20 20 19 19 19 19 20 20 20 20 21 22 23 24 24 23 26 29 31 33 35 36 37 40 42 44 44
36 37 39 44 45 45 42 40 38 34 32 28 24 24 24 22 21 20 20 19 19 19 21 22 22 23 23 25 26 25 23 26 30 32 35 36 38 41 44 44 45 47 48
37 37 40 43 43 43 41 39 36 33 30 26 24 24 24 23 21 21 21 21 21 22 23 24 25 26 26 27 27 25 27 34 37 39 40 42 44 45 46 47 51 52 55
39 38 43 42 41 41 40 36 36 34 29 25 25 25 24 24 23 24 24 24 24 26 27 28 28 28 27 28 28 30 40 45 47 47 46 46 44 44 48 52 56 60 66
40 40 44 42 41 40 38 36 35 32 27 24 25 27 26 26 25 26 26 26 27 29 30 30 30 28 30 27 32 44 51 56 54 51 47 43 44 46 48 49 60 70 80
38 40 43 42 42 40 38 37 35 30 26 24 25 26 25 25 25 27 27 27 29 30 30 30 29 30 29 30 38 49 59 60 57 51 46 44 43 43 47 54 58 59 56
35 41 44 45 44 41 40 39 33 28 25 24 24 24 25 25 26 26 26 27 28 28 30 29 29 29 29 33 41 51 64 63 54 48 45 45 45 51 62 62 61 63 71
37 40 43 48 46 43 41 37 29 26 25 24 22 24 24 24 25 25 26 27 28 29 30 30 29 30 31 34 44 55 63 56 52 47 47 49 57 65 58 68 90 93 81
40 44 48 50 47 44 38 32 29 25 24 22 22 23 24 25 25 25 27 30 30 32 32 30 30 31 31 37 46 59 60 58 53 52 54 59 64 58 66 83 85 63 61
52 54 53 49 46 41 35 32 27 24 20 22 24 25 26 27 26 27 29 32 34 33 31 30 30 29 33 40 51 55 60 60 59 63 73 63 56 62 82 67 58 66 69
54 52 49 46 40 35 33 30 25 21 24 26 26 27 27 26 27 31 36 38 36 34 31 30 30 32 38 44 48 54 58 62 66 84 70 65 60 74 63 53 57 66 74
53 48 44 40 34 33 32 27 23 25 27 28 28 27 27 27 31 36 40 38 37 33 30 31 33 39 42 45 50 54 58 59 78 78 68 68 90 58 51 54 55 58 62
49 46 42 37 35 32 30 24 24 27 28 28 27 26 27 30 32 37 37 37 33 32 33 35 40 47 51 55 55 57 59 65 65 65 68 94 56 52 54 56 57 58 65
49 46 42 39 36 33 29 25 28 30 30 28 26 26 30 34 35 35 35 34 34 38 42 48 57 61 64 62 62 65 74 72 76 86 95 56 52 54 57 61 62 65 67
53 50 46 42 38 33 28 28 31 31 30 28 27 30 32 35 37 36 34 35 39 45 57 62 65 69 66 65 63 68 65 78 87 72 62 58 60 65 66 65 66 68 73
54 51 47 44 35 29 28 30 33 34 32 31 33 34 37 38 36 34 37 38 42 46 49 53 58 61 62 63 66 63 69 78 64 62 62 64 70 71 69 70 72 78 85

GFSMW_925_rhum_018.txt.gz
RH
36 33 34 38 46 49 53 56 57 59 60 64 62 55 52 48 46 44 42 40 39 39 37 40 38 37 39 39 36 35 34 36 33 37 39 29 32 24 29 20 26 25 30
40 36 34 36 46 55 59 59 61 58 59 57 55 53 51 49 45 42 40 36 32 32 30 29 31 30 31 31 31 31 35 36 35 41 39 56 37 31 28 36 34 35 29
41 40 41 39 46 51 51 56 60 56 55 52 50 48 47 45 42 41 39 38 32 26 25 25 26 27 28 30 29 30 32 36 35 35 39 59 59 42 35 35 35 24 25
38 39 44 47 49 50 50 50 50 51 50 49 49 48 42 41 40 38 35 33 30 27 22 24 25 26 27 28 28 29 31 34 38 38 32 33 36 48 51 38 32 30 26
38 44 52 51 52 51 49 48 46 44 42 41 40 40 39 36 35 32 28 26 26 25 22 23 23 24 24 24 26 26 28 30 32 35 36 36 38 33 44 46 40 34 30
41 48 50 54 56 50 46 44 42 42 40 38 38 36 36 35 30 27 24 22 23 22 22 22 21 22 23 23 24 24 24 25 27 28 31 35 38 37 38 46 40 38 36
45 53 60 61 56 51 45 43 41 39 38 38 37 35 31 29 26 24 22 22 21 21 20 21 21 21 21 22 22 22 23 24 25 26 26 31 32 35 38 38 41 45 41
47 53 58 58 56 50 42 41 38 37 35 33 32 31 28 26 24 23 23 21 20 18 19 20 20 20 20 20 20 21 23 23 24 25 25 27 30 33 36 39 48 51 47
48 51 56 56 53 46 43 40 37 35 32 30 27 26 25 24 23 23 21 20 19 19 20 20 19 19 20 20 21 22 24 24 24 24 26 28 33 34 36 38 41 50 59
47 50 53 53 48 46 43 39 36 33 31 29 26 24 22 22 21 20 20 19 19 19 19 20 19 20 21 22 23 24 25 25 24 26 28 32 35 37 39 40 43 46 51
46 49 52 49 46 46 44 38 35 32 30 28 25 24 23 22 20 20 19 18 19 19 20 21 22 23 24 24 26 27 27 27 26 31 35 39 40 41 44 45 49 51 50
45 49 51 49 48 47 43 38 34 32 29 26 25 25 23 22 21 20 20 20 20 21 22 23 24 26 27 27 28 28 29 29 38 41 46 47 48 48 48 50 49 53 53
48 50 53 53 50 46 42 39 34 32 28 25 25 25 25 24 22 22 22 22 23 23 25 27 28 29 29 29 29 30 32 39 46 52 56 56 54 52 50 48 51 52 56
46 48 54 55 48 44 41 38 34 31 27 25 25 26 25 24 24 24 24 25 25 26 28 30 30 30 31 30 30 31 37 46 56 61 61 59 55 50 50 50 52 54 66
47 49 56 54 48 44 39 36 34 31 27 26 27 27 25 24 24 25 26 25 26 28 30 30 30 31 30 32 31 37 44 51 61 64 64 59 51 49 48 49 57 60 60
47 50 54 53 49 43 38 36 34 28 25 25 26 26 24 24 24 26 25 26 27 28 28 29 30 30 30 32 36 41 46 55 63 66 60 55 50 49 53 56 54 60 80
48 51 55 54 47 42 38 36 33 28 25 25 24 24 24 25 25 25 25 26 27 29 30 31 32 32 31 34 38 42 49 57 63 62 59 55 54 56 63 68 74 98 86
48 53 57 52 44 41 39 36 29 26 26 24 23 23 24 24 25 25 26 26 29 31 32 33 33 31 31 33 37 44 52 58 61 61 60 60 62 68 65 75 96 98 73
54 55 52 47 43 41 37 29 28 26 24 23 22 23 24 26 26 26 27 29 33 35 36 34 33 31 30 34 39 47 53 57 59 62 65 71 72 70 66 78 97 69 75
60 58 50 46 43 35 32 30 26 25 22 22 23 25 26 27 27 27 28 34 39 40 38 37 33 31 32 35 44 48 54 57 63 68 83 80 67 59 79 75 63 78 64
56 50 48 46 39 35 33 28 25 22 23 24 26 27 27 27 27 28 33 38 40 39 36 34 32 34 36 44 50 55 58 62 68 94 89 81 62 86 75 57 62 59 67
54 49 44 38 34 34 30 26 23 24 25 27 27 28 27 26 29 32 36 38 38 36 35 36 39 42 52 59 62 61 60 63 83 84 77 70 87 64 58 59 57 62 61
49 43 38 36 34 32 29 24 26 26 27 27 27 26 26 29 33 36 36 36 36 35 37 42 48 59 65 68 68 64 65 68 68 74 76 92 66 58 58 60 61 63 70
50 42 38 37 34 30 25 26 28 27 28 28 26 26 29 34 36 38 38 36 35 38 43 50 58 62 63 66 66 67 74 70 76 89 97 70 60 59 64 67 68 71 75
50 43 42 39 35 32 27 28 29 28 29 28 28 32 35 38 40 40 37 38 41 44 49 52 55 58 60 61 58 60 60 68 87 76 75 62 66 73 72 71 72 74 84
53 51 47 40 34 29 28 30 28 28 29 33 36 38 41 43 42 40 41 43 46 48 49 50 52 54 55 56 58 58 65 71 68 68 66 72 76 76 76 77 85 89 91

GFSMW_925_rhum_021.txt.gz
RH
45 37 38 44 48 54 54 56 62 65 64 65 61 57 49 48 45 43 41 37 33 31 31 28 25 25 29 27 26 26 23 24 31 41 31 25 27 29 22 10 30 19 36
48 47 44 53 60 63 61 61 63 66 66 64 59 53 47 44 41 36 32 29 26 24 23 22 23 22 24 21 25 28 29 32 32 44 48 59 42 28 18 35 23 37 26
48 52 58 59 57 62 62 61 63 64 61 58 52 49 43 41 39 38 35 29 26 22 21 21 20 21 21 21 22 26 29 36 31 30 42 57 62 41 36 30 36 25 26
46 50 60 62 55 56 57 58 56 55 54 52 48 46 45 43 41 36 32 28 26 24 20 20 21 21 20 20 22 23 25 26 32 29 32 34 37 60 57 39 31 31 36
46 54 63 60 56 52 50 52 53 51 49 47 47 42 40 39 34 31 28 26 24 23 19 19 20 21 21 22 22 22 22 22 28 30 30 32 32 38 50 48 40 37 38
52 62 64 58 55 49 46 43 43 43 45 44 40 37 35 31 28 25 24 23 22 21 19 18 19 20 20 21 21 21 21 22 24 25 27 29 35 45 39 41 40 44 38
60 68 69 67 58 49 44 42 40 40 38 38 37 35 30 27 25 23 22 22 21 19 19 19 18 18 19 19 20 20 21 22 24 25 25 25 30 32 36 43 44 44 43
63 68 69 68 58 49 44 40 39 38 37 34 31 29 28 26 25 24 22 20 19 19 19 18 17 17 18 20 21 22 23 24 25 24 25 28 29 32 37 42 50 55 46
64 69 69 65 55 48 42 39 36 34 33 31 29 27 26 25 24 22 21 20 18 18 16 17 17 18 20 22 24 24 26 26 27 27 29 31 34 39 41 43 47 53 67
62 66 67 64 54 46 40 37 34 31 28 27 26 24 23 22 22 22 20 17 17 17 17 18 19 21 24 25 26 27 27 28 30 33 35 39 42 47 49 49 51 52 56
59 64 65 60 53 45 40 36 33 30 28 26 24 24 22 22 22 21 19 18 17 17 18 20 23 26 27 28 29 29 30 31 35 37 45 51 54 57 57 57 56 58 58
57 62 62 60 56 48 41 35 32 30 27 26 26 24 23 23 22 21 20 18 18 19 20 24 26 28 29 30 31 31 30 34 38 45 53 58 62 64 63 60 59 56 55
60 62 61 59 56 50 40 35 32 29 26 26 26 25 25 24 23 21 20 19 20 20 23 27 28 30 30 31 31 31 32 38 44 51 59 62 66 67 65 61 58 56 58
57 61 60 60 57 50 42 37 33 28 26 25 26 26 26 24 22 20 21 20 20 23 25 27 29 30 31 31 31 35 39 43 48 53 58 63 68 67 61 56 56 60 63
58 60 60 60 57 51 44 37 32 27 26 26 27 27 25 22 22 22 20 19 22 25 27 29 30 31 32 33 37 40 43 45 49 54 60 64 63 59 55 56 58 60 68
55 59 58 58 56 50 45 36 30 28 27 28 29 26 24 22 22 21 21 22 24 27 29 31 33 33 33 37 40 43 43 46 51 56 60 63 63 60 58 60 61 65 72
58 60 56 56 54 48 41 35 30 26 26 27 26 24 23 22 22 22 23 24 26 30 33 35 35 34 34 38 40 42 45 48 51 56 60 64 64 67 74 75 71 78 82
55 58 57 56 51 44 39 32 28 26 26 25 24 23 22 21 22 24 25 26 30 35 38 37 37 36 33 38 40 44 49 52 56 58 62 66 74 85 72 73 76 96 90
61 66 59 54 46 41 35 30 27 26 26 23 23 23 22 22 24 25 26 28 35 38 38 36 36 35 36 39 46 51 59 60 61 65 68 79 79 75 59 71 99 94 88
61 57 53 47 41 35 32 28 27 26 24 23 23 22 23 25 26 26 29 34 36 36 37 37 35 36 40 48 58 63 65 66 66 76 91 82 68 58 82 89 80 78 64
56 51 45 40 36 32 30 28 27 24 24 22 23 24 25 26 26 30 34 36 36 37 37 36 37 42 47 58 64 65 65 66 82 94 85 79 67 94 65 61 61 63 72
55 47 43 40 34 32 30 26 24 24 23 24 24 25 26 26 30 35 35 36 38 37 36 39 43 48 56 62 65 62 64 71 78 82 74 77 97 62 60 62 63 64 68
47 42 40 38 35 30 28 25 26 25 26 25 26 26 27 31 36 36 38 39 38 40 44 47 52 59 60 60 64 65 68 65 64 79 85 88 66 62 66 68 67 69 77
45 41 37 36 32 28 28 29 27 26 25 27 26 29 34 40 37 40 40 40 43 46 52 56 58 60 60 60 60 62 63 66 89 94 86 68 62 68 70 72 74 79 89
46 40 39 36 29 27 28 28 27 26 27 27 32 35 38 41 43 42 43 48 49 52 56 57 57 60 60 59 57 59 62 76 86 69 70 66 74 78 76 75 77 82 89
47 45 40 37 32 29 30 29 27 26 28 32 36 40 44 45 45 46 49 50 54 55 55 56 57 58 59 59 60 61 72 73 66 70 70 78 83 82 80 82 88 88 88

GFSMW_925_rhum_024.txt.gz
RH
44 41 39 42 50 51 50 48 45 64 70 66 61 59 54 52 55 49 45 42 35 31 26 23 22 22 21 19 20 17 18 25 25 36 26 20 28 30 21 20 25 21 33
52 52 54 57 59 60 64 67 67 69 66 63 60 57 52 46 42 36 31 28 24 23 22 21 20 20 18 16 19 21 22 26 28 34 55 61 43 34 15 33 18 34 17
53 59 76 71 68 67 69 73 72 67 63 61 57 50 44 37 32 30 27 25 24 22 21 20 19 18 17 18 21 22 23 29 27 36 37 53 61 47 32 22 36 24 30
52 62 77 74 70 68 67 70 68 65 62 60 54 47 43 40 36 31 28 26 24 22 20 19 19 18 19 19 20 21 21 23 31 30 29 33 36 55 59 39 35 32 32
52 67 72 70 66 63 65 66 63 61 58 56 51 42 39 38 35 30 27 25 23 21 19 18 18 18 19 20 20 20 21 23 26 29 35 33 30 29 68 50 40 34 37
55 70 70 67 63 61 59 58 57 55 53 48 43 39 38 37 32 29 26 24 22 20 19 17 17 17 17 18 20 21 22 24 25 26 26 28 38 48 45 39 38 43 39
66 74 71 67 61 56 55 55 53 54 50 44 40 38 34 29 26 24 24 23 21 20 18 17 16 16 18 20 21 22 23 25 26 26 27 30 34 33 37 41 47 48 45
66 70 68 64 59 53 48 48 48 47 43 39 36 32 28 26 25 24 24 22 20 19 18 17 17 17 20 22 23 24 26 26 26 28 30 34 34 37 41 49 55 61 53
71 71 69 62 57 51 46 42 40 38 36 33 30 27 27 27 26 24 23 20 18 18 16 17 17 20 23 25 26 28 28 28 30 31 35 36 42 48 52 55 57 64 74
74 73 66 62 57 49 43 40 37 34 31 29 28 27 26 26 24 23 20 18 17 16 16 16 19 23 26 28 29 30 30 31 31 36 39 45 51 57 61 62 64 65 67
75 72 68 61 56 47 41 37 34 31 29 28 26 25 24 24 23 22 19 18 17 16 15 20 24 26 28 29 31 31 32 33 34 39 47 51 56 61 64 67 70 70 67
72 72 67 64 56 49 41 36 31 28 26 25 24 24 23 24 23 22 20 18 16 16 20 24 26 28 29 31 31 31 32 35 40 43 50 53 58 60 67 70 71 69 67
74 73 68 62 56 50 42 36 32 28 26 25 25 24 24 25 24 21 18 17 16 20 24 26 28 30 31 31 31 33 39 41 44 46 50 54 58 64 69 70 71 67 64
71 71 67 63 56 49 42 36 32 28 27 27 26 27 26 25 22 20 18 18 21 23 25 28 30 32 33 32 35 41 43 44 45 47 51 55 57 64 69 67 63 67 67
71 69 66 64 57 50 42 36 30 27 27 27 28 28 26 23 21 20 19 21 22 24 28 31 33 33 33 36 45 45 46 46 46 49 51 55 61 64 62 62 66 69 85
67 65 64 64 58 51 44 36 29 28 27 28 29 27 25 22 21 20 21 21 23 27 32 35 35 34 34 44 46 48 47 48 51 54 57 58 65 65 65 66 65 68 70
64 64 64 61 55 52 41 35 29 28 28 30 28 26 23 21 22 21 21 23 27 32 35 35 35 35 33 45 49 51 54 56 61 61 62 65 68 76 85 82 68 69 75
62 62 61 61 55 47 39 32 29 28 29 29 26 24 22 21 21 22 24 26 31 34 35 36 36 35 36 49 54 60 64 66 66 66 67 70 83 82 68 65 87 98 85
62 60 60 58 50 43 36 31 28 28 28 26 25 24 22 21 23 24 26 31 35 36 37 37 36 36 42 48 58 64 66 68 69 70 71 86 79 69 66 96 91 81 75
69 64 55 51 44 37 32 30 29 28 27 25 24 23 22 23 24 26 31 35 37 38 37 36 38 42 48 51 61 64 65 68 72 79 96 85 68 67 88 63 67 71 69
55 51 47 43 38 34 32 30 29 28 26 24 23 23 24 24 27 32 36 37 38 38 38 42 46 50 53 56 65 63 64 68 87 92 83 76 80 80 62 62 69 72 77
49 45 43 40 34 32 31 29 28 26 24 24 23 25 25 27 33 36 38 38 39 42 44 50 54 56 58 60 65 64 63 73 65 78 82 93 78 64 64 69 70 72 74
48 44 42 36 32 31 31 27 26 25 25 24 25 25 28 36 38 40 40 40 44 48 52 58 60 61 62 61 63 66 64 63 71 86 80 79 67 67 73 74 73 73 80
46 42 39 36 32 29 29 29 27 26 24 25 25 31 35 45 41 42 42 48 51 54 60 62 64 65 65 64 63 64 64 77 92 80 84 70 68 73 76 76 76 79 83
44 39 37 34 32 30 30 28 27 25 25 26 32 36 42 44 44 44 48 52 55 59 60 61 62 64 66 65 63 62 67 73 73 69 73 71 77 82 79 79 80 82 85
44 41 35 32 31 30 30 29 26 25 25 32 37 44 46 45 47 50 50 48 60 61 60 61 62 64 65 64 64 66 70 69 70 75 75 82 85 85 84 85 88 89 88

GFSMW_925_rhum_027.txt.gz
RH
40 39 39 40 44 44 44 44 50 68 72 72 66 65 62 60 57 58 55 58 47 32 24 23 22 20 19 15 15 14 14 19 20 22 23 20 28 32 30 16 22 17 26
49 48 46 52 57 53 53 53 51 72 72 69 64 61 55 53 47 40 34 30 25 23 23 22 21 19 16 15 16 17 17 18 28 40 55 59 34 32 19 16 16 27 18
50 55 67 68 66 67 67 64 61 70 68 65 60 54 48 40 31 27 25 24 23 23 22 21 20 18 16 17 18 20 20 25 25 35 31 41 54 56 29 22 31 25 28
47 51 80 83 77 73 78 71 68 69 65 61 58 55 46 37 30 26 25 24 24 22 21 20 18 17 17 17 18 19 21 23 30 25 27 30 36 51 56 39 33 34 30
52 65 79 80 76 75 80 73 70 65 61 59 58 55 44 34 30 27 26 24 23 21 20 18 17 16 16 17 18 19 21 23 26 30 34 33 31 35 64 50 46 33 30
53 66 81 78 78 76 76 70 65 61 59 58 56 54 38 34 29 27 25 23 22 21 18 16 16 15 16 17 20 21 22 24 26 26 28 32 41 48 51 48 42 41 36
65 83 81 79 75 74 72 68 64 61 58 54 48 39 35 32 29 27 25 24 22 20 17 16 15 15 18 20 22 24 25 26 27 28 30 34 36 38 42 48 50 50 49
70 75 76 74 71 69 67 65 61 58 52 45 40 38 35 31 27 25 25 23 21 18 17 16 16 18 21 23 25 26 27 28 28 30 32 35 38 46 51 57 63 71 58
72 76 73 67 65 63 60 60 56 52 46 42 38 32 28 26 25 24 24 21 19 17 17 16 18 22 25 27 28 29 29 30 31 32 35 40 45 51 54 58 66 73 82
74 75 69 63 60 57 56 54 52 46 40 35 31 28 27 26 25 24 21 19 18 17 16 18 23 25 27 29 29 30 30 31 33 34 38 44 49 54 57 58 65 73 78
77 74 66 61 58 52 49 46 44 38 33 29 28 27 26 25 24 23 20 18 17 17 18 23 25 27 28 30 29 29 30 35 38 40 43 47 51 55 57 58 65 76 79
75 70 67 62 55 51 45 40 36 32 29 28 27 26 25 25 24 22 20 18 17 19 23 25 27 28 29 30 30 30 36 41 43 45 46 48 50 55 57 62 72 76 76
79 73 67 60 55 51 44 37 33 30 27 26 25 24 25 25 24 21 19 19 19 22 24 27 29 30 31 30 28 40 44 45 47 47 48 49 53 59 63 67 75 77 75
77 73 68 62 56 50 43 36 31 27 26 25 25 26 26 26 23 21 20 20 22 23 26 30 32 31 31 28 40 48 48 49 49 50 53 56 58 62 68 69 67 79 76
80 74 69 64 56 49 43 36 30 27 26 27 27 28 27 24 22 20 20 21 22 26 31 32 30 30 30 33 50 52 53 55 57 60 62 61 66 66 63 63 66 68 82
78 73 67 62 55 48 43 36 31 28 28 29 30 28 26 24 22 20 21 21 24 30 33 33 32 31 31 40 54 56 61 65 65 64 61 62 68 68 68 69 66 68 66
75 72 68 60 54 47 40 36 31 29 29 30 30 27 24 23 22 21 21 22 30 33 33 34 34 33 34 49 56 60 66 66 64 64 66 68 71 78 85 83 70 85 95
71 69 67 61 55 45 38 33 30 29 30 31 28 26 23 22 22 22 23 29 33 34 36 35 34 36 39 54 58 62 66 65 64 66 70 73 82 89 72 79 98 77 72
67 67 65 60 50 42 37 32 31 30 31 30 27 25 22 21 22 24 29 34 36 36 36 36 38 43 49 54 61 66 65 65 67 71 82 88 84 72 74 91 74 72 75
69 70 60 53 46 40 35 32 32 32 30 28 26 24 22 23 24 29 35 37 37 37 38 38 44 49 52 54 65 67 65 68 70 88 83 79 70 70 86 65 70 78 72
64 58 53 48 43 37 34 33 31 30 28 26 24 24 25 24 30 35 37 37 37 38 39 45 51 53 56 58 68 67 65 67 71 67 79 80 81 76 64 65 73 77 89
54 49 45 42 38 35 32 32 30 28 26 25 24 25 25 30 36 37 38 38 40 43 46 56 58 58 59 62 68 67 64 63 64 84 84 87 79 68 67 72 76 75 75
49 44 42 39 35 33 32 31 29 26 26 25 26 26 32 38 39 39 39 41 44 51 57 63 64 64 64 64 67 71 67 64 77 80 73 75 72 70 75 79 77 76 83
45 40 38 37 34 32 31 30 27 27 25 26 27 33 38 42 42 42 44 48 52 58 64 66 67 66 68 69 68 71 67 84 76 76 77 74 71 76 78 80 79 82 85
43 39 38 37 34 31 29 29 28 25 24 27 34 39 43 44 44 46 50 53 54 63 64 64 64 67 70 69 67 67 71 71 73 72 78 76 81 84 83 82 83 84 87
42 40 37 35 34 32 31 29 26 23 25 33 38 46 45 46 49 51 52 49 63 64 64 64 64 66 67 67 69 70 71 70 75 79 80 86 88 88 88 88 90 91 91

GFSMW_925_rhum_030.txt.gz
RH
45 40 34 35 40 41 45 49 63 76 77 84 80 74 71 70 67 62 60 57 53 48 31 24 22 21 21 17 15 13 12 16 16 18 15 18 19 30 31 27 17 20 20
51 47 42 44 46 45 48 50 67 78 78 77 74 71 66 60 61 55 50 39 32 25 24 23 23 20 18 16 14 13 14 18 22 31 46 51 25 19 15 13 20 17 18
53 52 55 54 56 57 55 54 65 78 76 73 69 62 56 49 40 34 30 25 24 24 24 23 22 18 16 15 15 16 16 20 21 32 30 37 44 56 23 17 18 30 22
55 52 57 73 66 64 65 61 62 75 73 69 64 62 50 39 34 27 25 24 24 24 23 22 18 16 14 14 16 18 20 22 27 25 24 28 33 48 52 32 30 34 32
53 52 60 61 65 71 75 72 66 72 70 64 61 56 47 39 28 26 24 23 23 22 21 18 15 14 14 15 17 20 22 23 25 28 32 31 30 40 63 51 47 37 36
60 53 61 75 78 83 83 76 71 69 66 61 56 54 50 33 27 26 25 23 23 21 18 16 14 14 15 17 20 22 23 25 26 27 29 33 41 48 50 56 48 49 41
62 82 90 91 91 89 83 75 70 65 61 58 55 53 43 33 28 26 25 24 23 20 17 15 15 15 18 21 23 24 25 26 27 28 30 33 36 40 48 54 58 56 54
72 82 84 85 87 88 80 74 69 63 60 57 55 47 38 30 27 26 25 24 22 19 17 16 16 19 22 24 25 26 26 28 29 30 32 34 38 44 50 57 66 70 59
79 84 86 83 84 84 78 73 67 63 58 54 46 38 32 29 27 26 24 22 19 18 17 16 19 22 25 26 26 26 27 28 30 33 34 38 42 47 51 55 59 74 80
82 86 87 82 78 76 73 69 64 58 50 44 38 34 30 27 25 25 22 20 18 17 16 19 22 25 27 28 28 26 26 30 34 38 41 43 45 48 51 55 60 64 80
82 85 80 73 69 66 65 60 55 48 42 36 32 28 26 25 25 23 20 18 17 17 20 22 25 27 28 28 27 26 30 37 40 44 46 47 47 49 52 56 61 68 77
87 80 72 66 62 59 55 51 46 41 35 31 28 27 26 24 23 22 20 18 17 20 22 24 27 28 28 28 26 28 37 44 47 48 49 50 52 55 57 60 65 72 77
83 75 68 64 58 53 48 44 39 34 30 28 27 25 25 25 23 21 19 18 20 22 24 26 29 29 27 25 25 39 49 51 52 53 55 58 60 61 62 68 74 75 82
82 74 66 62 54 48 44 39 35 30 28 27 26 26 26 25 23 21 19 20 21 22 27 30 29 27 26 25 34 52 55 57 60 62 63 60 59 66 70 72 69 72 72
81 72 67 61 53 47 41 36 32 29 27 26 27 27 27 24 22 20 20 21 22 27 31 30 28 28 27 29 53 58 59 63 67 64 59 60 68 72 69 68 71 71 75
76 70 64 57 52 46 40 36 32 28 27 27 29 28 26 24 22 21 21 22 27 31 32 30 29 30 31 35 57 61 62 66 66 65 64 66 71 74 74 73 69 69 88
76 70 63 55 50 44 38 36 30 28 29 30 30 28 26 24 22 22 22 25 31 33 32 33 33 33 35 47 61 62 64 67 66 64 67 71 78 79 82 80 81 88 86
74 70 62 57 50 42 37 32 30 30 31 32 29 27 25 23 22 22 25 31 34 34 34 34 35 36 41 54 62 65 66 68 65 66 69 76 82 84 78 79 99 85 75
71 69 61 55 46 41 36 33 33 32 32 31 28 26 24 23 23 24 31 35 35 35 34 36 37 44 46 52 65 68 69 68 67 67 76 82 78 75 70 95 84 74 77
73 70 60 51 45 41 36 35 36 34 32 30 27 25 23 23 24 31 35 36 36 36 36 35 43 50 51 52 69 69 69 70 70 72 69 77 74 69 90 68 72 79 74
69 61 54 49 44 39 35 37 35 34 31 28 26 25 24 25 32 36 37 37 37 38 37 42 49 50 56 59 70 69 69 69 70 69 77 88 76 82 67 67 74 79 87
60 53 48 44 41 37 34 36 34 32 28 26 25 25 27 34 37 38 38 38 40 40 43 55 55 55 60 64 72 69 70 67 67 76 86 78 78 71 70 74 78 78 78
51 48 45 42 38 36 33 34 33 28 27 25 25 28 37 39 39 39 40 43 44 48 54 65 66 66 66 66 69 74 73 67 76 80 74 76 76 72 78 81 80 80 85
47 44 41 40 39 34 32 31 29 26 25 26 32 40 43 41 42 43 44 48 48 54 65 68 70 69 69 71 70 72 70 84 84 82 82 79 73 79 81 83 83 85 86
43 41 40 41 40 33 31 29 27 25 25 31 38 42 43 44 45 46 47 50 50 66 66 67 66 69 72 70 68 69 71 77 74 74 81 78 84 88 86 85 86 86 89
44 43 42 40 37 32 31 28 26 23 27 37 44 47 45 47 46 47 46 47 54 64 66 65 65 67 69 69 72 71 73 73 77 83 84 89 91 91 90 91 91 93 93

GFSMW_925_rhum_033.txt.gz
RH
43 42 38 36 35 32 36 43 50 68 81 92 93 91 90 88 85 83 76 66 65 56 50 37 23 23 24 19 15 13 14 16 13 19 22 22 17 34 36 19 16 24 20
45 46 45 40 37 36 42 50 66 79 86 87 84 83 81 75 72 64 58 55 56 39 25 24 25 23 19 15 13 12 15 21 20 30 38 27 21 26 22 20 22 20 24
43 43 45 46 39 46 48 52 70 83 85 83 81 77 70 63 54 45 41 34 29 24 24 25 24 19 15 14 14 14 14 30 28 26 22 24 25 32 28 22 30 28 29
37 39 45 48 51 45 52 54 70 81 81 80 77 75 65 55 45 39 33 26 24 24 24 23 19 16 14 14 15 17 18 20 32 31 28 28 32 27 26 30 29 33 31
39 44 46 46 46 52 59 63 71 80 78 75 73 69 69 52 39 31 27 24 24 23 21 19 16 14 14 15 17 19 21 22 28 34 35 36 36 44 40 31 28 33 34
43 44 48 50 62 63 71 74 73 78 74 70 66 65 62 43 34 27 25 24 22 20 18 16 14 14 15 17 19 22 23 23 24 26 30 34 31 32 35 35 35 39 36
50 56 62 72 83 88 86 82 75 74 69 65 61 58 52 42 32 27 24 23 21 19 17 15 14 15 17 20 22 23 23 24 26 28 32 32 42 43 44 46 43 43 44
52 59 64 73 79 91 89 80 76 71 65 60 56 51 42 37 31 26 25 24 22 19 16 15 15 18 21 22 23 23 24 25 27 29 32 34 40 46 49 50 52 52 38
43 59 71 76 84 91 86 79 74 68 62 58 54 50 46 38 28 26 25 23 20 18 16 16 18 21 22 24 24 24 23 24 28 32 36 39 44 47 54 58 59 57 57
46 62 74 79 86 89 86 78 71 65 61 57 55 51 42 28 26 25 23 21 19 17 16 18 21 23 25 25 24 23 23 27 33 39 44 47 48 52 56 59 62 64 63
48 66 80 85 87 83 77 70 65 60 55 51 44 33 29 27 25 24 22 20 17 16 18 21 23 25 26 26 24 23 27 35 42 46 50 51 52 57 60 62 65 66 66
75 85 81 76 76 72 65 61 54 50 45 40 33 29 26 25 23 22 20 18 17 20 21 23 25 27 26 24 22 26 38 47 51 52 55 59 61 64 63 63 64 68 68
82 76 72 70 66 62 56 49 44 42 37 32 28 26 24 24 22 21 19 18 20 22 24 26 28 26 24 24 26 39 50 54 57 60 64 66 63 62 62 66 71 72 73
78 74 70 63 58 53 46 42 39 37 32 28 26 25 25 24 22 20 20 21 22 23 27 29 27 26 26 26 34 50 58 59 62 65 65 65 66 68 74 75 76 78 76
78 71 66 58 50 46 41 38 36 32 29 28 27 26 26 24 22 21 22 22 23 27 29 29 28 28 28 30 54 60 62 62 66 67 63 65 71 74 74 72 73 70 74
77 68 60 52 47 43 40 37 35 32 29 29 29 27 25 24 22 22 22 24 28 30 31 31 30 30 30 31 61 64 65 65 69 68 65 68 68 75 76 73 72 72 76
72 64 57 50 44 40 38 36 34 31 30 30 30 28 26 24 23 23 23 27 32 33 32 32 32 32 32 44 65 64 67 69 70 68 68 70 72 77 83 82 82 78 97
69 61 53 49 43 40 38 36 33 32 32 32 30 27 25 24 24 23 26 32 34 34 33 34 34 34 38 47 65 68 70 71 71 69 70 74 78 82 81 73 96 95 75
65 58 53 48 42 40 37 36 37 35 34 32 29 27 24 24 22 26 33 35 35 34 35 35 36 41 42 47 68 70 70 70 71 70 72 76 72 74 67 89 92 70 70
65 59 51 45 42 41 37 38 40 37 36 31 28 26 23 22 25 32 35 36 36 36 36 34 42 47 48 50 70 71 69 71 71 71 71 71 77 69 80 80 72 78 69
62 54 48 44 43 40 37 40 38 38 32 28 26 24 23 25 33 36 36 37 38 37 35 38 43 47 56 58 72 71 69 72 73 69 68 75 73 80 71 68 71 76 86
59 52 47 44 42 39 37 39 40 34 28 26 25 25 30 34 36 37 39 40 40 39 40 51 51 51 55 62 72 71 72 71 69 72 77 76 79 72 71 74 79 78 80
52 48 45 44 42 38 36 39 36 29 27 26 28 32 36 38 40 41 42 43 43 44 56 68 69 66 66 66 69 76 74 69 74 81 75 78 78 72 76 80 81 84 80
48 45 43 42 42 38 36 33 29 27 26 29 35 39 39 42 43 43 45 47 49 56 69 70 68 71 70 72 73 75 73 73 86 79 90 80 73 78 82 80 78 80 81
45 43 42 42 42 35 32 29 27 26 28 34 41 44 43 43 44 44 45 52 56 66 66 69 69 68 68 68 70 71 72 77 76 76 79 71 75 78 77 79 81 82 84
44 44 42 40 38 32 30 28 27 25 28 41 45 44 44 45 46 48 46 43 50 64 66 65 66 67 70 72 75 74 85 74 78 78 76 78 82 82 82 86 88 90 92

GFSMW_925_rhum_036.txt.gz
RH
25 28 30 31 33 33 33 33 36 44 56 65 70 75 82 94 85 83 90 86 80 69 67 51 33 29 29 26 24 25 26 27 27 22 20 25 26 33 35 32 23 30 29
20 21 26 29 32 33 34 35 41 50 62 68 71 72 83 93 83 80 81 75 68 70 53 37 32 29 27 25 25 26 26 28 30 23 27 20 18 24 30 22 27 21 25
19 18 18 26 29 32 34 40 47 61 67 68 74 81 79 75 67 61 65 59 64 55 37 26 31 28 27 28 27 28 26 25 31 28 19 19 21 20 19 24 21 23 22
22 22 20 21 25 30 38 46 55 66 72 78 73 72 73 74 62 56 56 54 45 37 25 26 29 27 27 29 27 28 28 26 27 30 26 24 22 20 20 20 22 24 24
21 21 24 23 25 32 44 55 61 69 73 73 69 70 70 66 62 55 46 37 32 26 30 27 27 26 27 28 29 31 29 28 24 26 26 24 25 26 26 27 20 22 25
20 22 23 26 28 34 56 62 65 68 71 71 70 70 70 64 54 42 33 29 30 30 29 28 29 28 29 30 32 33 34 30 29 27 28 24 22 20 23 23 24 27 27
19 22 29 32 36 39 61 67 65 67 69 69 69 71 68 64 51 38 32 32 28 29 30 27 27 29 28 30 33 34 35 33 30 32 27 29 29 29 30 31 31 30 30
22 23 28 36 40 47 59 66 64 65 67 67 65 66 62 47 40 36 32 32 29 28 28 27 27 28 29 31 33 34 34 34 33 36 36 33 32 34 35 37 39 38 30
24 27 25 34 42 51 60 64 64 64 65 64 56 49 47 42 39 33 30 28 28 27 27 27 28 30 31 32 32 29 30 32 33 35 38 39 37 39 41 43 44 43 44
28 31 29 33 44 53 63 65 64 62 61 56 50 45 45 43 35 31 28 28 26 26 28 28 29 30 31 32 32 31 32 31 32 35 39 41 40 42 43 44 45 46 45
38 40 36 38 52 61 68 67 62 60 56 52 49 44 40 40 33 30 29 27 26 27 27 28 29 30 31 31 29 29 32 34 38 41 44 45 46 46 44 44 46 46 46
51 54 48 52 63 68 68 64 59 55 52 48 44 39 34 30 30 28 26 26 26 27 27 28 28 30 31 30 28 29 34 39 41 44 47 47 46 49 45 45 47 47 51
58 61 61 60 60 65 63 59 53 49 45 42 36 32 29 28 26 26 26 26 27 28 30 30 31 31 32 30 29 34 39 44 46 48 51 51 49 47 48 50 54 55 55
63 62 62 60 60 61 57 50 45 40 37 33 31 29 28 27 27 27 27 28 28 29 32 32 33 33 32 33 35 43 47 49 49 52 56 55 52 51 55 57 58 54 60
67 64 62 59 58 52 45 41 38 34 32 31 30 30 29 29 29 29 29 30 30 33 34 34 35 35 34 31 46 48 50 51 50 50 52 51 55 69 72 69 63 61 64
69 63 59 56 51 44 40 37 34 33 32 34 34 32 31 31 32 31 31 34 36 36 36 37 36 38 35 32 63 64 53 50 51 49 49 50 55 56 65 66 68 73 88
69 60 56 52 45 40 39 36 34 34 34 36 34 32 31 32 32 31 32 35 36 38 37 38 37 36 37 34 66 66 58 53 51 53 52 52 53 60 61 66 68 80 78
64 56 52 46 41 38 36 35 33 35 34 34 33 32 31 31 30 30 33 36 36 38 36 37 38 38 40 35 66 68 58 53 53 54 56 57 59 59 64 69 79 88 69
56 50 48 45 38 34 33 32 33 34 34 33 32 30 30 28 29 31 34 37 38 38 38 38 38 39 40 49 67 69 56 50 51 55 55 59 60 61 68 79 97 62 56
51 47 43 39 36 34 34 34 34 33 34 33 31 29 28 27 30 35 39 40 38 38 38 37 40 46 44 52 68 70 56 52 53 53 54 54 62 65 76 86 62 63 55
49 44 39 37 35 34 34 34 34 34 33 32 29 29 29 32 37 40 40 41 40 39 37 38 40 44 47 51 65 71 66 59 58 57 53 56 61 71 72 69 66 63 70
48 43 41 38 37 35 34 34 35 34 32 31 31 34 36 39 44 46 45 44 42 39 36 39 37 40 44 51 59 70 74 70 63 59 65 64 71 73 71 70 71 75 80
48 43 39 37 35 34 35 36 36 33 32 34 38 38 41 43 46 45 47 42 42 38 39 40 40 40 44 47 56 67 66 64 65 74 75 73 72 71 65 66 77 78 68
44 41 39 37 36 37 37 35 33 30 33 36 38 41 42 43 44 44 47 44 41 40 43 42 43 45 46 47 52 60 61 60 74 73 74 66 66 60 65 63 64 67 70
42 40 38 37 36 36 35 32 31 34 37 41 44 45 45 44 44 46 46 46 50 58 52 48 50 50 50 53 70 73 70 77 78 74 64 59 56 61 61 63 68 71 74
42 40 39 36 34 34 35 36 36 36 37 39 41 43 44 45 44 43 40 44 40 57 65 64 65 61 65 72 77 75 80 76 75 73 62 60 65 66 68 72 77 82 86

GFSMW_925_rhum_039.txt.gz
RH
21 21 23 25 24 23 25 26 26 28 33 38 46 54 57 67 78 82 84 83 74 72 69 57 44 35 32 30 27 28 29 30 27 24 22 26 26 31 31 34 27 25 29
18 18 20 22 25 25 26 27 26 29 35 42 49 55 67 85 90 85 81 76 67 68 64 56 39 33 31 29 28 29 30 31 30 25 27 29 24 24 30 25 24 23 22
17 15 15 17 22 25 26 28 28 30 38 45 54 64 83 92 87 80 73 71 71 67 59 48 35 32 32 32 32 30 27 28 32 28 21 29 32 21 18 23 23 23 22
17 17 16 15 16 21 26 29 30 34 44 54 62 69 78 78 75 72 66 60 61 56 46 36 31 32 33 33 30 30 29 26 29 30 25 24 22 24 26 19 22 20 23
15 15 17 19 18 17 27 33 35 40 53 60 62 74 68 72 72 71 69 64 54 48 34 30 31 32 32 29 30 32 30 29 24 26 28 22 25 24 26 34 25 22 22
15 15 16 17 19 22 26 36 41 48 57 65 67 67 65 69 67 64 59 56 50 41 33 32 32 32 33 34 33 33 34 30 29 27 27 24 23 21 22 25 26 27 27
16 15 16 18 21 24 27 41 48 53 62 67 63 63 68 66 65 58 57 54 40 35 32 31 31 33 35 34 34 35 36 33 31 32 28 26 27 27 27 28 33 35 33
16 20 21 21 26 29 30 42 52 54 59 62 63 64 68 66 63 59 53 41 41 34 31 29 30 32 32 33 34 36 34 34 34 37 37 35 32 31 32 34 39 44 38
19 21 21 23 21 31 35 46 53 54 58 62 63 68 65 64 55 49 40 34 32 30 29 29 29 30 30 30 31 29 30 31 31 34 37 39 36 36 38 39 41 44 51
22 24 27 30 22 30 38 47 51 55 58 62 63 64 54 51 42 38 36 32 29 28 29 29 30 30 30 30 30 30 31 30 30 33 35 38 39 39 40 41 41 42 45
27 30 35 36 27 32 44 50 52 56 59 57 51 48 46 44 39 35 32 32 29 28 28 29 28 29 29 29 28 28 29 31 33 37 40 40 42 43 42 43 43 44 44
24 39 44 41 37 43 53 54 56 56 56 48 46 46 41 39 37 37 34 32 30 28 27 27 26 27 28 27 26 26 29 33 36 38 41 42 42 44 45 43 43 45 47
27 44 47 48 48 55 58 56 55 53 50 47 43 41 40 39 36 35 34 28 26 27 27 27 28 28 30 28 27 29 32 36 40 42 43 45 47 47 46 46 49 52 54
38 51 53 50 50 56 56 54 51 49 47 42 36 34 33 32 31 29 28 27 28 28 29 29 30 31 31 31 31 38 42 44 44 44 46 47 49 49 49 55 61 58 59
44 56 57 53 52 54 52 48 46 45 41 36 33 31 29 29 29 29 28 28 29 30 31 32 34 34 32 29 40 47 48 46 44 45 44 44 44 53 59 63 65 67 67
60 58 56 54 55 48 45 42 39 35 34 33 33 33 31 32 32 30 31 33 33 33 34 35 37 40 34 32 29 65 56 50 45 45 44 45 47 47 51 60 61 62 67
67 60 57 55 46 42 39 36 35 38 38 38 35 34 34 33 32 33 34 34 35 35 36 36 35 34 35 36 44 66 62 53 49 47 48 48 48 52 56 58 59 66 70
64 56 53 47 41 39 36 36 41 40 38 36 34 36 36 32 31 33 34 34 35 36 34 35 35 36 37 37 37 65 62 49 47 46 47 51 52 54 56 60 74 82 86
53 49 45 41 40 40 44 41 39 40 40 39 42 39 32 30 31 33 33 34 36 36 36 36 35 36 35 39 52 68 59 48 44 44 48 50 54 53 58 65 78 84 66
51 48 44 42 49 56 47 54 58 55 52 43 31 29 28 30 32 34 36 37 36 35 35 36 36 36 40 39 53 67 61 51 51 51 53 52 51 57 62 68 86 70 67
71 68 66 65 68 68 61 49 41 34 31 30 28 28 30 33 37 39 39 38 36 36 35 34 33 34 37 44 52 63 67 62 64 65 58 55 59 65 72 69 70 69 67
40 37 35 34 33 32 32 33 33 32 30 30 32 34 36 38 42 42 42 41 39 36 33 32 31 33 36 40 46 58 66 68 65 61 61 68 72 70 67 68 66 68 73
45 42 40 38 38 39 40 38 34 33 33 33 35 38 41 45 46 46 48 40 38 34 32 33 34 36 38 40 44 50 59 62 62 64 70 69 68 65 63 59 65 65 65
41 37 34 35 36 36 36 35 33 32 34 36 38 39 40 40 41 42 44 40 35 33 35 35 37 40 42 42 48 64 68 66 70 78 77 70 62 55 56 58 59 63 68
38 36 35 37 36 36 35 34 33 34 36 37 39 42 41 39 41 42 40 39 40 48 52 49 52 50 52 54 70 73 74 75 82 71 75 62 54 59 61 62 66 71 76
39 38 38 36 35 34 34 35 36 37 37 37 37 38 40 40 40 37 33 37 34 34 45 65 67 66 68 73 78 77 75 75 74 77 65 60 65 67 69 72 78 84 88

GFSMW_925_rhum_042.txt.gz
RH
26 22 21 22 22 19 20 26 27 28 29 33 48 57 60 62 67 66 70 75 81 80 68 64 48 46 42 31 27 28 29 24 19 24 23 26 25 30 30 30 31 26 26
26 23 22 23 23 24 24 22 26 29 30 32 37 48 62 71 66 73 77 84 85 75 65 57 46 37 34 28 26 27 27 29 19 22 27 42 30 26 26 31 29 23 21
23 23 22 21 22 24 25 26 25 27 31 33 40 54 67 81 87 88 88 83 76 71 62 49 46 39 29 27 27 27 27 30 28 20 24 38 43 28 22 28 23 22 22
22 20 20 20 19 21 24 25 26 28 28 33 51 57 78 90 88 86 80 76 70 68 53 45 44 33 29 28 27 26 22 27 29 29 23 21 22 36 37 22 22 23 22
23 23 24 20 17 16 21 24 25 28 30 36 53 66 78 85 86 80 76 74 74 63 46 46 36 31 29 28 26 24 22 22 25 26 26 23 24 25 33 45 33 22 22
18 17 16 16 19 20 18 18 32 29 34 45 58 74 76 80 82 77 73 72 66 53 42 36 31 31 30 26 28 26 24 22 22 24 25 24 25 27 29 39 35 34 30
17 20 21 25 24 20 22 22 26 37 42 56 65 75 74 73 77 76 75 69 56 41 36 34 33 31 29 27 26 26 24 26 29 29 28 26 27 28 28 30 40 47 39
20 20 23 29 27 26 23 25 34 45 55 64 71 72 74 72 73 73 73 62 52 42 39 35 32 31 30 28 28 29 30 28 30 32 33 32 33 33 32 35 42 55 52
22 23 26 31 32 31 30 28 38 49 61 71 66 69 71 69 69 67 64 60 50 39 35 34 32 30 28 28 29 29 28 27 31 32 34 36 37 36 36 38 40 48 60
24 27 39 42 41 40 31 32 42 52 63 66 68 70 69 66 64 62 57 48 42 33 32 30 29 29 29 27 27 27 28 27 30 31 33 35 38 40 40 42 42 43 49
29 32 45 44 46 44 33 37 49 56 61 66 69 66 65 56 52 48 42 35 31 30 29 29 30 29 28 27 28 27 28 29 31 34 37 39 40 42 43 44 45 45 44
26 33 52 51 51 44 45 46 53 60 63 59 53 54 50 44 44 38 34 32 32 33 30 29 29 28 27 26 26 26 26 31 34 37 39 41 43 45 45 46 46 47 49
35 48 56 57 59 53 57 58 61 55 51 49 47 46 43 42 43 36 36 33 32 32 33 33 36 29 27 26 26 27 30 34 38 41 42 43 46 48 49 50 50 56 61
45 50 61 62 57 65 66 59 55 49 48 46 44 43 44 40 37 35 32 29 29 30 29 28 28 27 27 28 29 36 41 44 45 46 45 45 45 46 48 52 56 63 66
46 57 65 63 58 64 56 52 50 43 42 43 42 40 38 36 35 35 36 39 32 29 29 28 28 29 30 29 30 29 37 46 48 46 45 45 44 49 52 54 56 60 66
66 65 63 57 60 50 48 48 44 41 38 37 35 34 32 32 31 29 29 30 32 30 30 33 32 33 30 30 29 34 40 45 52 50 49 47 48 48 52 56 58 60 62
68 67 62 49 45 43 41 38 37 36 37 38 38 39 40 42 43 46 46 49 36 34 33 33 33 34 34 35 33 40 53 46 51 50 48 48 48 52 52 55 59 60 68
64 60 52 44 41 39 36 38 39 40 39 40 39 39 38 40 40 36 36 35 35 34 34 34 34 34 36 35 37 54 50 54 53 48 45 46 49 52 56 56 61 67 73
54 48 43 40 37 39 43 43 42 42 45 46 50 49 45 42 47 48 38 35 34 34 34 34 34 35 36 39 46 60 64 62 56 53 54 56 58 55 56 62 68 85 89
42 43 41 44 44 44 48 54 56 64 72 70 66 48 56 72 54 37 35 36 36 34 33 34 35 36 36 38 49 59 64 68 66 66 66 65 60 60 63 67 86 97 76
57 60 70 82 84 86 84 85 86 93 90 87 82 67 47 36 35 35 39 36 34 35 35 34 33 32 34 38 45 52 59 65 69 69 66 63 64 66 75 73 69 70 65
93 92 91 96 99 100 95 98 98 93 69 42 34 35 37 37 36 36 35 36 37 35 32 32 33 35 36 39 42 48 54 61 66 67 67 69 74 71 67 66 64 64 67
43 51 59 59 50 46 39 34 35 33 35 36 40 42 42 43 41 40 41 38 36 33 33 35 36 39 41 42 47 62 65 71 71 70 74 75 74 72 64 59 63 64 63
62 55 50 46 40 38 36 37 36 36 38 40 40 39 38 39 38 39 40 36 37 37 39 44 48 48 50 52 56 72 75 76 76 85 84 80 70 61 62 65 65 68 73
40 39 38 38 38 37 37 36 37 36 37 38 40 40 39 39 39 38 34 34 42 35 38 54 59 63 68 70 75 77 76 75 78 73 77 69 64 72 73 74 75 79 84
41 40 38 37 37 37 38 37 36 36 37 39 39 40 40 39 37 35 34 35 35 35 38 44 58 62 69 76 76 76 74 74 74 72 68 71 78 80 80 81 85 89 92

GFSMW_925_rhum_045.txt.gz
RH
31 27 24 22 20 19 19 20 28 51 60 68 74 73 72 66 69 69 63 64 64 69 70 68 64 58 53 48 40 27 26 22 20 24 24 28 27 30 28 29 29 29 27
32 31 25 23 23 23 22 22 27 36 54 59 66 73 73 70 68 67 60 63 67 71 74 67 60 53 47 40 30 26 28 26 19 20 31 39 30 26 28 31 33 29 25
30 30 30 24 22 21 24 23 25 29 37 45 52 62 74 80 87 84 64 69 73 76 79 66 57 49 47 36 27 26 26 28 22 18 23 40 41 32 25 32 29 25 22
28 28 28 26 22 20 19 22 23 25 29 33 33 47 76 90 88 85 76 79 81 81 77 63 50 43 38 30 26 28 27 26 26 22 20 18 20 32 28 24 25 23 23
26 26 26 22 18 17 17 18 23 23 25 33 35 41 74 78 84 89 86 86 84 82 74 57 48 39 34 29 26 24 23 26 24 26 25 23 24 25 35 40 33 23 22
24 24 23 21 21 19 19 19 19 24 28 27 45 53 66 80 91 91 83 77 78 77 55 46 46 44 35 34 29 24 22 22 22 21 20 22 25 30 31 40 40 37 29
20 20 19 27 26 24 23 22 23 23 22 35 52 65 63 74 84 88 85 80 72 62 51 48 43 43 37 29 28 25 23 21 21 22 24 25 25 27 29 32 41 48 38
24 23 22 34 37 36 34 34 29 27 24 51 65 69 71 82 88 87 85 80 71 65 51 45 40 34 35 34 27 24 24 23 23 25 27 28 30 32 33 34 41 60 55
26 23 42 45 42 37 33 36 38 33 38 73 79 79 78 80 85 86 83 80 68 60 47 45 38 38 35 30 28 26 25 24 28 29 31 32 34 36 37 39 41 48 67
28 39 48 45 39 36 36 42 37 38 64 79 78 78 79 80 80 80 78 70 58 46 39 39 43 41 33 30 28 27 27 25 29 30 32 32 36 39 40 41 42 45 53
29 34 52 51 46 38 42 44 41 48 82 79 78 76 77 75 73 73 70 58 46 43 40 42 37 33 31 28 27 27 28 26 29 32 35 38 40 41 43 44 45 46 47
37 52 56 54 52 51 52 51 56 76 79 74 74 74 72 70 67 64 56 44 40 41 44 37 31 29 28 32 35 26 24 28 32 35 38 40 42 44 46 47 49 50 50
42 53 62 62 61 60 71 72 69 67 67 68 63 60 59 56 52 44 43 40 38 34 33 34 42 42 53 54 27 26 29 32 36 40 44 44 45 46 47 49 51 51 54
50 52 68 63 60 73 67 60 57 56 60 56 54 51 50 46 41 39 38 38 37 39 43 44 48 36 29 27 27 34 38 41 44 46 46 46 46 46 47 51 54 56 60
70 58 66 68 73 64 56 53 53 54 54 54 51 50 49 45 41 40 40 37 37 36 34 46 67 55 31 31 37 30 31 35 36 37 42 46 48 52 54 54 56 59 61
75 68 67 71 62 54 50 46 52 50 50 51 46 45 43 40 40 40 39 38 44 53 52 41 31 38 52 32 31 33 35 31 34 44 46 48 48 48 54 56 56 60 61
74 73 58 53 46 44 46 47 42 44 44 40 38 38 40 47 54 55 49 46 40 35 47 68 56 35 35 38 38 43 38 36 44 51 49 48 49 52 54 56 60 59 66
65 50 45 42 40 41 43 43 43 42 43 45 47 50 57 61 53 47 55 67 69 63 55 43 34 36 42 38 40 56 47 46 49 52 57 58 61 60 62 60 63 69 72
43 41 40 43 45 44 44 46 46 53 59 60 72 72 67 74 74 64 54 67 78 62 38 35 35 35 37 38 52 56 56 56 54 58 62 69 68 65 64 64 69 77 88
44 46 46 47 47 54 60 64 69 74 74 82 86 84 81 82 87 83 62 46 36 35 35 35 35 37 34 38 46 54 57 59 60 66 68 66 69 67 67 70 77 77 75
73 67 76 75 74 76 69 84 83 93 92 86 83 88 93 95 91 81 54 39 35 35 34 33 33 34 38 40 47 49 52 57 68 71 71 70 74 73 72 69 70 68 65
85 86 91 99 100 99 94 99 99 100 94 98 95 94 84 63 48 49 40 37 36 33 33 34 36 39 40 44 52 61 66 69 74 75 74 75 80 76 73 69 66 67 71
99 100 100 100 100 100 100 100 100 96 87 64 48 41 39 46 40 37 38 36 33 34 37 39 43 44 44 47 52 72 76 78 76 77 81 83 81 73 68 68 71 72 68
56 58 55 58 50 41 44 55 48 41 40 42 43 42 43 42 40 38 36 37 36 30 35 45 50 51 55 60 76 78 77 75 78 78 79 79 71 71 73 73 72 74 80
45 42 40 41 42 39 40 39 37 36 39 40 41 42 40 39 38 34 32 34 41 40 38 48 54 60 66 74 76 74 74 73 75 73 73 67 74 80 81 81 82 83 88
42 41 40 40 39 40 39 37 36 35 37 40 40 40 40 37 35 35 40 48 53 50 49 54 54 56 64 68 72 73 73 76 75 75 74 80 83 86 87 88 91 96 98

GFSMW_925_rhum_048.txt.gz
RH
32 31 28 26 25 23 21 22 25 35 66 83 85 84 84 78 75 73 70 65 60 58 57 64 66 64 60 56 50 43 32 24 22 25 27 29 29 30 29 29 29 29 29
32 34 28 25 26 24 24 22 23 26 47 72 71 74 75 76 70 75 71 65 63 63 63 64 66 65 61 53 48 43 26 24 23 23 32 40 31 29 31 31 32 34 29
30 29 34 28 24 24 23 23 25 26 30 64 73 71 80 85 86 83 76 68 64 67 69 67 67 66 62 55 46 37 27 27 22 20 27 45 40 33 24 30 36 29 24
33 31 31 30 24 21 20 21 20 25 30 51 72 75 72 86 86 80 79 73 72 73 75 72 70 66 58 51 45 32 27 29 26 21 20 19 21 29 24 26 31 26 25
34 34 33 28 23 21 20 20 19 19 22 37 54 70 76 75 73 82 86 82 82 84 82 80 71 59 53 47 37 30 30 28 28 26 23 22 23 23 31 31 30 27 25
30 31 27 24 23 22 22 22 21 20 20 27 38 44 77 80 86 93 94 91 88 88 85 78 65 59 49 39 36 33 29 28 26 25 21 20 24 30 32 40 39 38 26
27 24 24 28 28 26 28 25 23 22 21 26 34 44 61 69 75 82 90 90 88 84 80 71 56 52 41 40 35 31 27 26 24 20 20 21 22 24 27 31 40 45 40
32 28 27 36 38 36 33 31 30 30 25 23 30 42 55 67 81 84 84 87 87 83 80 70 57 48 46 45 35 28 26 24 23 23 24 25 27 29 30 32 39 55 56
39 37 41 45 42 37 33 30 27 25 30 30 36 60 70 74 75 83 87 86 87 83 67 54 53 53 46 34 38 33 36 26 24 27 28 28 31 33 35 37 40 46 62
41 40 44 49 44 40 36 35 38 37 34 38 58 76 79 82 81 86 92 88 84 75 65 55 48 41 38 41 35 34 35 27 28 28 29 31 32 36 39 41 42 45 52
52 45 41 49 50 45 41 43 46 49 50 68 79 85 91 92 92 94 93 88 79 72 59 48 43 42 39 40 34 32 29 28 29 31 32 35 38 40 41 43 45 47 50
59 49 54 58 56 52 52 54 52 58 71 82 86 89 91 94 94 91 86 80 68 60 52 45 43 42 42 38 34 34 33 33 35 33 35 38 42 42 44 46 48 49 50
60 57 58 66 62 56 74 71 74 86 88 87 86 88 88 86 82 74 62 56 52 46 44 45 41 39 43 48 51 57 49 41 37 40 44 45 46 47 48 48 49 49 52
66 74 68 58 64 76 71 68 67 71 70 76 77 74 71 67 61 52 46 45 42 42 44 40 40 48 66 64 49 42 41 46 54 53 48 46 46 48 47 52 55 57 60
72 76 77 76 80 68 62 63 66 67 65 65 61 52 47 46 45 44 45 48 47 44 43 62 70 62 60 57 55 58 63 46 41 34 37 42 48 57 58 56 57 59 59
80 80 67 67 63 53 57 63 70 70 70 66 62 63 55 48 51 53 54 48 50 57 62 68 74 63 58 72 79 64 45 35 30 38 43 46 46 48 61 63 60 59 62
76 61 49 43 46 53 59 62 63 60 60 60 60 53 53 56 60 60 60 68 73 77 62 54 67 86 71 72 65 52 40 35 40 46 50 55 57 57 57 58 64 65 68
48 46 46 47 47 51 56 67 79 79 78 78 77 76 75 72 65 68 79 78 71 78 92 96 76 58 56 66 59 51 45 45 46 50 57 63 68 67 71 68 66 66 72
43 46 48 48 47 47 52 57 63 72 79 82 80 79 80 91 91 96 99 98 94 96 73 52 46 49 60 44 53 54 53 53 54 62 67 72 73 72 71 68 72 86 78
49 50 49 54 55 59 60 66 71 76 83 94 92 88 92 98 99 100 100 99 91 67 51 42 37 36 34 48 49 53 53 55 60 70 70 70 75 73 73 74 77 76 70
79 77 77 80 78 73 74 86 98 100 100 100 100 100 100 99 98 98 85 65 62 42 35 35 35 37 41 42 53 54 63 69 74 76 75 73 80 81 78 72 72 72 69
85 96 100 100 96 100 98 100 100 100 99 100 100 100 100 100 94 70 48 42 37 35 35 37 40 42 42 51 64 72 72 76 80 78 77 81 94 79 75 73 74 74 78
99 99 99 100 100 100 100 100 100 100 100 99 99 96 82 62 49 39 38 35 35 35 38 40 43 42 42 43 56 81 79 78 78 80 80 87 81 75 74 77 79 82 72
93 97 99 87 92 99 97 98 99 98 88 58 54 50 46 44 40 38 37 35 29 30 36 42 44 50 57 66 75 75 74 74 80 78 81 78 73 73 77 76 74 78 85
52 48 44 44 46 63 67 65 52 47 44 45 46 45 42 38 34 34 34 34 41 39 38 45 53 58 63 69 72 74 74 76 80 81 71 66 73 78 81 83 85 87 92
43 43 43 42 43 43 42 42 40 38 39 42 41 40 38 36 37 38 48 58 56 56 59 57 57 60 66 71 76 77 76 84 77 78 77 80 83 88 92 95 96 94 97

GFSMW_925_rhum_054.txt.gz
RH
38 34 30 28 28 27 27 28 28 26 55 93 100 100 100 100 100 93 88 83 84 77 68 56 63 75 84 73 77 73 52 44 37 27 27 27 29 30 32 35 35 32 30
35 36 31 29 28 27 26 27 28 28 30 73 86 97 98 99 98 91 85 87 87 80 77 69 62 72 81 74 76 71 47 41 35 27 33 42 36 35 33 33 34 32 32
37 34 35 30 29 30 26 25 27 26 28 50 76 100 97 100 100 100 97 80 86 84 79 79 70 68 75 69 73 65 52 42 35 28 32 52 50 39 35 37 36 34 33
37 38 38 35 30 28 28 26 26 27 29 36 83 90 92 97 98 93 75 77 81 80 84 80 84 71 71 68 70 62 53 54 49 36 28 30 33 43 34 31 38 39 38
44 44 36 30 30 28 27 29 27 26 25 29 55 84 94 91 87 85 87 94 84 85 86 84 86 80 72 68 68 64 54 56 60 44 30 26 24 23 30 34 36 35 31
56 51 43 38 36 32 33 28 27 25 23 25 28 44 74 87 91 87 90 88 90 91 87 85 87 83 74 69 70 67 60 58 54 43 29 26 26 28 27 34 36 34 30
63 61 55 50 43 39 37 36 36 32 29 26 26 33 49 85 85 84 86 95 95 96 89 86 89 86 84 77 75 71 66 61 45 33 31 28 24 24 25 26 40 36 31
67 66 63 52 48 40 38 40 36 34 34 35 33 30 33 47 72 84 86 84 84 77 88 94 90 88 86 86 82 75 71 54 38 37 32 28 25 24 22 24 34 48 49
69 71 68 56 51 47 45 45 47 41 39 41 39 38 37 36 39 52 75 88 90 90 89 96 100 98 95 90 84 71 55 42 35 32 26 30 46 48 34 28 28 32 48
71 71 71 62 56 51 47 49 50 55 50 46 50 50 49 49 49 53 68 86 95 98 97 100 100 100 96 85 70 52 43 33 31 36 41 35 37 40 42 41 38 39 42
74 76 74 66 62 61 60 58 59 61 56 59 63 59 62 67 75 84 91 97 100 100 99 100 98 92 83 68 56 42 34 36 38 42 44 43 44 46 50 58 57 59 66
78 81 80 71 75 74 71 73 67 68 71 76 88 85 88 97 100 100 100 100 99 98 95 92 84 71 60 50 40 39 40 46 46 46 50 54 60 68 69 78 95 81 53
73 74 79 88 90 82 74 74 74 76 78 86 96 100 100 100 100 100 99 96 93 89 84 78 68 58 50 41 40 43 48 56 58 60 66 77 88 95 96 94 62 58 52
65 66 79 84 75 75 81 80 75 76 81 87 93 97 97 97 90 87 83 78 71 67 62 61 57 48 44 44 50 57 68 77 81 82 89 97 97 74 61 57 53 57 60
53 57 57 71 68 69 73 75 75 72 68 65 60 62 62 68 66 62 65 62 66 67 62 59 53 50 56 65 75 81 78 87 99 98 93 85 52 56 84 80 71 67 66
49 47 49 59 64 71 71 73 72 67 65 66 69 71 73 73 74 74 75 71 68 70 66 66 67 74 81 86 84 88 96 100 100 92 53 48 50 54 53 59 69 69 68
48 51 55 58 67 81 83 84 83 80 77 80 78 75 72 73 76 76 81 80 76 70 76 82 86 98 99 99 100 98 69 40 45 43 43 48 54 55 55 59 76 76 76
58 52 51 52 60 77 86 93 98 96 97 100 100 97 92 94 90 85 89 93 88 90 95 98 99 99 100 99 70 43 45 47 48 52 61 65 66 62 76 77 75 74 80
55 57 59 58 64 69 78 83 87 94 100 100 100 100 100 100 100 99 100 100 99 100 100 100 100 96 97 97 92 52 54 55 57 62 71 77 72 72 78 75 89 92 79
67 71 75 76 75 79 77 89 100 99 100 100 100 100 100 98 98 100 99 99 100 99 99 93 91 93 82 64 55 62 58 62 72 76 74 70 80 79 78 91 85 80 76
88 93 95 96 96 89 80 99 100 100 100 100 100 99 99 99 100 99 100 100 83 54 48 50 49 46 55 69 80 79 74 77 81 78 80 79 89 85 86 76 77 78 77
94 98 99 100 98 97 97 99 99 100 100 99 99 100 100 99 100 94 66 44 41 42 46 45 44 43 42 59 71 79 79 79 79 81 84 87 85 83 81 77 83 82 88
97 97 99 100 100 99 100 98 100 100 99 99 99 98 82 56 46 42 40 39 39 41 44 41 40 46 52 61 73 77 79 81 82 84 89 88 82 78 68 88 90 91 79
92 98 100 100 100 100 99 99 100 100 98 84 61 48 42 40 39 37 34 31 31 35 38 43 50 54 59 72 76 78 77 81 81 83 84 73 69 74 84 77 80 82 86
92 76 84 94 99 99 100 100 97 75 63 50 48 45 42 39 37 43 46 46 45 40 44 56 62 64 69 74 77 78 79 81 82 89 65 66 74 76 80 82 84 85 87
61 66 77 80 84 94 90 70 54 52 47 44 41 41 40 42 48 58 67 70 68 69 72 73 71 70 74 76 81 81 79 84 81 73 74 80 84 88 91 92 91 88 90

GFSMW_925_rhum_057.txt.gz
RH
32 32 30 29 30 30 29 29 29 28 67 100 100 100 99 100 100 100 90 90 86 84 80 74 70 75 80 87 92 84 82 68 46 35 30 28 27 28 31 39 40 36 34
30 30 32 30 30 30 29 29 30 29 31 77 89 92 94 98 98 100 100 95 83 88 87 84 76 68 80 86 93 83 78 57 45 37 40 37 38 34 33 39 41 38 35
38 35 33 34 31 31 29 28 28 28 30 38 77 99 95 95 95 99 98 100 87 85 83 84 79 70 67 77 88 83 79 54 43 36 39 47 46 39 39 37 37 37 35
46 45 40 36 35 34 28 28 29 29 30 32 78 95 91 90 92 95 95 100 100 91 90 88 84 79 71 68 80 84 77 64 48 37 34 36 37 49 39 35 39 38 36
54 51 48 42 43 40 38 28 27 28 29 33 41 82 92 88 88 95 98 99 98 99 97 91 91 83 80 75 73 82 75 67 60 49 44 35 30 30 37 41 38 40 40
60 57 55 50 48 40 38 39 38 30 29 31 36 66 94 94 99 95 98 95 92 93 99 100 99 96 88 85 79 78 77 70 63 60 60 46 35 34 28 36 36 40 38
62 62 59 57 53 48 44 40 41 40 39 37 33 33 47 85 96 96 93 100 100 100 97 96 99 99 97 94 90 81 78 74 63 62 62 46 32 29 28 28 41 38 33
61 65 64 63 60 54 51 46 45 47 45 45 42 40 38 39 48 72 91 96 97 90 96 100 100 100 100 99 93 85 86 79 67 62 58 40 32 27 29 29 33 54 50
62 67 66 64 66 62 60 55 54 54 57 54 54 54 50 44 39 38 48 66 88 95 96 98 100 100 100 100 100 94 88 82 72 64 40 36 31 28 30 34 38 56 63
70 70 69 72 72 73 68 65 63 60 58 60 65 69 71 66 60 53 50 62 79 96 100 100 100 100 100 100 99 94 88 79 62 45 36 33 41 43 39 38 41 46 51
75 72 70 77 82 83 79 74 68 65 63 64 69 74 73 79 80 84 86 87 94 99 100 99 100 100 100 100 97 87 74 57 42 36 38 41 44 50 52 53 57 64 74
69 63 66 80 78 79 81 77 74 75 77 80 84 90 99 99 96 96 98 98 99 98 100 100 100 98 94 89 81 65 52 44 43 50 49 55 63 66 76 84 92 100 99
57 64 68 68 72 80 85 84 78 76 79 85 92 96 95 98 97 100 98 99 100 98 95 91 84 78 72 66 60 51 49 51 53 54 58 67 75 88 99 100 99 88 83
55 54 54 62 67 75 80 78 75 67 67 69 76 80 87 89 86 84 78 74 74 76 71 73 66 66 58 55 48 47 53 61 70 78 86 96 99 98 98 96 85 88 88
51 50 53 62 70 73 74 77 78 71 67 68 72 77 77 77 77 77 79 79 80 80 79 75 73 68 56 52 56 63 73 84 94 99 100 99 97 86 86 96 96 93 87
49 49 53 61 71 81 81 84 83 80 74 79 82 84 84 85 88 92 89 88 88 88 84 76 70 72 83 80 83 87 94 99 100 97 66 48 57 88 92 78 73 71 74
54 51 54 58 74 86 90 96 92 85 88 92 97 95 95 92 92 92 93 98 98 95 98 98 98 100 100 99 100 100 90 64 48 43 50 57 60 56 54 56 69 72 81
60 51 52 55 64 81 88 93 96 97 97 99 99 99 100 99 100 99 100 100 100 99 100 100 99 99 99 98 95 84 67 49 50 54 59 63 66 61 78 78 76 78 82
56 60 63 66 71 74 84 91 99 99 99 99 100 100 100 100 100 100 100 100 99 100 99 100 100 98 98 83 52 53 54 56 61 69 71 71 68 71 79 78 87 90 82
72 75 78 81 82 88 93 98 100 99 100 100 100 100 100 100 100 100 99 99 99 98 98 98 96 96 94 86 94 62 60 67 75 75 69 67 83 80 83 93 83 83 74
91 91 93 93 94 92 97 99 99 99 100 100 100 100 100 100 100 100 99 99 86 56 55 60 71 71 77 82 83 82 70 80 80 81 83 83 91 79 79 78 80 77 79
93 97 96 99 99 98 99 99 99 100 100 99 100 100 99 100 87 55 45 43 46 47 47 45 43 43 58 72 80 79 79 81 82 85 84 88 85 82 81 82 89 83 91
91 97 99 99 100 99 98 99 100 100 100 98 98 80 55 46 41 38 38 40 40 41 42 38 44 52 59 67 80 81 82 83 86 86 89 87 80 80 71 88 94 90 78
92 95 92 100 100 100 100 99 100 98 90 63 46 42 39 39 38 36 34 31 32 33 39 50 57 59 67 77 78 80 78 85 81 84 79 68 75 73 79 78 80 83 90
94 95 98 100 100 100 99 99 96 81 52 46 46 42 37 35 39 45 46 40 44 46 51 60 63 66 72 75 78 80 78 84 82 91 62 71 75 81 84 85 86 87 90
73 83 92 96 97 99 98 91 70 55 42 41 41 39 40 48 57 66 71 71 73 77 78 78 74 71 76 80 85 82 81 84 88 64 78 86 91 92 93 94 94 89 90

GFSMW_925_rhum_060.txt.gz
RH
24 26 26 26 27 28 29 30 30 31 40 57 95 100 100 100 99 98 98 86 86 82 87 81 79 76 75 78 89 84 74 66 60 46 44 41 39 36 38 44 45 45 48
23 23 24 25 26 27 27 28 30 31 32 40 63 80 83 94 99 100 100 99 93 93 90 89 82 80 78 76 83 86 77 68 58 56 51 48 40 37 36 41 43 42 44
30 28 26 28 30 29 30 32 32 34 35 36 44 62 73 80 84 94 96 97 100 99 95 96 87 88 84 78 81 86 76 68 60 55 52 56 57 39 39 38 42 41 43
34 34 33 34 37 44 45 38 37 37 38 41 42 53 66 72 74 70 79 87 98 98 99 100 97 94 95 87 84 87 81 73 61 53 48 43 39 41 39 39 41 41 42
43 39 39 42 43 48 51 48 40 34 37 39 43 48 62 60 62 69 75 77 91 100 98 99 99 99 99 96 90 87 83 79 67 59 52 44 40 35 36 40 39 43 42
45 43 44 45 46 51 51 48 43 43 43 39 42 45 51 62 67 74 80 83 89 99 99 98 100 100 100 100 95 92 88 83 78 66 59 51 49 41 39 38 35 38 42
47 49 47 47 50 53 53 50 47 45 47 48 45 40 45 56 69 73 77 80 85 99 98 99 100 99 99 100 100 99 96 88 83 76 68 58 55 46 40 40 43 35 40
50 52 51 53 55 57 56 55 52 50 56 57 57 54 50 48 48 54 63 68 71 78 95 99 98 100 100 100 99 100 100 96 89 85 77 69 60 54 54 65 52 42 45
54 54 53 55 59 60 61 62 57 57 58 62 64 63 64 66 61 59 59 65 69 78 84 98 98 100 100 100 100 100 100 99 96 86 83 81 80 50 41 34 36 56 71
54 51 52 61 64 63 66 65 63 60 62 69 71 75 80 84 84 82 77 73 73 82 98 100 99 99 100 100 100 100 100 100 100 92 77 73 61 56 40 42 44 46 53
52 51 56 60 60 63 66 66 67 68 72 75 78 86 92 99 99 99 98 98 98 99 98 99 97 100 100 100 100 100 100 96 93 91 92 82 73 65 53 52 56 62 63
51 54 54 55 58 63 66 67 66 66 70 77 81 83 87 89 92 97 96 96 98 98 99 100 100 100 100 100 100 95 86 84 75 68 62 63 60 65 76 83 88 97 99
49 48 47 51 54 60 63 65 64 63 63 68 72 78 82 84 85 80 80 86 89 90 89 89 84 82 88 88 83 78 70 65 56 52 55 68 75 82 91 98 98 98 98
47 48 48 50 55 60 65 66 66 66 65 68 72 76 82 82 82 85 83 79 77 76 72 71 70 74 74 73 71 70 62 58 60 64 68 80 89 97 98 99 99 98 97
47 47 48 51 57 61 66 68 70 69 70 72 76 81 88 90 86 92 93 93 87 88 83 80 81 78 78 79 72 65 66 75 89 95 98 99 100 98 95 88 94 97 97
48 46 46 52 62 68 74 76 76 78 78 81 82 84 90 96 100 100 100 100 99 98 92 96 93 95 96 97 89 81 90 97 100 100 99 96 79 95 98 93 94 82 75
54 48 47 51 62 73 80 83 82 86 90 90 89 91 97 99 99 100 99 100 99 100 100 100 100 100 100 99 99 99 99 98 97 77 66 82 71 54 56 54 77 76 81
55 48 48 54 60 69 74 80 88 99 99 99 99 95 96 99 100 99 100 99 99 99 100 100 100 99 99 99 98 84 56 49 62 64 69 69 73 72 75 70 77 82 81
49 52 58 63 65 70 76 84 93 95 99 99 99 100 100 100 100 100 100 100 99 99 99 99 98 98 98 88 59 63 64 72 80 79 76 71 67 68 82 77 96 78 72
58 60 66 73 77 82 81 84 95 98 100 99 100 100 99 99 99 100 99 99 97 98 98 97 98 97 93 98 82 68 63 60 66 68 69 75 81 83 82 80 72 71 63
70 74 78 83 88 90 98 99 99 99 100 99 100 100 99 98 98 99 98 91 76 70 74 69 73 77 75 82 85 78 68 67 68 69 70 74 89 83 82 80 69 68 72
77 80 81 89 95 99 98 98 99 100 99 99 100 100 100 90 73 58 50 47 45 44 45 45 48 58 72 78 80 81 82 80 72 70 72 76 85 82 82 81 86 85 89
85 89 93 99 100 99 99 99 100 99 100 94 78 59 46 44 46 45 45 41 40 37 33 34 41 50 64 70 84 82 80 81 74 74 84 83 77 74 74 84 94 91 76
83 78 90 98 99 99 99 98 99 97 74 51 42 40 39 39 38 37 36 32 31 30 34 40 47 53 61 68 72 75 70 81 72 83 74 62 66 68 74 76 77 78 78
84 83 94 92 100 100 100 98 87 67 46 43 43 40 39 38 43 48 42 39 47 45 46 54 54 56 58 67 78 79 71 73 73 85 60 64 68 71 71 74 78 81 82
87 91 89 96 100 100 94 83 74 52 42 40 40 41 45 50 54 56 63 77 78 79 76 74 70 66 76 82 86 83 82 86 84 63 63 67 72 74 75 78 80 86 90

GFSMW_925_rhum_063.txt.gz
RH
16 20 23 24 24 24 25 25 25 25 27 34 44 88 96 97 99 99 78 74 72 69 74 76 72 68 66 68 78 81 71 68 59 56 45 45 43 40 41 44 43 45 51
21 20 21 22 22 22 23 25 25 26 26 28 32 59 83 93 96 99 98 95 83 76 75 78 79 72 71 69 72 80 76 72 64 58 53 58 49 43 40 40 42 42 46
24 24 24 26 28 28 30 28 27 28 29 29 29 34 62 68 76 91 94 97 100 93 84 82 82 79 77 73 72 77 79 76 67 58 57 65 66 46 42 39 41 41 42
29 30 29 32 35 43 48 39 34 33 33 36 36 36 40 55 62 63 68 75 82 91 95 92 88 86 84 83 77 75 83 80 71 63 61 56 44 57 52 41 40 41 40
35 34 36 38 42 50 50 46 39 33 33 35 36 37 37 42 52 58 59 60 64 78 89 97 99 94 90 91 87 83 81 86 73 67 63 60 47 40 42 50 45 41 41
37 38 40 41 43 49 51 47 41 39 41 39 37 38 40 42 49 54 59 63 68 74 84 90 97 99 95 93 93 91 91 91 84 70 67 60 58 51 46 60 49 49 44
40 42 42 44 47 51 51 48 46 42 44 47 45 40 38 42 47 54 60 63 66 73 82 86 93 94 95 97 96 100 97 94 91 87 73 65 62 60 54 58 55 57 47
43 46 46 48 49 52 53 53 51 48 50 50 51 49 49 46 43 42 46 52 57 59 62 83 92 98 96 98 100 100 100 99 97 93 88 77 67 62 64 72 79 92 81
46 46 44 46 53 53 55 58 56 52 52 55 56 56 58 65 65 63 58 54 53 58 64 74 82 91 95 99 99 100 100 100 100 100 97 84 76 69 68 86 92 95 96
47 44 45 53 53 54 58 57 57 58 59 62 63 66 72 79 82 84 82 82 79 74 74 83 92 89 94 94 100 100 100 100 100 100 98 91 88 90 86 74 69 74 82
47 46 49 50 53 56 59 58 58 58 61 66 68 71 75 78 80 85 86 88 93 94 95 94 95 96 92 100 100 100 100 100 100 100 99 95 88 88 90 82 80 71 66
47 48 48 48 50 54 56 57 56 56 58 62 66 70 74 76 76 74 76 82 86 89 94 96 100 100 100 100 100 100 100 100 100 99 95 96 92 82 78 79 82 90 94
45 44 44 46 49 52 56 58 58 58 60 63 66 71 74 75 79 79 77 74 72 73 75 75 78 80 86 87 89 92 93 93 94 94 90 83 79 76 86 90 95 97 96
44 45 46 46 49 53 59 60 60 62 64 67 72 76 80 83 86 89 89 89 87 83 81 80 80 78 80 81 80 82 82 84 83 78 75 81 83 88 94 99 98 97 97
46 45 46 46 52 56 62 63 67 67 69 69 72 77 84 95 98 98 100 100 98 95 92 85 84 87 87 94 90 87 87 82 84 89 94 96 98 99 96 92 86 79 90
49 44 44 48 56 61 68 69 71 73 72 74 74 78 86 94 100 100 100 99 100 99 100 100 99 98 100 98 83 79 90 98 99 100 99 98 89 96 98 99 94 88 82
48 47 45 48 57 64 69 70 74 82 86 88 85 88 94 98 100 100 100 100 100 100 99 99 99 99 100 100 100 100 100 99 98 97 96 95 62 58 54 56 76 77 78
50 47 45 51 56 61 64 71 85 97 99 99 99 100 100 100 100 100 100 99 99 99 100 99 98 98 99 99 99 98 97 88 90 78 66 66 68 66 70 68 72 80 78
45 46 50 56 60 61 65 74 80 95 98 100 99 99 99 99 98 99 100 100 98 96 98 96 97 96 92 84 68 63 70 74 72 68 70 65 62 66 82 78 82 82 72
48 52 56 63 66 69 68 77 87 99 99 100 100 100 100 99 99 100 100 99 97 97 92 85 86 93 83 82 75 60 53 54 59 61 65 73 83 84 83 80 72 69 65
58 61 63 68 70 78 88 98 99 98 100 100 100 99 99 99 99 97 89 78 72 69 62 66 69 72 74 79 81 78 70 68 67 66 66 69 85 84 82 81 76 69 72
68 65 68 75 84 98 99 100 99 100 99 100 99 99 96 86 70 55 47 41 39 38 38 39 44 54 67 79 81 83 81 80 70 65 67 72 89 80 82 83 83 85 88
69 70 80 94 98 100 100 99 100 100 99 92 81 55 42 44 46 45 42 34 32 28 27 31 38 47 58 63 70 76 78 78 76 74 80 79 73 77 78 81 91 84 75
72 72 82 94 100 100 100 99 100 93 75 53 39 38 37 37 35 33 33 27 26 27 30 36 41 47 53 59 63 66 63 66 66 76 72 62 58 67 69 73 73 74 75
71 67 78 90 99 100 100 95 87 71 48 36 36 37 35 33 39 45 41 39 54 50 43 51 51 53 53 64 81 83 78 79 79 85 60 55 61 66 67 68 72 75 77
73 71 82 88 98 100 94 84 74 55 39 36 36 37 40 41 45 51 65 67 78 72 51 52 62 63 65 81 88 85 84 86 80 75 54 61 67 71 74 76 79 86 89

GFSMW_925_rhum_066.txt.gz
RH
19 20 22 23 23 24 24 25 25 25 26 29 36 74 85 86 82 87 84 79 73 68 70 72 72 70 65 64 68 76 70 73 63 59 52 45 42 40 43 44 45 47 50
23 23 22 22 22 22 23 24 26 26 25 26 28 38 75 80 76 75 91 92 85 78 74 71 74 77 71 67 69 75 79 76 68 60 54 67 54 45 41 41 44 44 46
26 28 28 29 33 42 37 30 28 28 28 30 31 30 42 80 79 87 89 88 92 84 91 80 76 79 80 75 72 75 84 82 75 64 58 84 84 56 45 42 41 44 44
32 34 37 37 42 49 49 44 37 31 29 30 33 35 37 52 73 74 80 78 80 80 78 72 86 82 82 82 78 75 83 85 83 72 61 57 56 65 58 44 40 42 43
38 41 41 41 48 52 51 45 40 38 35 34 35 35 38 37 38 46 61 64 64 67 81 87 80 81 92 87 85 83 83 88 88 79 72 70 70 49 59 67 50 42 44
44 44 41 42 48 51 51 48 46 41 43 44 40 38 38 39 41 44 56 57 60 65 70 75 85 82 85 83 87 83 88 89 97 88 79 71 73 68 59 78 65 60 47
50 51 53 51 51 53 54 53 51 48 48 49 50 49 44 40 41 44 49 58 64 66 69 72 77 79 81 87 87 86 88 96 97 98 86 79 72 70 69 68 79 77 58
54 53 50 50 53 54 55 57 56 53 52 54 56 55 58 62 62 61 59 53 51 53 56 65 81 85 84 86 91 93 88 88 96 100 100 90 80 73 72 70 76 95 94
54 50 48 54 53 53 56 57 56 56 57 61 61 64 68 66 71 70 71 71 69 68 67 69 81 81 81 86 88 92 97 99 99 100 100 100 95 79 72 67 68 79 99
52 52 55 52 54 56 59 58 58 60 63 66 67 71 76 80 82 85 86 85 81 81 78 79 82 88 93 87 87 90 96 100 100 100 100 100 97 87 82 83 88 92 93
53 55 54 50 55 57 58 57 56 57 60 65 69 73 76 77 76 76 78 82 86 88 89 89 89 89 90 88 95 98 100 100 100 100 100 100 100 97 93 91 91 93 96
52 54 50 49 52 54 56 57 57 58 61 65 69 72 74 76 78 77 75 75 75 76 78 82 85 86 88 94 99 100 100 100 100 100 99 100 99 97 97 94 92 94 96
51 51 50 50 52 55 58 59 60 62 64 69 73 77 80 82 86 85 84 83 82 82 80 78 78 79 82 84 88 94 98 100 100 100 97 99 98 96 97 97 100 97 95
49 52 53 52 52 56 60 63 65 67 68 72 76 82 90 94 94 96 90 89 88 86 84 83 83 83 84 85 87 91 93 94 96 98 94 95 94 95 98 99 98 98 92
48 49 52 57 56 60 65 67 71 71 72 73 76 83 92 98 98 98 99 99 99 99 97 94 96 96 93 94 94 94 93 93 96 97 96 98 98 100 100 99 99 90 82
51 46 48 52 60 67 70 70 73 78 77 75 79 86 92 98 98 99 99 100 98 99 100 99 99 100 100 98 89 87 92 98 98 99 100 98 99 99 99 95 93 87 84
53 50 50 55 63 67 68 73 82 88 90 89 89 94 98 99 100 99 100 100 100 100 99 99 99 99 100 100 100 98 98 98 97 98 94 91 66 57 53 62 76 73 78
53 50 50 55 60 63 67 79 89 98 97 99 98 98 100 99 98 99 100 100 99 97 98 99 100 98 99 98 85 81 88 90 84 82 88 80 71 62 70 72 76 80 78
51 50 53 56 59 62 69 78 87 95 99 99 99 99 99 100 98 99 99 100 100 100 99 96 89 82 81 74 66 61 63 65 65 67 63 66 70 79 80 82 84 79 72
49 53 57 62 65 66 70 77 90 98 99 100 99 99 99 99 100 99 99 99 88 77 81 87 86 84 82 81 74 59 55 59 61 63 67 76 83 84 87 84 80 71 67
55 57 61 65 68 79 84 96 99 99 99 99 97 97 93 92 92 82 63 59 58 61 64 67 69 74 75 80 84 82 72 72 69 66 66 70 85 85 82 82 78 74 77
65 64 70 75 83 91 96 99 99 99 100 100 100 97 94 88 55 48 45 42 40 39 41 41 45 58 65 76 76 79 80 82 71 69 72 74 81 75 79 77 86 88 90
69 68 80 88 93 97 96 99 99 99 100 99 88 62 50 49 48 44 38 34 31 28 29 36 43 50 58 62 69 71 69 71 73 72 81 77 69 75 76 79 86 87 75
71 74 88 91 95 96 99 98 98 98 88 66 43 39 40 41 40 36 31 27 27 28 33 39 44 48 54 64 69 71 68 72 72 74 70 64 66 71 75 73 72 74 76
72 75 85 89 94 100 99 99 98 85 64 40 37 36 37 30 32 34 37 34 37 41 44 50 51 50 60 70 84 86 84 82 84 81 55 54 61 68 70 69 71 74 79
71 72 78 88 92 94 98 96 88 69 41 37 37 36 35 39 45 46 54 63 50 43 38 38 46 62 70 82 87 87 86 86 83 68 57 60 72 75 79 81 85 87 91

GFSMW_925_rhum_069.txt.gz
RH
22 24 23 22 22 23 23 24 25 26 38 77 82 87 85 81 75 70 68 73 76 73 69 68 68 67 69 66 64 74 73 72 73 65 59 54 50 42 42 42 44 50 54
28 26 24 24 26 28 26 24 25 26 27 28 32 61 69 74 70 71 72 67 64 73 82 78 71 71 72 71 67 68 77 76 76 67 62 62 55 44 42 42 44 44 51
34 38 40 42 39 39 37 33 29 28 28 29 31 33 40 83 79 82 85 77 66 60 65 70 78 82 77 77 74 70 72 83 85 74 62 82 79 65 47 44 42 44 46
39 44 44 46 45 47 46 43 39 32 29 30 30 32 38 44 64 80 79 72 72 75 77 72 70 74 72 84 79 79 76 80 92 89 72 62 62 72 67 50 50 43 45
44 48 46 48 51 52 51 45 44 41 42 39 34 35 36 38 39 40 45 62 78 72 71 67 75 74 78 81 89 90 89 90 92 95 86 78 77 65 65 78 68 52 48
52 49 45 52 55 54 54 52 49 48 48 49 49 47 41 40 41 42 43 50 64 69 69 70 76 77 79 78 80 83 90 98 99 100 96 84 78 81 70 84 81 76 69
60 60 60 59 59 58 57 57 55 54 53 52 55 56 58 58 61 65 60 53 53 58 64 71 77 78 77 79 77 80 85 90 90 97 99 98 90 87 84 81 87 87 82
64 62 58 62 58 57 57 58 56 57 58 58 62 64 63 65 70 71 72 70 69 69 68 69 74 89 89 90 79 82 78 77 81 84 96 100 99 93 88 83 90 99 98
63 60 64 58 57 58 60 59 60 63 64 66 69 74 75 74 77 77 75 78 78 75 75 77 76 80 84 95 83 84 80 79 82 98 100 100 100 100 96 94 90 86 99
62 65 63 58 59 60 60 58 60 62 66 72 75 78 78 80 81 80 77 78 79 78 76 78 81 82 81 79 83 84 84 83 89 95 100 100 100 100 100 95 92 94 96
64 68 61 58 59 59 59 57 58 60 64 68 71 72 75 77 75 72 71 72 76 76 77 82 83 81 81 83 83 85 92 100 100 100 100 100 100 100 98 97 98 100 98
63 64 57 58 58 59 59 59 60 63 68 71 72 74 75 78 80 81 82 80 79 79 78 78 79 80 81 83 88 92 98 99 100 100 100 100 100 100 100 98 100 100 100
60 59 58 59 60 60 62 62 64 67 70 73 76 81 85 87 88 88 86 84 83 83 83 82 82 83 84 86 90 94 98 99 99 99 99 100 100 100 100 96 98 100 99
56 58 60 60 59 62 64 66 68 69 72 75 80 87 96 98 99 97 97 97 91 88 88 86 86 85 87 90 92 94 96 96 98 99 98 97 97 98 96 94 98 100 98
56 58 62 66 64 68 69 72 72 73 73 77 84 91 97 98 99 99 99 99 100 100 98 98 100 98 94 92 85 86 90 92 97 98 99 100 100 99 99 99 98 92 86
56 54 58 66 71 73 73 76 81 81 78 82 88 92 97 100 99 99 99 99 98 99 98 100 99 99 100 99 84 84 90 95 94 96 98 99 99 98 98 97 97 94 82
58 53 56 65 73 72 73 82 86 89 89 90 94 98 99 99 99 99 98 100 99 100 100 98 99 100 100 99 95 93 93 94 95 93 87 84 71 68 65 66 73 77 79
56 56 59 67 68 69 78 85 92 95 98 96 96 99 99 99 99 99 99 100 100 100 100 97 88 85 90 87 64 65 65 64 71 71 67 64 64 76 76 76 76 76 74
57 53 55 60 64 69 81 85 94 99 99 99 99 99 99 99 99 99 99 100 100 94 80 75 74 74 76 69 71 61 60 62 63 60 67 66 71 82 84 81 81 82 73
55 59 60 63 64 71 79 86 93 98 99 99 99 99 99 99 100 100 100 86 83 88 94 88 82 74 82 84 79 60 62 64 65 67 67 79 84 86 85 84 81 74 70
56 58 61 65 68 74 81 90 97 99 99 99 100 99 99 99 98 93 69 67 70 70 72 72 71 70 70 81 81 82 68 72 68 68 69 74 88 81 78 81 74 77 82
67 64 69 75 85 86 88 99 99 100 99 98 97 93 95 90 58 54 52 49 46 46 44 44 51 55 57 69 75 78 76 79 65 68 70 70 75 75 78 73 85 90 92
70 70 78 88 89 90 98 100 99 100 100 99 98 95 84 56 50 46 41 38 37 33 33 40 45 48 60 64 77 80 79 78 75 80 84 76 66 66 65 80 85 82 72
73 77 86 93 96 96 95 96 98 99 99 99 84 56 49 48 45 41 34 29 27 29 34 39 45 49 58 66 67 67 62 64 68 73 64 64 64 68 73 72 69 72 75
75 81 88 93 96 98 96 96 94 94 95 72 45 40 40 41 32 30 30 29 33 36 38 42 44 50 59 65 84 86 83 83 85 82 53 54 63 70 72 74 76 79 84
76 85 86 89 94 98 96 97 98 94 85 50 39 38 38 31 34 41 57 57 45 35 33 31 37 48 62 76 81 87 86 83 82 73 57 62 71 76 79 82 86 88 92

GFSMW_925_rhum_072.txt.gz
RH
29 27 27 25 24 25 25 26 30 54 74 80 79 78 76 73 73 76 76 76 75 71 67 66 66 66 67 67 66 68 71 73 74 76 70 65 61 58 53 48 46 44 45
30 29 30 30 28 29 27 26 27 28 30 38 80 87 87 81 75 70 69 70 71 73 77 73 73 72 74 72 70 70 72 76 77 82 73 78 64 58 57 51 45 44 43
35 43 46 42 38 37 37 33 29 29 29 30 32 38 59 81 82 70 68 70 80 77 72 68 71 78 83 80 77 74 75 83 80 88 80 84 83 69 55 54 48 45 46
43 47 49 49 43 44 42 42 38 36 34 32 31 31 34 56 69 79 75 78 81 78 74 75 76 77 81 84 83 84 83 86 93 96 90 79 72 81 83 54 53 52 51
52 53 53 54 54 52 49 48 45 46 48 45 38 36 37 37 39 40 41 45 43 71 83 83 75 70 70 77 81 89 93 98 98 97 94 97 93 79 76 79 70 60 60
55 55 55 58 60 57 55 53 52 53 53 52 52 50 48 46 44 46 47 47 58 70 75 78 77 78 84 82 81 81 83 89 98 100 99 99 92 94 92 89 83 77 67
63 67 70 67 63 59 58 57 55 56 58 57 57 61 65 66 63 64 64 60 61 63 67 72 77 83 84 86 86 84 79 81 85 87 95 98 99 98 94 93 96 94 90
70 71 71 67 61 60 58 58 58 61 62 62 65 67 68 68 72 76 77 75 76 76 73 72 78 88 95 94 92 83 78 77 80 90 100 100 97 94 92 99 96 99 95
70 70 70 62 61 61 61 61 64 67 68 72 76 74 76 76 77 77 76 78 80 79 78 77 76 77 79 83 89 86 78 81 89 94 98 98 100 100 100 100 100 96 98
67 73 67 64 64 63 61 62 63 66 73 76 77 78 77 77 76 74 70 71 74 75 76 77 78 79 78 77 76 75 80 84 90 94 90 88 100 100 100 100 100 100 99
70 73 67 65 64 62 59 59 61 64 69 72 73 74 76 77 76 75 76 76 75 74 74 77 79 78 77 79 82 86 90 92 99 98 99 99 100 100 100 100 100 100 100
68 68 66 67 64 62 61 61 63 66 72 74 74 76 79 82 82 83 83 83 82 82 80 80 79 79 80 82 85 91 98 100 100 99 99 99 99 99 98 97 97 99 100
68 67 67 68 65 64 63 64 66 70 73 75 78 84 88 89 90 90 90 87 85 85 84 84 84 84 85 86 90 93 97 100 99 100 99 98 97 96 95 95 97 98 99
62 64 66 67 65 66 65 67 70 71 74 77 82 90 98 99 99 99 99 93 93 92 93 88 85 86 88 89 91 93 94 97 97 97 95 95 94 94 95 98 98 98 96
63 64 65 68 67 70 71 72 73 74 76 79 84 92 98 98 99 99 99 99 97 98 99 99 99 92 85 86 85 87 92 95 99 100 99 100 99 99 97 94 94 95 92
62 63 64 68 73 74 75 78 79 77 78 82 89 96 99 99 100 100 99 99 99 100 99 98 98 99 100 100 90 88 90 93 95 99 99 98 95 96 99 99 97 95 91
61 61 65 70 72 75 76 81 83 84 84 88 95 98 98 99 99 99 100 99 99 99 99 99 99 99 98 99 95 92 91 90 80 70 63 55 55 62 65 68 76 79 81
62 56 59 70 73 76 79 84 89 92 92 94 97 100 99 100 100 99 100 100 99 98 97 88 83 82 84 80 53 48 48 51 55 57 57 59 73 80 85 78 80 76 75
60 55 55 67 72 76 82 87 93 95 96 97 99 99 99 100 99 100 99 100 96 88 80 76 72 72 71 78 63 56 55 56 60 68 76 67 70 85 92 81 79 79 72
54 56 61 66 70 80 83 87 94 96 99 99 98 99 99 99 99 99 98 99 98 84 82 74 71 78 83 86 80 60 61 62 65 64 61 77 85 85 82 82 76 78 72
58 59 63 66 70 80 85 89 95 99 97 98 97 98 97 98 99 99 85 84 82 81 80 72 66 65 73 79 81 81 66 64 66 66 66 70 89 77 76 81 72 79 90
64 63 68 71 74 79 84 93 100 98 99 99 100 99 99 100 97 74 69 63 60 57 52 52 55 54 62 73 76 77 76 80 67 65 71 70 73 75 80 76 84 89 89
70 67 71 81 87 87 88 100 99 99 99 100 98 91 94 81 58 56 52 49 44 41 40 41 45 47 57 60 78 77 82 84 72 75 84 86 71 65 60 77 85 82 72
73 73 80 90 94 92 93 96 99 99 97 96 95 96 95 66 54 47 40 37 34 32 32 38 43 46 53 59 62 63 59 60 68 71 74 55 66 70 75 73 70 72 75
74 76 85 90 92 93 94 97 96 100 99 99 99 86 58 54 47 43 35 30 28 28 30 34 38 43 49 53 73 82 78 79 83 83 55 50 62 70 72 75 77 80 84
77 83 86 88 90 95 95 92 92 92 99 99 81 50 44 48 40 34 37 35 38 42 34 33 31 38 44 56 71 70 85 86 83 78 65 58 72 77 80 82 85 87 89

GFSMW_925_rhum_075.txt.gz
RH
28 28 27 28 30 35 40 53 68 73 80 84 83 85 83 80 76 74 77 78 75 71 68 68 71 72 73 71 70 72 72 71 75 85 81 75 71 69 66 63 60 56 52
32 33 32 29 31 32 29 28 31 38 52 67 78 83 80 79 80 80 80 80 85 82 76 76 74 73 74 74 75 77 79 80 81 88 88 91 78 70 68 64 61 58 54
36 44 47 42 41 40 38 33 30 28 29 31 38 57 79 86 84 77 74 77 83 85 88 86 83 80 77 83 84 85 83 91 87 89 89 92 95 78 63 62 60 60 56
38 49 52 51 46 45 43 42 39 36 33 31 32 33 38 58 69 75 73 70 78 81 87 87 82 81 83 85 85 91 93 95 98 96 96 94 87 87 87 61 56 55 56
47 53 55 54 56 52 48 47 48 49 50 44 37 36 37 38 40 43 42 43 48 50 60 76 82 83 83 81 84 85 84 92 99 100 97 94 100 96 89 90 81 68 62
56 57 59 61 61 58 54 53 52 54 55 55 54 51 46 47 49 52 49 48 56 64 68 76 83 86 85 84 90 88 89 92 97 93 97 98 97 99 97 96 90 86 78
65 72 76 71 64 61 59 57 56 59 60 60 61 63 64 64 64 66 67 64 65 65 69 76 83 88 92 96 94 92 96 90 90 82 96 98 96 95 96 99 96 94 87
73 78 78 70 64 62 59 59 62 63 63 65 67 70 72 71 72 75 78 78 79 78 76 75 79 86 97 99 100 100 95 92 82 86 98 98 99 100 100 100 99 98 95
79 79 77 66 64 62 61 62 65 68 71 73 75 75 77 77 75 75 75 75 77 78 78 78 78 79 80 81 84 90 88 87 87 87 100 97 98 98 99 100 100 99 98
75 79 72 68 66 64 63 64 66 70 77 78 78 78 77 77 75 73 70 70 71 72 74 76 76 76 74 75 78 79 80 85 93 99 99 99 100 97 91 98 99 99 100
72 79 74 68 66 63 62 62 64 69 73 74 74 75 76 77 77 77 78 78 78 76 75 75 76 75 75 76 80 83 86 97 99 98 99 98 96 97 99 97 98 99 99
74 75 73 72 68 64 63 62 65 68 72 74 74 77 80 83 83 83 83 84 83 83 82 82 82 81 81 84 86 90 99 98 100 100 99 100 100 98 96 95 97 97 99
72 71 75 74 69 66 64 65 67 70 74 76 79 84 88 89 90 92 90 88 88 88 86 86 86 88 90 91 95 97 99 99 99 100 98 98 97 95 96 96 94 93 94
68 69 73 73 69 68 67 68 70 73 76 79 84 89 98 98 97 99 98 97 97 96 92 88 88 89 91 93 95 97 99 98 98 97 94 94 94 98 97 95 95 95 93
71 68 69 73 71 72 70 71 72 75 77 80 85 93 99 95 95 100 100 99 99 99 99 99 99 97 95 91 86 89 99 100 98 98 98 99 100 100 98 90 91 87 82
68 68 65 68 72 73 73 75 76 77 79 83 88 97 98 100 100 100 100 100 100 100 99 99 99 100 99 100 92 91 92 94 96 98 95 85 77 85 95 94 88 88 80
69 66 64 66 69 71 72 77 79 80 83 86 93 97 99 100 100 100 99 99 99 99 99 99 99 99 99 99 95 90 82 71 61 56 53 59 66 65 61 72 65 76 86
66 62 63 66 68 72 77 80 83 85 87 91 96 99 100 100 100 100 99 99 99 96 91 81 78 78 84 80 49 49 48 49 54 56 58 63 80 90 80 72 74 73 75
66 56 54 61 70 76 79 83 90 92 94 95 98 99 99 100 100 100 100 98 95 79 76 74 71 73 81 82 59 52 52 54 60 68 80 72 75 86 88 75 72 77 72
60 58 55 63 74 80 82 87 92 95 96 96 97 100 99 99 100 99 99 94 84 76 72 68 70 74 80 85 73 52 55 56 59 60 58 79 86 83 77 76 67 70 73
58 58 63 70 73 79 85 89 93 96 95 98 98 100 99 100 97 98 99 96 73 72 75 62 58 60 66 79 82 75 57 54 57 58 58 60 77 76 76 79 74 86 92
68 64 68 71 74 80 84 89 94 95 96 98 98 99 99 100 98 99 86 77 75 71 63 55 52 49 57 67 78 79 77 77 71 62 67 76 78 72 81 80 84 88 85
69 65 66 73 76 82 85 89 98 100 100 100 100 100 100 100 100 78 70 64 58 54 46 43 42 43 48 55 75 70 72 80 71 64 81 85 79 72 60 72 86 83 72
68 66 71 79 85 84 87 86 100 100 100 100 100 98 99 97 66 61 56 54 48 43 39 35 38 40 45 51 56 55 55 56 62 67 74 49 64 69 70 71 72 70 72
68 68 74 81 84 86 90 93 99 100 100 99 94 93 96 90 61 54 45 40 36 30 27 27 32 37 38 39 49 64 73 74 77 84 73 47 54 66 71 73 76 78 82
72 76 77 80 82 88 92 98 96 100 98 95 97 98 96 70 52 47 42 36 32 33 35 34 34 34 35 38 62 82 82 86 85 79 74 57 58 70 72 78 81 83 85

GFSMW_925_rhum_078.txt.gz
RH
31 27 27 33 42 46 65 74 80 81 82 83 85 85 81 78 76 72 77 81 77 73 69 69 71 74 76 76 74 76 75 75 76 85 82 77 77 78 76 71 70 71 67
32 33 33 32 32 35 41 46 58 74 82 86 87 87 83 84 84 85 85 87 89 91 91 85 79 76 76 76 77 82 85 87 85 88 94 96 77 74 73 72 73 71 69
39 38 45 38 38 36 33 31 31 33 36 40 50 66 85 92 90 87 86 85 84 88 90 91 91 92 93 90 87 88 93 96 92 91 92 97 96 83 67 63 64 65 64
40 42 51 53 46 42 39 35 32 30 29 29 30 32 38 57 71 76 79 79 70 74 82 88 95 98 97 89 85 89 92 100 99 98 98 96 94 95 95 73 68 67 67
44 49 56 52 53 50 47 44 42 41 40 36 33 32 34 36 40 47 53 49 50 56 60 66 76 90 93 92 91 89 88 94 100 99 96 92 98 100 98 97 86 77 72
47 54 55 64 64 59 56 54 52 54 54 52 50 46 42 43 44 46 44 44 48 58 64 69 75 86 98 100 97 96 94 92 98 100 100 97 94 98 99 99 96 93 85
57 66 80 75 68 63 59 58 58 61 62 60 60 62 64 65 65 67 66 65 65 67 69 75 85 93 100 100 100 100 100 100 100 100 100 100 98 98 100 100 98 98 92
71 80 81 74 68 64 61 61 62 64 66 68 68 70 71 72 75 78 80 77 76 76 75 75 78 83 93 97 98 99 99 100 97 100 100 97 97 99 99 100 96 98 97
77 86 84 72 68 64 63 62 65 70 74 74 76 76 76 75 73 73 73 72 73 74 75 76 76 76 77 80 86 93 94 93 95 97 100 100 99 98 98 96 97 100 98
85 89 83 73 68 65 65 66 67 70 76 78 78 78 78 77 75 74 71 70 70 70 71 72 73 73 73 73 76 79 82 86 94 99 98 98 98 99 96 96 99 100 99
84 87 80 73 69 66 66 66 68 70 74 76 76 76 76 76 76 76 78 78 78 77 75 75 75 75 76 78 83 86 97 100 99 98 98 97 99 98 97 97 96 95 97
83 83 80 77 72 67 66 65 68 69 71 73 73 75 78 80 81 82 82 82 82 83 83 83 83 83 84 86 89 96 98 98 98 98 99 100 100 97 94 93 94 92 93
82 81 83 82 74 69 66 66 69 70 72 74 77 82 86 87 89 89 89 89 88 87 86 87 87 90 92 95 98 100 98 99 99 98 97 96 94 94 94 93 92 93 94
78 79 82 77 73 69 68 68 71 73 75 78 82 87 94 97 97 99 98 98 97 92 88 88 90 93 95 97 100 100 100 100 99 97 95 94 94 94 92 91 90 90 90
80 77 78 78 73 72 70 70 72 75 78 82 86 91 97 95 97 99 100 99 99 99 99 99 99 98 92 91 98 100 97 98 99 99 99 100 100 99 97 89 85 83 81
74 76 74 74 76 73 70 72 74 77 79 82 86 94 97 98 99 100 100 100 100 100 99 99 99 99 99 100 92 91 93 98 98 93 82 76 71 87 87 92 89 86 67
71 73 70 68 70 70 68 71 74 77 81 84 90 96 97 99 100 100 100 100 100 99 99 99 98 99 99 100 87 79 72 63 55 52 60 69 76 64 60 63 63 69 89
70 69 67 64 64 67 71 73 79 82 85 89 94 98 99 100 100 100 100 100 100 94 85 81 81 82 85 78 46 44 44 46 52 54 57 75 90 88 72 64 67 71 82
64 60 59 60 64 68 72 78 84 86 89 93 97 99 100 100 100 100 99 99 94 84 76 75 79 77 82 88 52 49 50 52 57 67 80 72 72 83 88 60 59 74 72
62 60 58 62 67 75 78 83 88 91 94 94 96 98 100 99 99 99 99 98 80 76 74 74 76 79 82 86 57 46 48 50 56 56 56 86 87 81 79 63 56 66 72
64 62 63 66 70 78 82 88 91 94 92 94 96 100 100 99 100 99 98 95 82 73 70 61 62 63 68 80 86 60 52 50 51 52 53 52 80 76 78 73 77 88 90
71 65 67 71 76 79 83 87 90 88 93 95 98 100 99 100 100 99 99 88 76 75 70 56 52 50 55 66 79 81 77 72 64 56 60 67 74 74 75 75 81 89 84
69 68 68 75 80 82 82 86 85 92 96 99 100 100 100 100 98 98 95 85 80 66 54 47 43 41 44 50 66 70 65 69 65 58 68 87 69 71 55 62 88 84 72
69 66 72 79 84 83 84 81 86 98 98 100 100 100 100 100 99 100 81 67 58 53 48 43 38 37 39 41 47 50 49 50 54 62 71 53 56 61 62 66 72 70 71
65 66 70 74 76 79 83 88 91 99 100 100 100 100 100 100 99 78 62 57 48 41 37 31 28 31 32 31 37 46 55 59 70 89 75 54 43 52 62 67 70 73 76
67 70 68 70 74 79 83 88 92 98 100 100 100 99 95 99 90 66 62 52 43 37 32 29 28 29 31 30 35 76 88 83 87 84 77 67 50 50 58 65 71 77 80

GFSMW_925_rhum_081.txt.gz
RH
38 30 29 45 71 79 83 80 81 80 80 82 87 88 86 82 82 81 81 82 73 78 78 76 74 73 76 76 78 83 83 80 79 91 85 77 68 68 67 68 70 74 77
35 32 31 32 41 47 60 77 81 82 82 83 84 86 83 83 82 81 81 80 85 89 92 92 84 80 81 79 79 81 85 87 84 92 95 90 69 67 66 62 67 70 70
37 35 32 35 40 40 42 50 62 75 84 87 90 92 92 93 90 87 88 93 92 91 94 96 97 98 97 92 90 89 92 98 91 94 94 95 82 80 67 66 66 68 67
39 38 37 42 40 43 41 38 36 36 38 40 42 47 54 63 71 79 87 90 85 81 86 92 96 99 100 100 100 98 93 99 98 97 90 93 95 95 94 76 71 69 70
39 37 39 42 45 45 45 42 40 38 36 34 32 32 34 36 39 46 54 59 57 61 64 66 70 79 96 100 100 98 99 99 99 98 93 92 96 100 99 98 86 79 73
40 38 41 49 56 54 50 48 46 44 44 43 41 40 39 41 44 48 50 50 52 58 62 64 67 70 88 99 98 100 100 99 100 99 96 98 97 97 98 99 95 93 85
42 44 59 71 64 60 56 55 53 54 54 52 52 54 56 58 60 61 62 64 66 68 68 71 79 88 99 98 99 99 100 99 100 100 100 100 100 98 96 94 92 91 92
47 54 63 69 70 64 62 61 60 61 62 62 61 62 63 64 66 68 70 71 71 71 70 72 74 78 88 99 97 100 100 100 99 100 100 99 100 100 100 99 99 92 96
57 61 75 76 73 68 66 64 65 67 69 68 68 70 70 70 69 69 69 68 67 68 69 70 72 72 74 78 89 92 99 100 100 100 100 100 100 100 98 97 96 99 92
68 81 79 78 72 68 68 68 69 70 73 73 73 73 73 73 73 72 71 70 69 69 69 70 70 71 72 74 79 85 95 98 100 99 99 98 99 99 95 95 99 100 98
79 83 78 76 70 69 68 69 71 71 74 76 76 76 76 76 75 75 76 77 78 78 76 75 74 74 75 78 83 87 98 99 99 98 95 96 98 92 95 94 94 95 98
80 78 78 80 74 71 69 69 70 71 72 74 74 75 76 78 80 81 82 82 82 81 82 82 82 82 82 84 90 98 98 98 98 98 98 99 99 94 92 91 91 90 90
82 78 79 80 76 71 69 68 69 70 71 73 75 78 81 83 85 87 88 87 86 86 86 87 88 90 93 96 100 99 99 99 99 97 96 95 93 91 90 88 87 88 88
78 76 79 79 77 70 68 69 71 71 72 76 80 83 87 90 95 97 97 96 94 87 86 88 92 94 98 100 98 100 100 97 96 94 93 92 90 89 88 86 85 85 86
80 76 76 77 78 73 70 69 70 74 76 80 84 88 94 95 95 96 97 99 99 98 98 96 97 94 98 100 99 99 99 99 99 100 99 100 99 98 91 82 80 77 76
73 73 73 76 77 75 70 69 72 75 78 81 84 90 95 96 98 99 99 100 100 99 99 99 99 100 100 100 100 99 98 98 97 93 92 90 89 90 96 93 90 77 59
71 73 71 70 73 72 68 70 71 75 81 82 87 92 96 99 99 99 100 100 99 99 99 100 99 99 99 98 87 87 84 75 62 56 55 58 57 54 54 57 56 76 90
69 68 68 70 67 66 67 66 71 76 81 86 89 94 97 99 100 100 100 100 99 100 99 99 98 91 93 82 50 46 43 43 47 52 66 76 82 85 55 55 62 72 81
60 62 63 62 62 64 67 71 79 81 84 86 89 93 95 99 99 100 100 100 98 90 79 79 78 78 82 81 47 45 49 55 64 67 64 63 76 83 74 49 59 69 70
60 59 60 62 64 70 70 75 81 84 87 87 90 95 98 99 99 99 99 99 94 82 75 78 76 73 81 84 49 47 50 52 54 55 74 91 81 78 80 48 52 64 67
65 59 63 66 68 71 74 83 85 88 84 88 93 97 100 99 99 100 100 98 85 76 76 74 71 73 80 86 77 51 45 46 49 49 51 52 79 76 82 55 74 82 79
76 69 71 73 74 74 78 85 87 82 87 91 94 97 100 100 100 99 99 98 83 76 70 61 59 57 57 75 83 89 64 59 54 51 54 60 64 75 76 71 82 96 81
73 71 72 80 81 80 79 84 82 87 91 96 98 100 100 100 100 100 99 100 88 77 75 60 51 46 46 57 73 87 81 75 52 52 53 80 59 75 54 64 88 86 72
71 69 72 80 85 82 82 77 81 88 93 99 100 100 100 100 100 100 99 94 82 79 64 50 42 37 39 40 48 58 58 50 54 51 56 58 51 56 56 64 78 73 67
66 66 68 70 73 77 80 81 82 92 100 97 99 100 100 100 100 98 98 78 60 49 44 39 35 32 32 29 32 41 44 45 48 63 71 60 44 46 53 60 64 68 72
65 68 67 66 68 70 74 81 86 93 100 100 100 100 100 100 100 99 100 78 61 56 50 41 33 27 27 30 30 35 43 73 88 88 77 69 61 47 46 53 57 62 71

GFSMW_925_rhum_084.txt.gz
RH
32 38 31 30 62 90 94 96 93 88 85 88 90 90 91 92 91 90 89 87 89 88 84 84 84 87 86 80 81 78 80 81 82 83 75 71 69 68 62 62 68 68 76
33 36 30 29 39 64 75 92 95 93 94 90 84 83 84 86 85 93 91 92 94 95 91 93 92 93 92 87 86 86 87 87 87 82 83 71 50 48 63 64 66 67 70
34 35 31 29 34 42 52 60 75 90 94 96 96 92 91 91 93 94 96 98 97 98 99 100 100 100 100 98 93 92 94 89 90 96 84 78 59 61 59 65 66 66 68
37 36 32 31 36 41 50 49 56 68 79 86 76 81 78 78 83 92 94 92 96 94 93 96 99 96 99 99 99 100 99 100 95 97 98 89 89 90 70 71 72 71 72
35 34 32 33 39 49 52 50 48 45 43 43 44 44 45 49 52 49 55 64 67 68 68 70 74 85 99 98 99 97 100 100 99 96 92 96 96 97 96 90 74 77 77
33 32 30 34 44 56 53 50 58 55 44 38 36 40 45 47 50 58 59 64 67 62 60 61 66 71 85 99 97 99 99 99 100 99 98 96 88 88 93 95 79 79 75
33 30 32 40 46 58 61 62 63 64 62 58 56 59 57 62 65 68 70 71 74 76 71 66 72 80 93 96 96 94 96 99 99 100 99 98 99 99 100 98 92 89 80
32 34 31 37 48 56 60 60 62 68 70 71 69 71 72 72 72 73 72 70 72 75 68 69 69 71 78 94 93 93 97 100 100 100 99 100 100 100 99 99 95 80 79
32 39 38 44 48 57 59 60 64 70 73 72 65 63 63 64 66 65 67 68 66 66 66 67 69 70 71 74 87 97 100 100 100 100 100 100 99 95 95 95 95 93 91
34 37 46 55 58 59 63 66 66 69 73 73 71 71 70 69 69 69 70 69 68 67 66 66 66 67 69 72 82 97 100 100 100 99 100 100 99 98 99 100 100 99 89
42 45 53 62 63 66 69 68 70 72 72 72 74 74 74 73 73 74 74 73 72 72 72 72 72 72 72 75 90 94 95 95 97 98 97 98 99 98 100 99 99 98 99
50 53 57 62 65 66 68 67 68 68 72 74 75 76 78 77 78 78 77 78 81 79 80 80 81 81 81 84 93 93 96 96 98 99 97 98 99 100 94 94 94 98 89
57 55 57 59 60 60 62 66 67 67 72 75 75 78 80 81 82 85 87 87 87 88 88 89 92 94 94 98 100 99 99 99 98 99 97 96 95 96 97 98 97 97 95
55 57 57 56 57 59 60 62 66 69 73 76 76 78 80 83 84 88 91 93 89 88 90 92 96 98 100 99 100 100 100 100 100 99 97 97 96 95 87 90 92 92 89
53 56 57 54 56 58 59 61 65 71 75 77 80 81 84 86 88 92 94 100 99 96 92 93 97 100 98 100 100 100 100 99 99 100 100 98 94 91 88 88 83 80 76
50 52 54 54 56 56 58 61 65 71 77 77 79 86 86 90 93 97 100 100 99 100 99 99 99 100 100 99 99 100 99 99 97 97 96 95 94 98 97 91 85 64 63
39 47 51 54 55 56 58 60 64 70 75 76 79 85 86 90 98 100 99 99 100 99 99 99 100 100 100 100 100 99 98 92 81 70 65 65 62 66 73 49 52 87 51
37 42 47 52 54 56 60 60 66 72 78 79 83 87 90 96 100 99 99 99 99 100 100 99 100 99 99 96 78 75 65 56 58 73 77 76 79 73 62 63 73 77 78
33 40 47 51 55 60 62 65 72 73 79 81 84 89 93 97 100 99 99 100 99 99 98 97 90 87 80 71 41 42 58 63 63 65 71 71 71 88 50 66 73 62 72
39 48 54 57 57 60 65 67 70 73 76 80 84 90 94 99 100 99 99 99 98 90 84 76 76 82 79 84 48 49 54 52 57 70 80 71 73 79 58 55 53 58 60
46 55 60 57 59 68 70 70 73 77 78 85 92 95 99 100 98 100 100 100 96 90 88 84 82 79 76 78 71 42 55 51 53 53 52 60 76 76 83 56 68 69 75
66 63 62 68 77 80 76 76 83 86 87 89 98 100 100 100 100 100 100 100 93 83 77 72 70 72 77 81 90 66 51 51 54 52 56 62 60 75 79 77 72 96 75
65 67 72 83 87 85 79 83 86 88 90 95 98 100 100 100 100 100 100 100 91 78 66 61 54 56 61 67 75 87 90 85 63 57 57 65 65 82 68 66 85 93 80
61 64 66 68 78 81 83 77 86 89 91 90 93 99 100 100 100 100 100 99 92 80 64 60 51 47 47 52 62 82 81 80 83 57 73 72 59 54 59 61 80 86 71
61 63 62 63 68 79 81 82 84 88 87 88 96 99 100 100 100 100 99 99 90 75 62 55 44 42 40 41 45 55 64 61 63 68 73 68 51 50 57 62 64 68 74
66 72 73 71 77 80 83 82 87 88 88 90 95 100 100 100 100 100 100 100 93 69 60 46 42 35 31 27 27 31 39 52 61 81 70 61 56 50 46 51 56 64 72

GFSMW_925_rhum_087.txt.gz
RH
27 33 32 28 46 72 71 74 74 80 78 82 85 86 86 82 76 73 73 72 75 76 78 78 76 75 76 75 75 75 76 76 76 78 76 73 72 67 58 58 56 59 66
24 33 32 28 28 60 74 76 78 76 80 79 80 81 81 81 81 82 87 88 86 85 87 83 81 82 83 82 80 78 80 80 81 80 81 79 56 47 46 58 61 62 64
22 27 32 32 28 41 58 74 81 83 86 88 86 87 89 89 89 88 88 90 91 93 94 95 95 93 91 91 89 85 83 84 84 88 85 77 66 58 53 63 63 64 67
27 24 31 32 32 31 46 52 66 82 92 96 94 88 89 87 78 79 87 92 89 92 96 99 98 99 96 94 93 92 91 91 97 81 88 88 78 79 75 56 69 71 73
32 28 32 34 35 38 52 49 50 58 63 70 73 79 81 68 69 68 67 66 71 70 72 74 77 90 99 98 98 95 93 88 89 85 84 89 83 85 86 83 71 66 70
30 32 32 34 35 47 55 49 49 51 52 51 50 48 45 44 46 50 52 55 63 69 61 60 64 71 84 95 98 98 95 95 98 96 96 91 84 86 88 89 85 78 75
27 30 32 31 33 49 58 58 52 56 57 55 52 50 50 52 51 57 59 60 62 72 75 63 69 76 85 90 97 98 94 93 99 99 100 97 92 92 87 86 87 89 81
26 31 33 31 35 49 60 58 55 56 60 61 63 64 65 64 65 67 65 64 66 70 71 71 69 71 72 78 94 100 90 91 99 98 98 99 100 98 99 95 94 94 87
25 30 36 37 36 48 54 53 54 59 61 64 65 64 64 65 65 66 66 66 65 66 65 69 70 72 70 73 80 96 98 99 98 100 100 100 99 98 97 92 93 92 90
25 26 33 43 40 46 52 53 55 61 63 64 61 64 66 67 67 68 68 69 68 68 69 71 71 73 72 74 81 95 99 98 98 100 99 99 99 97 99 99 95 94 89
28 28 32 47 49 50 55 57 58 61 63 63 66 66 68 70 69 70 70 71 72 72 74 74 76 76 77 78 84 86 90 91 95 97 95 96 97 95 98 99 97 94 96
39 38 38 49 55 59 62 60 63 63 63 64 64 67 70 71 70 72 73 73 76 76 75 77 78 80 82 83 83 84 87 87 90 94 94 95 96 97 96 96 96 96 90
44 43 45 50 53 59 60 60 60 59 63 65 64 67 69 69 69 73 76 76 77 78 79 81 83 86 91 92 92 92 93 94 95 96 93 93 94 96 96 97 96 94 93
41 43 46 49 50 52 56 58 60 62 65 65 64 66 68 70 71 75 78 80 80 78 80 82 86 95 100 99 98 97 98 96 96 94 93 94 96 98 92 89 88 91 88
36 43 47 46 48 51 53 54 56 60 66 67 69 70 71 73 76 79 83 88 90 89 86 84 89 99 99 99 99 99 100 100 99 99 100 99 91 91 88 86 82 79 76
32 39 44 45 47 49 51 53 57 61 66 67 69 72 74 77 81 84 89 94 99 97 96 94 95 98 99 99 100 100 100 99 99 98 98 95 97 99 94 79 72 63 69
32 32 40 44 46 48 50 52 55 61 65 66 69 74 75 79 83 89 96 100 99 99 99 99 98 99 99 98 99 100 100 98 96 93 87 76 80 70 56 45 79 39 38
30 33 32 40 45 47 49 50 55 59 66 66 68 73 75 81 88 94 98 99 99 99 100 99 99 98 99 99 98 97 89 75 71 73 71 69 69 59 59 60 70 73 74
29 29 30 35 44 48 50 52 56 60 68 68 72 75 80 84 94 98 100 99 99 100 99 99 99 98 92 82 63 57 55 57 57 62 69 67 69 72 42 66 65 63 72
32 32 36 38 44 49 53 55 58 63 66 69 73 78 81 87 96 100 99 99 100 100 99 97 96 83 74 71 43 50 53 54 60 66 68 63 70 81 45 57 56 57 60
36 39 46 46 48 53 56 59 61 63 64 71 79 83 86 94 97 100 100 100 100 96 94 89 80 75 71 75 76 42 51 47 50 51 58 65 62 71 76 53 58 59 66
57 52 54 53 56 62 62 63 68 71 74 79 87 90 94 99 99 100 100 100 100 94 83 75 70 70 71 73 85 68 48 53 51 51 49 52 58 66 76 62 68 81 65
58 60 67 77 77 75 68 71 79 82 85 88 91 95 99 100 100 100 100 100 98 88 76 66 59 61 63 68 77 90 84 58 60 54 54 60 56 71 76 78 67 87 86
56 59 63 68 74 71 71 70 79 83 85 84 87 91 98 100 100 100 100 99 96 85 72 59 54 48 51 53 60 72 87 87 85 62 48 58 73 67 69 63 68 84 83
56 56 54 57 62 68 70 72 77 79 80 78 81 89 98 100 100 100 98 99 98 90 75 58 54 47 45 42 43 54 76 73 73 71 69 71 65 60 62 63 64 72 75
59 61 64 62 66 70 74 78 80 80 76 76 83 90 98 100 100 100 100 99 99 97 86 65 56 45 39 37 44 54 60 65 62 68 64 63 58 48 46 48 53 59 64

GFSMW_925_rhum_090.txt.gz
RH
35 35 32 32 55 65 68 73 75 79 80 81 82 79 77 75 69 69 69 69 71 72 73 77 76 76 76 74 77 75 74 76 77 78 75 76 74 73 71 66 65 57 61
34 39 31 29 47 70 71 73 72 75 77 78 83 76 72 73 72 73 74 73 75 77 80 82 80 79 76 79 82 81 77 78 79 82 85 92 70 56 56 62 60 63 65
31 42 34 28 30 55 72 78 76 77 71 79 82 75 72 70 76 74 75 77 86 88 86 85 85 83 81 83 85 85 84 85 80 82 81 92 89 70 60 62 63 63 66
35 38 39 33 29 35 60 68 80 82 81 79 74 64 62 65 67 69 75 76 85 89 92 96 96 94 92 88 87 88 88 94 89 82 80 82 84 89 87 64 68 69 74
36 39 39 36 30 36 51 59 64 80 93 92 82 74 80 73 73 80 77 87 82 78 79 81 85 91 97 97 94 90 88 86 85 83 82 82 79 83 90 91 78 73 76
36 39 37 35 36 37 40 50 54 63 72 74 85 79 82 61 63 62 56 54 57 61 51 55 61 68 76 84 89 90 94 89 90 86 84 84 85 83 85 95 87 87 87
38 39 47 42 42 46 48 49 50 54 55 55 58 54 48 45 45 48 49 55 58 63 66 61 65 72 77 79 85 90 92 90 87 86 91 90 89 94 90 91 91 92 85
33 42 46 39 42 50 52 53 53 54 57 53 50 49 49 50 53 55 56 60 64 68 67 61 64 67 67 68 77 94 100 97 99 99 99 99 97 100 95 94 93 98 92
28 34 43 39 49 55 53 53 56 57 60 61 60 58 58 59 58 58 60 61 60 62 60 61 62 64 64 65 68 77 91 94 98 94 100 100 98 100 100 99 95 91 95
25 34 40 42 45 50 55 54 55 59 62 63 60 60 60 59 57 58 60 61 59 59 61 62 63 64 66 66 68 77 94 96 93 96 100 99 100 99 97 91 93 96 91
32 34 41 41 44 50 54 53 57 61 63 61 62 57 55 59 63 62 60 60 63 64 64 65 67 69 68 70 71 85 90 92 93 92 98 97 92 95 97 98 95 92 90
45 41 47 51 55 60 62 61 63 64 64 62 58 62 65 65 63 64 65 65 66 66 68 70 72 73 74 76 80 85 83 87 90 92 93 93 93 94 97 98 97 97 97
49 50 53 59 58 62 61 61 65 65 64 64 66 66 66 66 67 68 68 70 72 73 74 75 78 81 81 84 85 87 89 90 92 92 92 91 94 94 94 93 90 88 89
49 52 58 60 57 60 62 63 62 62 65 64 65 66 67 68 70 71 72 74 75 76 77 79 82 84 89 92 96 94 92 91 90 91 88 91 93 95 94 93 90 90 88
35 52 60 64 56 59 60 61 61 63 64 64 65 66 68 70 72 75 79 81 83 83 84 84 86 91 98 98 96 95 97 96 96 94 94 94 94 94 90 85 83 82 79
35 38 55 58 56 55 56 58 60 63 64 66 66 68 70 72 76 79 83 86 87 90 90 90 88 93 98 96 98 99 99 100 99 99 99 100 99 94 88 80 73 72 77
35 37 47 56 51 52 53 55 58 62 65 67 69 71 73 77 80 84 87 93 95 94 95 96 96 97 98 97 99 100 99 98 97 95 94 92 86 66 55 76 36 40 54
37 37 42 48 47 49 51 54 58 62 65 67 69 72 75 78 82 87 91 98 96 96 98 100 98 94 98 97 98 96 97 96 89 81 68 57 56 53 58 58 59 60 45
41 36 33 34 45 48 50 53 56 62 65 66 68 71 74 80 84 90 94 98 96 97 99 99 98 96 95 100 97 86 76 68 63 66 70 69 74 50 52 54 67 66 55
50 40 36 35 44 48 50 52 58 62 67 67 69 72 77 81 87 94 99 99 99 99 100 99 97 95 80 83 64 55 55 55 55 55 57 64 70 68 43 52 57 59 59
56 47 41 46 43 50 52 55 59 62 65 68 71 75 79 83 88 96 98 100 100 100 99 98 95 85 77 74 68 44 50 48 51 57 65 63 60 74 48 51 52 57 57
59 57 58 63 56 53 54 58 62 64 65 69 73 78 82 88 92 98 100 100 100 100 95 91 81 73 68 70 82 76 50 50 48 48 48 49 66 65 71 52 69 65 66
61 69 73 73 69 64 61 67 72 68 69 74 82 86 91 94 96 97 100 100 100 99 93 81 73 70 67 64 81 83 72 58 50 50 49 53 55 52 72 79 75 88 67
62 68 74 80 78 71 70 71 76 77 79 84 89 93 96 98 99 100 100 100 99 96 88 74 67 60 58 57 59 85 88 89 76 61 54 50 51 54 60 68 72 74 78
59 58 63 69 71 71 70 76 79 81 82 84 88 92 93 98 99 99 99 99 99 97 88 75 65 55 50 46 42 43 58 80 80 75 66 66 72 61 56 60 56 52 68
61 63 62 65 68 69 71 72 75 76 78 80 83 87 90 96 99 99 99 100 100 99 99 82 62 56 49 41 43 55 64 79 77 80 72 65 62 59 50 50 54 55 66

GFSMW_925_rhum_093.txt.gz
RH
44 38 39 62 62 70 71 77 79 83 78 80 80 83 76 73 72 70 67 66 66 64 73 75 77 75 72 72 71 73 74 74 76 78 76 78 76 70 64 71 72 74 71
47 45 35 37 53 62 73 80 81 81 83 83 83 86 79 75 75 72 68 71 76 75 76 77 77 75 76 78 81 79 80 76 76 83 86 89 72 64 62 63 68 67 67
44 51 40 33 48 65 71 75 76 77 80 83 83 84 82 76 70 69 69 70 71 75 75 74 78 80 76 76 76 82 84 86 76 66 75 89 92 81 66 68 67 66 66
44 47 41 34 37 62 69 74 76 74 76 79 79 74 71 75 70 66 68 72 70 64 58 57 60 59 84 81 83 86 88 93 80 69 70 76 82 91 87 71 72 70 71
39 48 41 32 30 51 62 74 82 86 81 80 77 70 70 66 64 66 69 72 72 74 69 45 58 95 94 91 91 89 86 82 87 84 88 85 86 86 89 91 80 82 80
39 43 41 36 33 36 55 69 69 83 91 89 77 72 65 66 74 83 86 88 84 73 57 50 49 62 73 76 80 82 87 89 88 82 94 95 89 88 85 91 87 86 94
42 48 56 48 42 46 52 53 58 70 79 82 92 89 87 73 80 84 77 67 60 56 51 46 50 60 64 68 73 77 85 89 87 89 88 92 94 97 93 88 92 92 98
40 51 51 47 44 44 44 46 50 55 58 60 67 61 66 64 59 54 47 50 54 58 61 57 56 58 60 60 64 72 83 89 98 98 96 94 97 99 99 95 92 98 98
37 52 54 48 46 45 45 47 51 54 53 51 51 54 54 51 52 56 56 56 60 63 62 57 56 55 57 57 58 63 78 92 90 92 99 98 98 100 98 98 96 89 98
35 46 52 51 47 48 48 51 52 54 59 59 60 60 60 60 58 55 55 55 54 55 56 53 56 61 58 59 60 63 83 95 88 90 90 100 99 99 99 98 97 96 88
46 43 46 49 54 56 55 54 56 60 61 61 62 61 61 59 56 55 55 57 59 56 54 62 64 62 63 64 65 71 83 92 94 90 91 96 98 96 97 97 95 95 94
51 51 53 55 54 58 57 56 61 62 65 62 55 65 60 57 57 60 63 61 58 61 66 67 65 68 69 70 72 79 86 86 90 93 90 90 92 94 91 92 98 94 91
51 56 67 65 64 66 64 62 65 65 64 62 59 59 63 69 64 56 54 63 65 68 70 70 71 72 74 77 80 84 87 87 90 92 92 92 91 94 94 94 95 97 94
57 60 64 70 65 66 66 66 68 66 67 70 72 72 72 68 64 64 62 66 71 71 71 72 73 76 79 83 88 91 92 91 90 88 88 86 90 93 95 94 92 89 90
60 62 65 71 65 66 65 68 68 68 66 65 66 65 66 67 67 67 71 73 75 77 78 79 80 83 88 94 96 94 94 92 90 89 89 88 93 97 93 90 87 88 90
40 55 62 66 67 64 65 66 65 65 64 64 64 65 68 70 69 72 76 78 79 81 84 86 88 90 90 95 94 95 97 98 97 95 96 93 95 94 90 82 77 78 81
40 41 54 63 62 61 60 64 63 64 64 64 65 68 69 71 75 78 80 82 85 88 90 92 92 93 92 93 96 98 99 100 100 99 98 97 91 87 83 80 72 67 69
41 41 43 54 57 57 60 60 61 63 64 65 66 68 70 73 78 81 84 88 90 92 94 95 94 93 93 96 96 98 100 99 97 94 91 86 72 54 51 48 40 39 49
54 51 42 38 54 55 58 58 63 63 64 67 69 71 72 75 80 84 87 91 94 94 92 97 100 95 93 95 99 94 96 92 83 74 67 62 56 52 57 55 59 61 65
60 58 47 41 46 55 56 60 65 66 67 67 69 71 73 75 80 82 88 93 98 93 98 99 99 97 92 98 99 76 67 63 59 65 68 65 70 63 56 53 61 57 52
62 56 54 55 47 56 59 63 67 68 62 64 68 71 73 76 80 87 92 98 98 100 100 99 98 97 90 77 81 68 52 52 54 52 56 66 80 85 55 50 54 52 54
65 73 72 76 67 62 59 64 66 61 63 66 70 73 76 81 85 90 98 99 99 100 100 100 98 94 84 75 84 80 65 47 48 47 50 57 69 68 77 56 60 69 57
73 76 76 72 68 66 61 63 64 65 66 69 73 76 81 84 89 93 96 100 100 100 99 98 91 82 71 70 77 84 78 61 54 47 45 44 69 68 72 71 78 83 68
70 75 76 78 75 68 65 63 67 67 67 72 77 82 85 91 93 96 99 100 100 100 99 95 87 79 71 66 62 84 84 74 75 51 55 62 68 63 65 67 82 74 83
64 69 75 78 76 73 74 74 73 72 74 77 82 87 91 96 96 97 98 98 98 98 97 94 87 76 66 56 49 49 76 85 83 70 60 60 67 72 69 69 67 71 71
65 67 71 72 74 73 76 77 77 77 78 84 90 93 94 98 98 99 99 99 100 100 99 98 91 79 69 55 45 44 44 52 73 96 84 72 63 66 62 54 54 55 51

GFSMW_925_rhum_096.txt.gz
RH
50 48 63 72 73 70 68 75 77 78 80 83 78 81 82 80 72 68 67 64 66 70 71 75 76 75 70 70 70 74 76 74 73 81 79 74 65 63 71 68 71 79 77
46 48 44 65 73 71 72 74 68 66 67 70 73 82 81 81 74 72 68 70 70 71 73 76 79 80 79 79 79 82 83 84 80 79 82 88 71 64 68 65 68 78 76
46 53 48 42 64 76 66 70 70 71 73 73 80 84 87 83 82 73 77 72 76 74 74 74 77 76 81 80 81 83 90 83 81 69 74 85 93 84 71 70 72 73 71
44 49 50 43 41 60 70 71 70 75 76 81 86 84 91 91 82 73 68 70 70 72 74 78 74 73 57 62 58 85 87 88 83 76 64 67 75 90 84 78 77 77 76
48 49 52 43 36 41 70 84 87 86 88 82 83 83 81 74 74 75 71 72 73 76 78 72 59 62 52 58 69 88 87 85 86 82 77 78 79 83 89 94 92 88 85
47 50 42 40 37 34 46 75 85 87 86 84 89 85 71 73 76 77 78 79 79 77 67 76 81 72 73 77 67 76 78 84 89 88 85 83 90 92 96 98 90 91 96
46 49 57 51 42 36 34 57 72 84 92 96 94 83 68 78 77 76 79 89 86 87 79 67 57 48 47 46 50 60 72 76 79 80 86 85 82 100 98 91 90 96 100
48 50 56 50 44 40 42 58 68 71 83 88 92 95 93 91 88 83 86 89 84 70 57 51 48 45 54 46 56 66 73 79 85 88 96 98 100 100 98 99 95 99 100
41 48 60 50 47 44 49 51 55 60 66 65 65 74 82 87 86 81 75 71 68 66 56 51 46 49 49 52 57 60 63 78 89 86 85 92 93 97 97 98 92 95 97
42 59 66 55 53 46 44 47 49 51 53 54 56 59 61 65 68 67 64 62 61 62 61 54 57 60 59 59 59 57 62 78 94 93 89 91 98 96 99 100 100 97 93
45 49 61 55 49 52 51 53 53 53 57 58 59 59 61 60 60 59 56 54 55 56 57 59 58 56 58 59 57 61 66 77 93 89 91 92 98 99 100 98 97 98 97
50 52 57 56 60 61 59 57 57 58 61 62 61 59 58 56 52 52 55 56 51 48 54 56 56 58 56 60 64 66 72 81 87 90 90 90 94 94 95 94 92 94 95
55 60 65 62 60 62 65 64 62 64 65 64 61 60 60 56 54 56 53 60 66 65 65 62 58 61 64 69 73 74 80 84 84 90 94 95 91 87 88 86 91 97 97
55 59 66 72 63 63 65 67 67 67 66 66 67 69 70 67 59 63 72 74 73 68 67 62 65 67 71 74 79 85 88 90 91 92 91 91 87 88 92 95 94 95 94
60 62 62 70 70 68 68 68 69 71 68 66 65 63 66 71 74 70 70 69 69 69 68 68 71 74 79 81 87 93 94 93 90 88 86 87 84 89 93 97 94 91 92
51 60 61 65 68 68 66 67 69 72 70 70 72 73 72 69 68 69 69 71 73 72 74 78 80 83 87 90 92 94 95 96 95 93 92 92 94 94 93 90 88 90 91
44 46 56 62 60 58 59 65 68 70 71 70 69 69 68 69 70 70 73 76 78 82 85 86 89 90 91 91 91 95 97 100 98 98 97 95 93 94 91 87 83 80 84
43 45 47 45 51 54 59 62 67 69 69 69 68 69 70 71 73 76 78 81 84 85 86 89 91 91 92 95 96 92 100 100 100 100 98 95 90 77 75 56 64 58 59
56 56 53 50 44 52 57 64 70 68 70 69 68 68 70 72 75 78 83 86 86 87 88 90 92 94 92 98 91 92 99 100 98 94 89 78 71 54 56 54 46 56 59
65 65 58 54 51 44 61 66 71 70 71 68 66 67 69 72 76 79 83 85 89 93 95 97 98 99 95 94 98 97 94 92 84 77 69 67 62 60 78 58 61 61 70
65 65 68 68 62 57 65 68 72 70 65 64 64 67 71 73 74 79 84 88 93 99 100 97 97 99 96 92 99 93 68 63 58 58 63 65 76 83 71 55 54 52 48
73 78 78 76 67 67 67 71 71 65 64 65 66 69 72 75 77 81 89 94 97 99 100 100 100 99 98 92 84 82 72 49 50 51 49 52 70 83 80 70 48 56 55
77 80 80 78 78 74 71 73 71 67 64 67 69 71 74 77 81 87 93 98 100 100 99 100 99 97 95 89 84 86 86 75 59 47 46 46 59 82 82 80 80 83 70
74 78 79 80 81 76 71 67 68 65 65 69 73 76 79 84 88 93 95 94 99 100 100 100 99 95 90 78 68 80 84 84 69 60 48 48 53 87 84 76 79 81 82
70 75 80 82 82 79 74 71 69 68 70 74 79 82 85 91 94 95 94 98 99 99 98 98 96 95 90 82 72 62 66 82 75 67 60 68 80 80 74 67 66 80 78
68 72 74 75 77 78 81 81 78 76 76 80 85 87 90 94 95 96 97 99 99 99 99 100 99 95 94 87 75 56 51 57 82 95 80 63 60 61 60 62 59 63 67

GFSMW_925_rhum_099.txt.gz
RH
54 59 77 87 82 77 76 68 68 73 76 81 83 81 79 77 76 68 64 65 63 63 66 69 72 73 73 72 72 74 74 77 76 81 74 72 72 70 74 70 64 69 79
51 53 51 65 83 86 75 74 75 69 74 71 76 82 80 80 80 76 69 66 64 66 70 71 73 75 74 71 73 79 80 83 82 81 79 88 75 66 69 67 67 81 82
49 47 54 47 56 75 79 70 74 74 75 80 80 86 80 83 87 82 78 70 70 70 72 73 76 78 84 80 76 76 76 79 79 80 74 87 92 84 70 74 79 77 78
52 46 50 51 46 60 66 68 73 63 76 80 81 82 83 88 83 78 73 79 75 77 77 67 70 69 70 75 69 75 66 73 62 78 72 73 71 88 88 81 80 80 77
53 50 48 42 40 40 62 75 82 85 82 82 83 86 85 84 84 81 77 68 79 76 74 73 73 72 73 75 72 66 74 85 93 89 86 82 79 77 93 94 96 88 86
49 51 43 39 43 41 41 65 78 81 78 80 86 90 92 85 90 90 92 88 95 98 98 99 94 83 75 71 72 87 97 94 82 84 91 93 88 89 91 99 94 92 96
42 52 51 53 44 44 40 41 69 80 85 92 93 98 96 92 85 86 85 89 100 100 97 93 86 79 75 67 62 62 65 70 65 68 79 85 94 94 96 97 94 97 100
50 53 52 49 45 41 40 39 44 69 86 96 98 100 100 100 99 93 91 90 96 93 85 80 76 57 48 43 44 50 68 72 73 74 88 93 95 99 100 100 96 98 100
46 50 54 47 44 44 41 38 44 66 77 84 90 92 91 94 98 98 97 97 94 88 81 79 70 57 52 48 52 55 54 59 67 83 90 87 85 96 89 94 99 99 96
51 63 61 56 47 44 47 51 57 68 71 71 68 68 72 85 90 94 93 93 89 82 73 69 61 52 47 48 49 50 54 59 64 84 92 90 88 92 89 95 97 99 100
46 59 68 62 59 57 56 57 58 56 58 57 57 60 65 72 76 74 74 70 67 64 59 52 46 47 51 54 57 57 58 62 67 82 93 88 91 97 89 97 100 100 100
49 53 63 65 63 59 56 53 55 55 55 56 58 60 61 64 64 64 64 62 54 50 53 54 54 56 59 58 62 65 68 72 77 82 88 93 91 93 98 99 98 97 96
53 57 61 61 61 64 61 57 56 58 63 66 64 65 64 63 62 60 57 55 51 54 54 59 64 64 67 67 67 69 68 72 79 83 89 93 96 89 87 88 90 92 94
54 58 63 67 62 59 62 66 65 65 66 67 66 64 62 60 59 59 59 61 61 68 73 67 62 64 68 70 71 70 75 81 85 88 90 91 89 87 85 88 92 94 98
52 58 59 60 64 65 64 68 68 67 68 68 66 63 62 62 63 66 74 77 72 64 59 62 66 70 71 76 79 80 87 91 92 89 87 84 84 87 85 86 90 97 97
44 48 60 62 61 62 63 68 70 71 72 70 69 69 70 69 70 78 74 68 66 63 64 68 74 77 79 81 85 90 93 94 94 93 92 91 93 93 93 93 94 96 96
45 45 48 60 56 53 52 61 69 73 75 72 70 70 72 78 78 72 68 69 69 71 75 78 79 81 84 86 88 94 93 96 98 98 97 96 94 96 95 93 87 88 90
46 46 49 47 43 46 51 55 65 72 78 78 77 78 76 73 71 70 72 74 76 77 77 80 85 88 89 89 97 92 87 98 100 100 100 98 94 91 88 82 79 75 75
56 59 58 56 53 49 44 60 68 71 76 77 74 72 71 70 72 74 75 78 80 82 84 87 89 90 91 93 100 97 88 97 99 99 97 94 92 77 63 52 46 50 48
66 67 62 60 57 50 52 68 73 76 76 73 71 69 70 71 72 73 78 82 86 86 89 90 93 95 94 93 96 100 91 95 96 93 88 78 64 55 77 64 56 56 64
68 73 75 76 71 71 66 74 76 75 69 70 70 70 70 71 71 76 82 84 86 90 98 98 97 97 96 96 94 99 92 90 87 82 74 67 72 68 75 84 62 57 53
75 79 80 79 76 74 77 78 77 71 70 70 70 71 72 75 76 78 82 88 92 96 98 99 100 98 97 97 95 99 96 67 52 48 46 47 57 91 88 77 58 71 64
78 80 81 80 81 79 79 80 79 75 71 69 70 72 75 78 79 81 86 93 96 98 99 99 99 94 96 96 94 87 89 81 77 56 45 48 53 65 84 82 67 76 77
79 81 80 83 86 82 79 76 76 73 71 73 75 77 80 83 83 86 87 91 96 99 100 100 99 97 96 95 92 85 86 86 87 77 60 50 54 62 80 78 84 84 84
75 80 83 85 89 83 81 80 77 73 73 75 78 80 82 84 86 89 89 93 94 95 99 98 97 98 96 92 92 84 69 72 80 84 71 59 69 74 88 83 75 80 80
74 77 79 79 83 82 82 79 77 75 75 80 84 84 87 89 90 93 96 97 97 96 98 99 99 97 96 96 94 87 78 66 61 90 84 72 61 70 75 76 68 64 70

GFSMW_925_rhum_102.txt.gz
RH
62 76 99 92 79 70 70 72 73 60 77 99 100 90 90 82 78 76 73 73 73 72 66 68 71 72 73 71 72 72 75 76 78 81 78 72 70 70 66 65 64 61 70
51 49 65 94 99 90 82 71 74 73 76 87 80 82 77 81 74 72 72 72 70 71 67 67 72 72 74 74 76 76 77 83 81 83 85 89 76 68 67 63 60 70 79
53 50 51 58 80 89 65 64 75 80 73 70 71 79 90 79 79 81 76 70 70 70 68 68 71 74 76 76 80 85 82 66 78 75 73 91 90 84 74 72 70 78 81
56 54 48 50 52 64 74 76 70 78 75 67 68 65 66 71 72 73 68 68 75 77 75 77 78 79 70 70 73 78 77 70 69 65 68 61 75 90 90 83 80 78 80
57 54 53 41 40 44 48 71 82 83 85 88 66 64 64 82 81 81 82 88 90 87 87 89 91 94 94 88 82 84 75 70 86 100 99 92 85 83 91 94 97 88 81
54 54 45 41 38 38 42 50 76 82 84 65 80 84 78 84 87 89 90 91 98 98 97 100 100 100 95 98 92 73 70 76 85 82 84 97 98 94 93 99 97 94 93
46 53 55 53 42 37 37 44 55 75 81 91 94 92 89 94 93 93 95 96 100 100 100 99 100 95 86 86 89 80 73 72 75 74 75 80 83 96 100 100 97 98 99
42 45 52 50 43 38 38 42 47 57 72 80 86 93 100 99 98 99 96 93 95 100 100 97 95 85 79 73 55 48 51 55 59 61 65 74 87 98 99 98 98 94 100
49 53 54 49 45 42 37 38 45 52 67 88 98 99 99 99 98 99 100 99 99 99 94 87 79 71 59 48 50 48 49 49 55 57 68 78 80 85 87 98 95 99 91
56 65 61 52 53 48 46 47 47 48 58 79 89 90 85 83 86 92 95 99 100 94 87 87 79 68 62 54 50 49 51 54 56 59 74 88 91 89 86 91 95 100 100
51 65 72 66 61 58 55 53 53 59 70 73 72 69 70 76 86 94 98 100 98 95 87 74 63 55 52 53 52 53 54 54 58 66 77 88 90 87 91 96 94 99 100
52 61 72 73 70 66 62 60 63 62 60 59 59 62 66 74 81 84 87 90 85 76 65 56 52 55 55 53 57 59 62 64 66 72 78 84 91 94 94 95 96 98 99
54 61 63 67 68 69 66 63 62 61 61 60 60 64 66 69 72 73 72 69 64 58 56 54 54 56 58 61 61 64 69 74 78 80 84 89 93 95 94 85 88 93 96
53 54 56 60 60 62 66 68 67 65 65 66 65 64 65 65 65 65 63 61 60 59 61 64 65 66 68 68 66 68 72 75 80 85 89 91 90 86 86 80 83 86 92
45 54 55 55 57 58 59 60 65 69 70 70 69 66 65 64 63 62 62 62 66 76 74 67 68 71 66 66 72 76 79 84 89 91 89 86 84 85 86 87 81 84 94
44 44 46 59 60 55 56 59 62 67 71 72 71 70 68 66 65 65 70 78 74 68 65 70 70 68 70 76 82 86 87 91 94 92 91 90 90 90 93 95 95 94 98
48 47 47 48 51 55 54 53 60 67 73 75 74 73 74 74 74 75 77 74 69 69 71 72 70 72 77 83 86 89 89 88 94 96 96 95 93 93 95 95 93 93 98
54 48 50 51 48 48 50 56 60 68 74 77 77 77 77 75 78 80 75 71 73 75 75 75 78 81 84 85 90 92 85 84 92 98 99 99 96 92 91 87 85 81 77
56 61 61 61 58 55 54 55 66 71 77 77 77 76 77 81 82 77 74 76 78 79 79 80 81 82 86 89 98 99 90 86 92 98 99 98 95 91 83 64 52 52 55
67 68 63 63 62 59 61 61 65 77 78 75 77 78 79 77 74 73 76 78 79 79 81 81 85 90 90 92 93 99 96 89 92 96 95 93 87 66 73 74 55 53 58
68 72 75 78 77 74 74 75 75 76 69 73 76 78 76 74 72 75 78 79 83 85 86 91 94 94 92 91 93 97 99 94 90 89 86 79 72 85 76 79 76 58 58
75 76 82 81 80 78 79 83 83 79 76 75 76 76 75 76 76 77 82 86 88 92 95 96 99 97 91 93 94 93 100 97 72 56 48 46 48 62 91 79 76 60 78
80 80 84 83 82 82 83 83 79 78 77 76 77 77 78 78 79 80 84 91 93 92 95 98 99 94 94 93 95 99 98 100 90 74 60 44 47 52 88 88 82 78 81
81 84 84 87 89 87 84 82 81 81 80 79 80 80 80 83 83 84 86 88 92 96 98 99 99 97 94 93 94 94 96 97 91 89 82 65 52 53 63 81 82 81 82
77 82 86 91 93 88 85 84 83 83 81 80 81 84 85 86 88 87 86 88 88 90 93 95 100 98 95 91 92 92 90 80 76 86 86 75 58 60 63 74 74 76 80
76 79 82 84 87 87 88 85 82 79 78 82 85 85 87 88 88 91 95 95 93 92 93 95 98 95 95 94 94 94 94 87 74 92 87 81 73 59 60 66 74 72 70

GFSMW_925_rhum_105.txt.gz
RH
85 93 84 77 77 76 48 47 45 52 81 98 100 100 92 90 77 70 66 70 73 73 77 75 74 74 72 70 70 71 73 77 83 84 83 77 74 73 69 62 57 55 62
65 81 99 90 70 70 69 70 49 54 77 90 81 78 82 90 85 76 74 79 78 74 76 74 71 71 72 73 75 75 80 83 85 80 84 74 72 74 72 63 60 60 64
48 53 73 99 97 84 72 68 60 67 75 73 75 67 84 94 94 86 96 88 85 76 72 74 72 73 74 76 78 79 86 94 84 70 72 83 72 77 76 74 72 72 68
52 52 58 59 86 95 83 68 67 76 73 79 92 73 85 92 92 78 72 89 80 88 81 73 75 76 80 84 91 98 85 81 82 73 75 86 80 79 77 83 79 79 80
52 49 50 44 45 62 79 84 91 69 74 99 98 97 96 86 83 65 97 82 80 85 84 81 82 82 88 96 95 90 91 90 86 79 86 94 91 90 88 85 92 90 83
53 50 45 43 44 44 50 62 82 85 69 75 76 97 94 91 90 77 78 73 75 93 94 96 97 99 100 100 100 90 86 90 89 95 92 95 87 88 88 90 90 90 90
47 49 48 49 44 44 42 47 52 75 74 63 77 87 75 62 71 78 86 100 100 100 99 99 98 98 99 100 96 90 83 86 90 76 67 72 82 94 98 94 82 92 89
46 46 47 47 40 37 40 44 52 60 79 85 89 88 88 83 88 95 97 98 94 98 100 100 100 100 100 99 92 90 85 69 61 65 68 74 86 94 98 89 86 83 92
48 45 45 46 42 38 36 37 46 58 70 82 97 100 97 99 99 100 99 96 92 97 100 99 99 100 93 82 67 53 51 54 55 61 63 74 84 86 88 94 100 93 82
57 64 56 52 50 44 41 43 45 52 62 76 92 99 100 100 98 94 94 98 98 100 100 99 91 79 66 56 54 51 51 54 55 56 64 73 81 86 86 87 92 100 96
56 70 72 70 58 54 50 48 50 54 59 72 85 91 88 84 84 88 96 100 100 100 95 86 80 70 64 57 53 52 52 52 55 60 66 73 80 84 87 90 96 98 100
54 64 74 77 75 66 61 59 60 59 64 71 74 72 71 76 86 95 100 99 100 96 92 87 74 62 57 55 53 55 58 57 57 61 65 72 80 88 91 92 96 90 97
56 57 59 66 76 74 71 71 70 69 70 68 66 65 65 73 82 88 97 100 98 91 76 64 58 57 58 60 61 59 60 62 65 67 75 82 87 93 94 92 84 82 90
54 53 53 59 66 68 70 66 65 64 62 62 61 62 68 73 77 80 82 80 74 66 62 61 61 63 65 62 61 63 67 70 73 78 85 88 90 87 84 85 85 81 82
45 45 50 54 57 61 66 69 69 66 64 64 65 66 69 70 72 71 69 65 62 62 64 70 72 67 65 66 68 74 76 75 79 86 88 87 86 85 88 87 86 85 82
50 47 44 45 52 53 55 61 68 72 73 72 72 72 71 69 68 66 64 64 68 77 74 68 66 70 72 79 80 77 77 81 88 91 90 89 88 88 90 93 93 94 95
53 50 48 48 48 48 49 53 58 66 73 76 76 75 72 71 70 69 70 77 77 71 69 70 72 73 79 84 84 82 79 82 87 93 92 94 92 92 91 93 93 93 97
55 53 50 53 54 53 52 51 56 63 71 75 77 77 74 73 74 75 78 78 74 70 71 74 76 78 82 84 87 84 81 81 85 92 96 98 96 92 91 88 84 83 79
61 65 65 66 63 61 58 57 55 64 76 78 78 79 78 80 80 80 80 78 74 76 76 77 79 82 83 87 100 93 86 84 86 92 97 98 96 93 89 80 60 55 60
69 69 70 70 68 68 70 68 62 67 72 73 77 80 80 79 80 82 80 76 76 77 79 80 84 86 86 86 96 99 95 91 89 91 94 94 93 83 71 81 67 54 55
72 75 75 79 79 77 76 75 76 71 62 71 79 81 81 80 82 84 81 80 84 84 87 86 86 87 88 89 92 99 98 96 89 88 88 85 81 84 73 79 75 65 58
76 78 80 80 81 82 84 84 85 74 73 76 79 84 86 86 82 80 82 85 87 91 92 93 99 98 94 90 91 93 98 99 96 75 65 52 50 57 82 84 76 68 73
79 81 84 84 83 86 88 88 83 82 82 84 84 85 83 80 79 79 84 93 94 92 92 95 98 92 90 88 89 90 94 99 99 90 65 52 42 48 70 93 85 83 82
81 84 85 90 90 90 91 91 87 87 88 87 86 85 83 85 84 85 85 87 92 93 94 96 98 96 92 91 90 90 93 99 100 97 88 81 62 48 52 72 83 85 75
80 83 88 92 94 89 88 88 88 87 89 89 89 88 87 86 88 88 86 87 86 85 89 88 90 96 92 88 89 88 90 91 93 93 92 84 74 58 60 68 77 74 78
79 81 84 86 90 90 88 86 85 84 84 86 89 90 90 90 91 93 95 94 95 92 90 90 92 91 90 91 92 91 92 93 90 95 86 84 80 72 59 61 67 72 69

GFSMW_925_rhum_108.txt.gz
RH
86 90 96 97 91 86 76 100 88 96 100 100 99 100 92 85 83 78 76 79 86 87 89 86 83 83 78 75 75 71 72 76 82 82 76 75 76 74 74 71 67 71 74
87 92 96 98 93 92 90 81 84 98 88 99 99 100 100 98 94 90 85 85 86 88 93 90 84 83 78 75 76 75 76 79 82 78 83 68 56 68 69 70 70 71 79
72 77 75 88 77 91 79 79 81 97 98 97 94 79 78 87 93 99 99 91 90 95 99 97 92 90 89 82 82 87 86 79 82 76 88 76 62 58 65 72 71 73 76
52 58 74 86 84 92 76 69 61 85 94 85 85 84 71 80 92 72 78 76 66 79 80 94 94 99 89 77 84 89 92 85 85 88 85 79 73 66 63 74 76 76 75
50 50 48 61 90 65 71 82 69 80 64 65 48 67 96 83 88 91 82 68 59 72 66 85 94 100 95 90 88 93 96 87 77 82 95 92 85 85 76 65 56 80 79
44 43 50 54 59 84 86 81 76 77 79 87 76 86 91 91 94 84 91 69 71 63 70 84 98 100 100 93 94 97 94 92 81 98 97 92 80 63 65 63 62 63 73
39 40 41 43 44 56 66 86 91 89 76 77 89 73 88 94 92 89 88 86 96 94 95 99 100 100 100 95 98 100 99 91 84 92 95 92 84 80 76 74 73 67 71
35 35 35 38 42 47 51 56 65 76 94 98 92 88 72 83 100 97 89 97 94 95 100 100 100 100 98 100 100 100 99 92 90 88 74 76 91 93 90 80 74 70 64
34 35 35 36 39 40 45 47 55 61 78 100 99 100 82 100 100 100 100 100 100 100 100 100 99 100 100 100 100 98 90 86 72 65 88 86 88 91 91 89 94 79 68
42 42 43 35 35 37 41 47 50 61 71 91 100 100 100 99 100 100 100 99 100 100 100 100 100 100 100 98 91 81 67 63 63 60 70 84 88 90 89 89 84 92 87
47 50 51 51 47 46 48 50 52 60 74 94 100 99 99 100 100 100 100 99 100 100 100 100 99 94 82 69 60 58 56 65 67 68 79 82 86 81 84 88 88 90 94
48 50 54 56 56 54 55 56 59 63 71 85 94 97 97 94 94 92 98 99 99 100 100 96 86 75 65 62 58 58 63 67 70 74 76 77 81 87 88 86 87 94 98
41 41 46 51 55 58 62 63 66 70 78 81 81 85 85 87 93 98 99 100 100 99 93 85 77 71 63 61 62 65 65 67 73 77 79 83 86 85 87 91 90 89 90
40 39 40 44 52 58 60 64 69 71 75 75 74 75 80 83 87 92 99 98 99 95 88 78 69 63 60 62 63 64 66 67 71 70 78 86 87 88 92 92 90 89 85
38 36 38 38 42 48 57 65 68 71 71 71 72 74 77 78 80 85 91 92 85 78 72 66 63 63 66 65 64 66 70 77 84 88 91 92 88 83 89 91 87 89 89
40 39 37 35 42 44 50 62 67 72 73 71 72 72 75 80 81 80 78 77 76 73 68 70 72 72 66 64 64 67 80 81 91 94 95 94 86 87 89 89 90 96 96
44 42 39 37 39 43 52 53 62 69 72 73 75 76 77 76 79 80 80 80 78 75 80 76 72 79 82 71 75 78 86 88 91 95 97 94 90 89 92 89 90 92 94
44 42 42 48 52 52 51 58 66 69 76 74 76 78 77 78 80 80 80 82 82 84 80 76 77 77 85 80 83 81 78 81 94 94 96 95 93 90 89 87 85 84 82
49 53 55 57 59 59 60 58 58 66 74 76 78 80 80 79 80 82 85 82 84 81 76 73 73 77 87 85 96 86 90 86 89 93 94 96 95 92 91 85 72 64 59
57 59 63 63 61 66 70 68 59 60 63 69 80 84 83 81 83 88 88 85 80 74 77 80 87 90 88 84 100 99 90 83 88 90 90 92 93 91 85 89 74 64 62
69 69 67 67 72 76 78 71 68 67 65 74 84 88 90 89 91 86 86 85 81 85 93 93 92 90 88 92 96 100 97 91 87 88 88 88 86 89 82 79 77 71 66
76 78 74 77 83 87 86 78 78 82 82 81 86 92 93 92 90 89 91 91 97 99 99 99 95 93 95 91 89 97 99 98 92 84 80 77 73 69 73 85 78 69 62
70 75 79 84 88 89 91 85 84 87 88 86 88 92 93 92 94 98 98 100 100 100 95 86 88 92 96 92 87 97 99 99 100 95 73 48 38 41 50 88 83 81 83
71 77 77 76 79 87 90 91 90 90 89 85 87 90 90 90 95 99 98 99 100 89 83 84 88 89 94 95 95 98 100 99 100 99 91 81 75 53 61 68 92 86 80
74 78 79 83 86 88 89 91 92 90 88 88 90 91 91 96 100 99 97 96 90 86 83 88 88 89 94 86 85 88 93 97 100 100 98 92 83 75 68 74 76 81 86
78 79 84 87 85 86 89 88 87 89 86 90 93 95 96 97 99 98 97 94 91 88 87 90 90 91 88 86 86 87 89 91 92 98 92 86 82 76 66 62 67 76 79

GFSMW_925_rhum_111.txt.gz
RH
72 80 88 96 94 88 100 100 98 87 87 89 84 78 70 71 72 81 84 82 75 77 77 78 74 72 70 70 70 69 64 68 70 73 73 70 65 66 64 65 60 62 70
77 83 93 96 94 90 95 100 99 84 94 96 95 90 80 78 74 72 71 73 76 78 75 80 78 76 74 73 72 70 68 68 77 77 75 68 62 63 65 62 62 63 71
85 90 96 98 99 96 96 93 87 92 94 96 99 96 95 97 96 90 84 81 81 81 85 84 86 90 88 84 81 76 75 82 82 75 75 89 77 58 59 66 66 66 69
76 87 87 96 98 81 73 83 82 89 91 95 95 92 88 87 89 87 85 82 81 86 82 84 87 84 89 98 93 82 82 84 85 80 70 73 81 76 69 69 71 70 69
76 74 78 86 92 91 73 84 86 92 83 75 73 78 70 64 78 70 77 84 84 86 79 82 76 67 83 89 97 96 94 97 88 81 93 91 90 86 84 80 63 75 73
61 62 70 81 82 86 98 96 90 90 83 80 80 78 80 78 92 95 82 77 79 81 72 79 80 77 69 67 90 95 99 100 91 80 86 88 79 77 76 72 65 59 65
51 52 57 62 80 92 87 85 91 91 88 83 76 80 90 88 84 84 61 58 77 84 74 70 81 70 60 73 98 100 100 100 95 85 80 89 91 84 73 71 72 70 64
39 44 46 51 59 76 85 76 78 82 85 92 78 70 86 73 60 68 69 62 89 97 88 60 88 69 78 97 100 100 100 100 97 94 90 93 86 81 80 79 74 74 66
28 37 37 40 41 51 63 71 75 72 75 82 84 77 78 84 90 88 84 94 94 87 78 88 100 99 100 100 99 100 100 100 100 99 94 80 80 82 83 84 84 82 78
33 34 34 34 36 38 45 48 52 57 68 79 90 86 74 83 89 97 99 97 99 97 100 100 100 100 100 100 100 100 99 98 90 79 70 76 79 83 85 86 86 83 85
43 42 44 42 38 37 38 43 44 51 58 75 96 99 100 98 97 96 100 99 100 99 100 99 99 100 100 100 100 91 85 74 70 66 76 77 79 81 79 80 83 80 80
42 46 48 45 44 44 45 45 47 50 59 75 88 97 99 99 98 99 99 98 99 99 100 99 100 100 97 86 74 67 58 60 65 67 69 74 78 80 80 81 82 82 85
34 38 44 46 48 50 47 50 53 57 68 81 84 88 91 91 93 98 99 100 100 100 100 99 95 90 77 66 62 58 60 62 66 69 70 72 78 80 83 85 87 87 84
33 34 35 44 50 52 56 56 59 67 72 75 79 81 84 84 87 95 99 98 97 97 96 88 82 74 67 65 66 65 65 66 67 66 74 78 79 79 86 90 90 85 85
36 34 34 34 37 48 56 59 64 67 71 71 71 74 77 80 87 93 96 95 95 93 89 81 75 71 69 66 63 63 65 68 73 75 78 79 83 85 87 88 85 83 82
40 37 34 32 36 40 49 58 63 66 64 66 68 73 75 79 82 86 87 88 90 85 79 74 72 74 69 67 63 62 66 72 77 81 83 86 82 82 84 83 84 88 93
42 41 37 37 39 42 46 47 57 66 66 66 69 72 74 76 78 79 79 78 77 76 74 74 73 74 69 64 64 70 71 74 77 85 91 92 89 88 97 88 87 88 90
44 43 43 45 48 47 45 48 57 61 69 68 71 72 73 74 76 77 78 79 79 80 80 80 79 77 74 68 68 68 72 74 83 89 91 90 88 90 88 86 86 86 83
48 49 50 51 52 52 55 52 48 53 60 69 71 74 75 75 77 77 78 80 80 82 81 79 77 78 80 82 74 78 80 84 84 86 89 92 92 89 89 88 83 74 67
59 58 57 54 52 58 61 60 55 50 51 57 67 74 75 75 77 80 84 85 82 83 84 83 81 85 86 87 82 84 81 77 80 85 87 87 91 90 91 90 83 72 62
72 73 64 59 64 70 73 66 62 60 59 59 66 76 78 79 79 84 87 87 83 85 89 87 86 82 82 86 98 83 86 81 80 83 84 85 89 92 87 79 81 73 62
68 72 74 71 77 80 80 75 74 77 79 76 76 82 85 86 88 89 91 94 91 91 91 87 86 83 83 84 91 100 91 92 87 86 82 81 84 83 85 87 82 70 60
62 68 69 75 80 80 83 81 81 81 81 78 75 80 89 92 95 95 97 94 91 86 84 83 83 86 86 89 89 91 98 98 98 92 77 62 44 44 50 62 87 79 78
63 69 69 68 71 78 80 82 87 84 82 77 76 80 85 87 91 98 100 93 89 84 82 80 80 87 90 88 89 91 98 98 99 95 92 69 66 57 61 69 92 88 81
66 69 71 74 77 78 80 85 89 86 82 79 81 83 83 86 90 96 100 95 90 83 76 78 81 84 90 86 84 90 96 99 99 97 97 93 86 78 68 66 69 80 85
73 74 78 80 78 78 80 86 90 90 83 83 84 86 93 97 96 98 100 99 92 87 82 81 84 86 83 85 88 90 91 93 100 100 99 96 88 81 73 63 66 71 77

GFSMW_925_rhum_114.txt.gz
RH
78 80 88 78 77 92 99 82 79 89 62 73 78 78 78 76 75 76 76 73 72 71 73 75 71 70 71 71 69 68 64 64 67 67 69 70 68 67 66 66 66 60 62
94 88 93 95 97 94 95 97 89 84 60 66 73 81 82 83 82 78 80 78 76 76 75 77 74 74 70 71 71 71 68 68 71 74 78 80 67 62 66 66 63 64 67
90 95 97 98 96 96 97 98 98 87 75 73 73 74 73 74 74 74 79 81 79 79 76 72 76 77 77 77 76 75 70 72 77 75 72 91 88 68 64 64 65 66 67
91 93 90 99 99 97 87 91 90 100 94 83 86 84 87 90 82 75 75 76 77 76 78 81 80 79 76 72 76 84 82 82 83 77 80 84 82 84 80 68 67 67 69
88 92 86 90 87 92 82 89 86 92 99 88 74 73 89 87 88 90 88 88 88 88 84 79 77 75 71 80 67 88 85 85 82 89 87 84 82 84 89 92 78 72 68
91 84 82 97 93 71 84 94 79 80 92 95 84 72 65 68 69 83 82 79 75 70 65 64 78 73 64 75 84 79 77 85 89 86 95 83 83 88 88 95 83 75 69
82 83 84 94 98 85 82 95 88 94 85 92 88 78 75 71 73 77 78 79 76 66 63 68 66 68 68 72 82 87 98 88 96 96 100 91 81 86 81 74 78 76 70
68 75 75 86 93 90 89 97 100 85 72 70 78 82 84 77 86 83 76 73 65 58 65 63 58 50 58 81 85 72 72 94 97 100 100 93 90 87 80 75 75 86 78
52 61 62 65 72 85 94 93 90 84 94 94 85 82 87 96 87 78 75 76 78 74 93 81 74 85 68 86 90 89 81 98 99 100 100 92 91 85 73 77 79 82 90
45 48 49 49 51 55 72 85 82 82 83 86 80 72 98 96 86 85 77 76 55 62 75 57 80 86 88 99 99 98 100 100 100 99 98 91 80 78 75 78 81 85 86
56 56 54 44 39 41 51 63 75 79 73 69 77 86 96 92 87 80 72 60 68 81 89 86 88 94 97 100 100 100 100 100 99 94 84 76 71 71 77 79 83 83 84
55 58 57 48 46 42 45 46 46 52 59 65 76 90 90 93 93 97 98 95 99 100 97 98 98 100 99 100 100 100 98 93 84 70 69 74 75 76 78 79 81 83 84
45 53 59 60 58 52 47 49 48 52 62 79 77 94 98 98 99 100 100 100 100 100 99 100 100 100 99 98 96 90 82 69 62 61 62 68 71 68 76 78 80 84 84
43 44 49 62 58 58 58 58 65 72 78 80 91 92 93 95 99 100 100 100 100 99 100 100 99 98 88 77 72 65 64 64 65 64 65 68 70 73 80 83 86 87 84
48 47 46 49 52 59 61 65 68 72 79 84 75 82 87 86 92 97 99 98 97 97 97 97 92 86 77 68 66 66 63 62 63 62 64 66 69 75 80 84 85 86 83
48 46 45 47 49 49 56 64 66 67 70 74 79 76 83 84 89 92 96 95 95 92 92 87 81 74 70 71 69 65 64 64 64 64 69 71 75 76 77 80 82 86 84
54 54 54 56 52 48 49 56 64 66 65 68 71 74 76 80 84 89 90 90 88 87 85 79 76 74 72 77 74 70 66 68 72 76 80 84 82 85 84 83 84 83 84
58 58 60 55 53 54 54 51 55 63 66 68 69 71 73 76 79 81 82 80 81 80 78 76 74 71 70 73 71 69 69 71 72 74 79 86 85 84 90 88 84 84 84
67 63 60 57 54 61 62 60 54 51 60 68 71 71 71 73 75 76 78 80 80 78 76 74 76 74 73 69 69 70 69 71 76 80 83 87 88 87 86 86 85 83 75
71 74 66 60 64 69 72 70 64 60 55 54 63 72 72 72 73 75 78 80 79 80 79 80 80 79 78 82 76 73 74 77 79 80 82 85 86 86 88 89 86 80 73
69 72 73 70 75 75 74 76 75 75 75 71 63 70 75 75 75 77 80 80 82 85 85 84 82 82 76 79 77 80 79 76 77 78 78 78 86 90 90 89 85 79 69
64 68 71 74 78 78 79 81 82 81 78 77 77 73 80 80 78 80 85 84 84 88 88 86 85 83 82 79 78 82 83 81 79 80 81 80 81 86 90 88 77 77 72
63 67 70 70 75 77 79 82 84 84 83 81 79 77 84 88 86 89 90 92 89 90 89 89 87 83 83 83 86 98 98 93 89 86 83 79 70 73 76 73 79 85 68
67 68 69 73 76 78 79 82 85 85 84 82 78 77 82 88 95 97 94 93 92 91 89 86 86 84 84 85 88 98 100 100 99 97 93 83 58 42 38 47 62 88 78
70 70 73 76 77 77 80 83 86 88 84 81 80 80 81 86 87 95 97 97 89 86 85 83 81 84 86 84 83 85 95 98 100 100 97 92 82 78 71 59 60 68 85
76 75 76 80 79 80 83 84 85 91 89 86 85 84 86 86 90 95 99 100 92 89 83 79 78 83 80 82 85 88 90 94 96 100 99 98 96 90 82 74 65 63 76

GFSMW_925_rhum_117.txt.gz
RH
97 98 97 95 98 100 95 86 87 94 86 76 62 63 74 67 67 66 64 64 64 64 58 56 58 58 62 64 63 65 64 64 66 66 64 63 68 69 66 67 68 65 62
97 95 98 97 96 90 86 92 93 94 88 88 69 68 66 66 64 65 62 60 60 59 63 74 69 67 69 71 69 67 66 65 68 73 80 86 72 69 70 70 67 63 66
97 96 98 100 100 95 95 97 84 97 99 97 81 78 79 76 75 66 64 63 64 68 75 78 76 71 72 73 73 72 71 70 72 76 74 88 86 77 76 69 65 65 66
88 94 98 99 100 100 95 91 93 100 86 93 95 84 80 84 86 84 81 78 76 73 73 77 78 78 76 75 75 77 82 80 83 98 89 85 82 87 81 70 68 68 69
91 90 98 98 100 98 91 87 100 100 97 86 87 85 72 82 87 82 86 83 83 82 80 74 75 76 76 76 72 70 72 81 94 90 78 79 85 80 85 90 78 74 72
90 89 92 94 100 100 95 94 98 100 95 90 77 74 60 74 66 84 87 86 86 83 82 82 80 78 76 74 72 76 75 79 86 82 69 75 88 95 93 95 90 84 72
92 94 98 95 92 100 100 90 95 100 99 94 81 68 59 57 62 70 81 85 85 82 78 68 72 77 66 64 68 67 63 71 84 85 77 82 90 84 81 80 81 76 72
94 95 94 89 86 87 97 99 91 97 92 98 92 78 68 63 61 62 58 60 79 70 67 64 68 71 71 65 67 73 78 77 76 88 77 89 100 88 83 81 78 84 81
61 75 88 97 90 90 91 98 90 90 99 86 95 87 81 84 76 74 71 71 72 73 76 74 74 69 68 77 80 98 83 73 85 95 100 100 99 92 86 82 78 69 87
62 59 57 60 75 89 95 92 87 84 92 86 81 80 82 74 80 77 80 74 74 81 81 76 82 85 96 96 85 82 81 90 97 100 100 99 95 92 88 77 78 79 78
65 63 60 50 44 51 65 89 98 97 92 90 94 86 88 89 77 79 70 79 86 89 82 91 89 99 98 96 90 85 92 100 100 100 100 100 93 83 76 75 77 81 86
65 64 66 62 58 48 57 72 86 95 81 81 81 85 90 94 97 92 86 85 85 83 73 97 83 72 78 83 90 99 100 99 100 100 99 88 79 72 73 76 81 82 84
51 61 68 72 70 65 55 60 63 71 72 79 92 92 100 100 100 100 98 91 98 88 76 70 88 98 97 99 100 100 100 100 97 89 77 72 71 71 74 77 80 81 84
50 52 57 67 70 71 73 73 78 86 93 79 65 83 92 97 98 100 98 99 100 100 100 100 99 99 100 99 99 98 94 85 75 68 64 67 67 66 69 74 77 82 86
55 56 58 60 57 68 68 69 72 76 84 90 88 86 80 88 95 98 100 100 98 98 95 96 99 100 100 96 93 84 76 69 67 67 66 68 68 69 73 78 81 82 83
63 62 62 63 60 57 63 68 68 70 75 80 84 89 89 72 92 95 97 99 98 97 96 96 95 87 79 81 78 69 67 69 67 67 67 67 70 73 77 79 82 82 85
68 69 70 66 62 61 58 59 66 68 68 72 77 80 82 80 82 84 89 94 95 93 91 88 85 78 74 72 72 70 65 64 64 62 64 70 71 72 72 76 78 79 79
77 75 73 65 65 64 61 57 54 62 70 70 68 68 71 76 82 85 87 91 90 89 88 85 81 77 74 74 73 73 67 67 68 68 69 71 75 76 79 82 82 82 82
81 80 74 68 70 71 70 64 62 58 57 67 71 69 69 70 75 81 84 86 87 86 85 82 79 77 76 82 78 72 70 71 73 75 75 77 78 79 84 85 83 83 82
72 75 74 74 77 79 76 72 75 75 77 73 65 73 72 72 74 76 79 81 82 81 80 80 79 76 74 82 77 74 71 73 76 80 82 81 82 85 84 85 85 84 78
70 71 72 77 80 77 77 82 84 84 82 77 72 69 78 75 73 75 78 80 82 83 82 80 80 78 77 76 79 76 71 71 77 78 81 81 82 84 87 89 87 83 76
68 69 74 77 79 77 78 82 85 84 82 81 78 76 73 82 81 79 80 84 84 86 86 86 87 86 82 79 79 78 77 75 74 77 77 77 81 86 88 91 85 82 76
69 68 72 76 77 77 79 82 84 84 85 84 82 79 78 83 88 85 85 91 92 91 92 93 91 88 85 84 85 83 84 81 79 78 78 78 77 84 88 93 88 89 76
73 69 71 77 78 77 80 81 82 84 84 84 83 80 83 83 87 89 91 95 96 96 95 96 93 88 88 88 89 96 98 92 88 85 82 78 73 60 60 66 76 89 81
75 72 73 77 78 78 80 80 80 87 88 86 85 82 80 82 90 88 92 96 96 93 93 91 88 90 90 81 83 90 98 100 98 95 94 82 70 58 54 53 58 66 83
79 78 76 79 80 78 79 78 80 85 91 94 92 90 90 90 94 94 93 97 99 96 93 89 86 83 83 81 83 87 90 99 100 100 98 94 88 83 80 76 66 58 58

GFSMW_925_rhum_120.txt.gz
RH
88 92 98 98 90 91 89 95 99 98 95 100 100 98 99 87 79 79 75 76 79 80 72 70 74 71 63 54 50 59 61 62 64 66 68 68 72 71 66 68 68 68 66
98 97 98 100 92 95 85 96 97 96 97 94 97 96 96 86 72 72 72 76 74 73 71 72 65 59 55 54 57 61 65 66 69 72 79 86 74 72 75 76 72 69 70
96 97 97 98 100 92 90 96 98 95 98 85 85 90 92 94 86 73 71 70 69 68 67 64 57 56 56 61 63 66 65 69 82 77 75 92 84 83 81 79 72 74 72
94 94 96 96 99 92 90 95 97 91 100 89 81 85 88 90 88 74 66 67 66 65 62 57 60 63 67 69 70 70 70 68 83 91 75 71 70 85 86 77 73 70 70
95 93 93 96 100 99 94 88 94 99 87 94 94 86 84 83 85 86 74 63 62 61 60 76 75 70 72 74 74 76 76 75 77 80 92 92 91 79 80 84 81 74 72
93 98 96 100 100 100 99 96 92 99 94 86 89 92 90 84 80 78 82 80 66 67 67 80 82 80 77 79 77 78 78 77 76 72 83 81 90 96 93 92 87 79 79
95 98 98 98 100 100 100 96 99 100 100 100 98 91 81 78 79 69 78 92 92 79 74 77 80 82 80 82 73 77 78 76 68 80 81 80 61 84 91 88 89 80 79
98 95 98 97 98 99 100 94 99 100 100 98 99 100 95 87 81 78 63 78 75 88 79 84 84 82 71 70 67 68 72 74 77 83 86 86 86 87 88 81 80 88 81
83 97 98 100 92 94 95 91 95 99 98 95 98 98 89 89 82 69 71 67 57 57 60 61 66 70 70 75 75 78 81 88 89 89 86 86 86 96 99 85 80 75 87
63 62 70 69 91 93 99 94 90 96 95 99 93 87 92 92 86 80 79 72 65 66 82 82 80 74 73 82 84 84 84 91 98 100 97 100 95 100 95 92 86 77 62
71 67 67 64 53 58 73 97 100 97 99 94 92 90 92 85 83 88 90 84 84 80 77 79 80 74 74 82 93 95 93 98 99 100 100 93 98 99 95 90 79 75 76
61 70 71 73 76 68 68 70 99 100 100 94 89 96 91 91 91 97 95 88 89 85 89 86 81 78 86 99 100 99 98 99 100 100 96 98 100 100 88 80 76 75 79
56 58 59 69 78 80 80 85 94 98 100 100 97 96 99 98 95 95 93 95 100 95 94 96 90 74 86 92 93 95 85 92 93 98 100 100 94 84 78 75 76 80 82
66 64 64 61 66 78 76 75 79 93 100 100 100 98 99 87 97 99 100 100 100 100 98 92 98 86 97 94 92 94 97 97 100 100 100 95 82 74 70 74 77 79 82
70 71 72 71 66 64 71 73 73 79 91 97 99 100 95 90 82 94 99 98 99 100 100 100 100 100 99 100 100 99 100 100 98 89 84 80 77 72 68 68 71 79 83
76 74 73 74 73 72 66 65 73 72 79 84 88 92 99 99 100 87 87 99 100 99 99 100 100 100 100 100 100 99 98 90 79 78 75 72 71 70 72 75 80 80 79
82 82 83 78 76 75 70 65 65 72 69 72 78 83 88 92 94 94 87 95 97 96 94 93 93 93 92 94 92 89 84 83 73 73 72 73 73 73 70 77 77 79 83
87 88 87 78 77 74 70 65 60 60 70 74 72 71 74 78 82 84 80 84 87 91 91 90 89 85 81 84 79 76 72 72 70 68 68 67 70 68 72 75 77 79 79
79 82 81 79 76 74 75 74 73 71 70 73 70 74 74 72 74 77 80 85 89 90 90 89 86 82 78 77 76 75 71 71 73 73 72 69 71 76 78 78 80 82 81
74 76 77 80 79 75 73 74 80 77 80 78 74 70 72 76 72 72 76 80 82 85 88 87 84 81 79 81 80 80 76 75 75 77 77 80 77 77 80 80 81 82 81
71 72 74 81 83 80 78 79 80 80 80 77 75 72 71 75 79 77 76 77 80 83 84 85 85 83 80 82 84 82 72 70 74 76 80 80 81 82 84 83 83 82 80
73 72 74 79 81 80 79 82 83 84 84 82 79 76 75 76 80 85 82 82 84 86 87 87 86 84 81 81 83 81 78 74 72 76 75 76 82 86 86 87 87 86 77
76 73 74 76 77 78 79 81 82 84 85 85 84 82 80 80 85 91 90 90 91 93 93 94 92 88 88 88 86 83 79 78 76 74 74 76 81 86 90 94 90 90 78
71 75 73 75 78 78 80 82 82 82 86 87 86 84 81 80 78 79 85 90 95 98 98 98 96 91 90 91 92 95 89 83 80 78 80 80 79 84 87 97 93 92 84
63 77 77 78 79 81 81 79 79 82 83 88 89 88 87 88 94 93 91 91 90 94 96 96 94 95 93 86 87 95 100 91 86 84 84 85 85 86 85 82 81 85 88
70 81 82 80 82 81 81 79 77 78 80 86 93 94 95 94 93 95 96 96 98 100 99 98 97 92 89 89 87 87 92 95 94 91 84 84 78 69 57 50 50 58 69